     2              OBSERVATION DATA    GPS                 RINEX VERSION / TYPE
teqc 1997Jun30 19970702                                     PGM / RUN BY / DATE
                                                            COMMENT
BIT 2 OF LLI FLAGS DATA COLLECTED UNDER A-S CONDITION       COMMENT
BIT 2 OF LLI FLAGS DATA COLLECTED UNDER A-S CONDITION       COMMENT
Original Marker Name: HMCP                                  COMMENT
Campaign Name: HMC San Gabriel Valley 1993-1996             COMMENT
4-Character Station Name: HMCP                              COMMENT
6-Character Antenna Code: DMRCHT                            COMMENT
Vertical Measurement Point: BPA                             COMMENT
Vertical Offset to Rinex Ref. Point: 0.0000                 COMMENT
Radial Measurement Point: RRP                               COMMENT
Radial Offset to Rinex Ref. Point: 0.0000                   COMMENT
Antenna Height from Field Measurement: 0.0000 m             COMMENT
Additional Antenna Identification Info.:                    COMMENT
Turborogue and Ashtech Choke Ring                           COMMENT
Fixed antenna mounting on roof of Parsons                   COMMENT
building, HMC.                                              COMMENT
Original XYZ: -2458610.5266 -4680524.1117 3556486.0277      COMMENT
New XYZ position is based on association with SCEC monument COMMENT
E1D0R2C7+0011. Position of that monument is believed to be  COMMENT
valid to within 1 m horizontally; vertical accuracy         COMMENT
should be no worse than 3-times this value.                 COMMENT
                                                            COMMENT
Revised Rinex header created by UCSD GPS archive for        COMMENT
GSAC on 13-Apr-1999 (1999:103) 20:53:37 GMT                 COMMENT
For assistance contact dagnew@ucsd.edu or hjohnson@ucsd.edu COMMENT
                                                            COMMENT
HARVEY MUDD COLLEGE PHYSICS                                 MARKER NAME
GAL HARVEY MUDD COLLEGE                                     OBSERVER / AGENCY
T-262/263 TURBOROGUE SNR-8000 95.03.08                      REC # / TYPE / VERS
260/329 DORNE-MARGOL. TYPE T                                ANT # / TYPE
 -2458598.0000 -4680494.0000  3556451.0000                  APPROX POSITION XYZ
        0.0000        0.0000        0.0000                  ANTENNA: DELTA H/E/N
     1     1     0                                          WAVELENGTH FACT L1/2
     5    L1    L2    C1    P2    P1                        # / TYPES OF OBSERV
     0                                                      INTERVAL
  1996     7    11     0     0    0.000000                  TIME OF FIRST OBS
  1996     7    11    23    59   30.000000                  TIME OF LAST OBS
     0                                                      # OF SATELLITES
                                                            END OF HEADER
 96  7 11  0  0  0.0000000  0  7G 9G 3G 1G23G17G21G28
  -1330631.89544  -1036854.62944  24192841.3444   24192845.4694
 -13274911.15444 -10344083.62844  21736315.8254   21736317.9344
 -14595254.67644 -11372907.61744  22414347.4804   22414351.8344
 -21888333.64844 -17055828.67244  21091041.9384   21091044.1144
  -3629445.39544  -2828137.85544  21131594.2964   21131596.9114
 -19899356.86044 -15505980.33444  21152428.8874   21152431.6194
 -21858312.204 4 -17032445.272 4  20644558.238    20644556.766
 96  7 11  0  0 30.0000000  0  7G 9G 3G 1G23G17G21G28
  -1373601.70144                  24184664.4294
 -13322344.11644 -10381044.37944  21727289.3764   21727292.0124
 -14692319.66844 -11448542.62644  22395876.5904   22395880.7634
 -21853484.43144 -17028673.44044  21097673.6224   21097675.6564
  -3589017.05644  -2796635.26644  21139287.9334   21139290.5784
 -19928669.80144 -15528821.56944  21146851.1144   21146853.4044
 -21834227.141 4 -17013677.709 4  20649141.439    20649139.886
 96  7 11  0  1  0.0000000  0  7G 9G 3G 1G23G17G21G28
  -1416100.71944  -1103453.56544  24176577.5904   24176582.8144
 -13369110.62744 -10417485.81244  21718390.1314   21718392.7814
 -14788982.23044 -11523864.05344  22377482.4414   22377485.6594
 -21818342.57644 -17001290.17744  21104360.8244   21104362.8654
  -3548126.46544  -2764772.47944  21147068.8614   21147071.5694
 -19957621.63044 -15551381.41944  21141341.6004   21141343.7124
 -21809406.769 4 -16994337.180 4  20653864.437    20653863.211
 96  7 11  0  1 30.0000000  0  7G 9G 3G 1G23G17G21G28
  -1458326.53444  -1136356.82244  24168541.8414   24168545.1244
 -13415396.36744 -10453552.62144  21709582.7584   21709584.7334
 -14885463.36244 -11599044.11844  22359122.6494   22359126.2634
 -21783110.90344 -16973836.92444  21111065.2594   21111067.2534
  -3506976.14744  -2732707.31344  21154899.5154   21154901.8914
 -19986414.03644 -15573817.03744  21135862.3564   21135864.6694
 -21784063.335 4 -16974589.067 4  20658687.137    20658685.909
 96  7 11  0  2  0.0000000  0  7G 9G 3G 1G23G17G21G28
  -1500159.27444  -1168953.69744  24160580.9224   24160585.5694
 -13461060.38444 -10489134.98044  21700892.7084   21700894.7064
 -14981642.41944 -11673988.79044  22340820.0474   22340824.1714
 -21747656.92444 -16946210.45144  21117811.6694   21117813.6314
  -3465450.02544  -2700349.31444  21162802.0534   21162804.5134
 -20014916.94144 -15596027.07544  21130438.4244   21130440.9524
 -21758072.703 4 -16954336.646 4  20663633.164    20663631.772
 96  7 11  0  2 30.0000000  0  7G 9G 3G 1G23G17G21G28
  -1541632.29244  -1201270.27644  24152689.1814   24152695.4894
 -13506137.06344 -10524259.66444  21692314.6864   21692317.1924
 -15077547.40544 -11748719.89744  22322570.1814   22322573.8204
 -21711995.72944 -16918422.50544  21124598.3914   21124600.3314
  -3423579.55844  -2667722.98644  21170769.3334   21170772.4314
 -20043164.76744 -15618038.35844  21125063.0564   21125065.8834
 -21731469.637 4 -16933607.002 4  20668695.624    20668694.157
 96  7 11  0  3  0.0000000  0  7G 9G 3G 1G23G17G21G28
  -1582754.55944  -1233313.57244  24144862.8884   24144866.2354
 -13550656.57544 -10558950.18944  21683843.0404   21683845.9954
 -15173201.51144 -11823255.52444  22304367.5174   22304371.1264
 -21676152.95144 -16890493.06644  21131418.9054   21131420.8924
  -3381410.79944  -2634864.22744  21178793.9084   21178796.2294
 -20071188.11444 -15639874.71644  21119730.6534   21119732.9864
 -21704285.247 4 -16912424.378 4  20673868.738    20673867.212
 96  7 11  0  3 30.0000000  0  7G 9G 3G 1G23G17G21G28
  -1623515.45444  -1265075.27944  24137106.9964   24137110.6814
 -13594616.57944 -10593204.73544  21675478.2064   21675480.2614
 -15268588.97144 -11897583.37344  22286215.8764   22286219.2954
 -21640125.46644 -16862419.70844  21138274.1474   21138276.2614
  -3338946.70844  -2601775.33644  21186874.7294   21186877.4104
 -20098972.23144 -15661524.65944  21114443.4924   21114445.5244
 -21676510.571 4 -16890781.789 4  20679154.088    20679152.542
 96  7 11  0  4  0.0000000  0  7G 9G 3G 1G23G17G21G28
  -1663893.29744  -1296538.50544  24129423.5364   24129427.5204
 -13638000.34444 -10627010.27544  21667222.4284   21667224.3104
 -15363659.64444 -11971664.36744  22268124.7104   22268127.9254
 -21603890.05844 -16834184.32644  21145169.4664   21145171.3474
  -3296154.90944  -2568431.08344  21195017.4504   21195020.5384
 -20126496.03644 -15682971.76344  21109205.8644   21109207.8324
 -21648116.864 4 -16868656.838 4  20684557.133    20684555.571
 96  7 11  0  4 30.0000000  0  7G 9G 3G 1G23G17G21G28
  -1703880.04144  -1327696.98944  24121814.6704   24121817.5384
 -13680824.43544 -10660379.70044  21659072.9724   21659075.7524
 -15458411.56244 -12045496.98544  22250093.5374   22250097.9334
 -21567465.42144 -16805801.49144  21152101.2054   21152103.2294
  -3253032.31744  -2534829.07644  21203223.5904   21203226.0854
 -20153767.64844 -15704222.35244  21104016.1974   21104018.6784
 -21619103.397 4 -16846048.958 4  20690078.154    20690076.808
 96  7 11  0  5  0.0000000  0  7G 9G 3G 1G23G17G21G28
  -1743547.71244  -1358606.80544  24114266.2544   24114269.6984
 -13723178.24244 -10693382.66344  21651013.5534   21651016.1104
 -15552919.93944 -12119139.83044  22232109.7534   22232113.2974
 -21530951.90844 -16777349.39844  21159049.6874   21159051.6104
  -3209660.47644  -2501032.85044  21211477.0344   21211479.6954
 -20180869.65044 -15725340.78644  21098858.8564   21098861.2994
 -21589545.237 4 -16823016.643 4  20695702.917    20695701.503
 96  7 11  0  5 30.0000000  0  8G 9G31G 3G 1G23G17G21G28
  -1782799.73244  -1389192.76244  24106796.5164   24106800.2894
        -1.08954                  24070158.3804
 -13764961.93644 -10725941.38744  21643062.2324   21643064.3064
 -15647072.88544 -12192505.70944  22214193.2364   22214196.9314
 -21494251.36144 -16748751.57244  21166033.2254   21166035.2064
  -3165918.05244  -2466947.85844  21219801.1524   21219804.1414
 -20207706.78144 -15746252.82644  21093751.8214   21093754.5324
 -21559341.014 4 -16799480.903 4  20701450.714    20701449.221
 96  7 11  0  6  0.0000000  0  7G 9G 3G 1G23G17G21G28
  -1821748.58644  -1419542.52944  24099383.8064   24099385.6594
 -13806292.70144 -10758147.18044  21635197.6494   21635199.8764
 -15740995.09344 -12265691.80244  22196319.7474   22196323.9284
 -21457490.83644 -16720107.00544  21173028.2594   21173030.6664
  -3121909.22744  -2432655.27944  21228175.8204   21228178.5964
 -20234401.55544 -15767053.93244  21088672.0794   21088674.3424
 -21528615.265 4 -16775538.786 4  20707297.611    20707296.107
 96  7 11  0  6 30.0000000  0  7G 9G 3G 1G23G17G21G28
  -1860375.76844  -1449641.58844  24092033.7434   24092036.9504
 -13847153.47544 -10789986.74244  21627421.9354   21627424.0424
 -15834680.41644 -12338693.29944  22178491.9284   22178495.6864
 -21420646.34944 -16691397.02344  21180039.7894   21180041.9594
  -3077626.63744  -2398149.37744  21236602.3994   21236605.0014
 -20260936.46544 -15787730.47444  21083622.5734   21083624.6214
 -21497361.324 4 -16751185.088 4  20713245.096    20713243.602
 96  7 11  0  7  0.0000000  0  7G 9G 3G 1G23G17G21G28
  -1898542.95044  -1479382.22344  24084771.2054   24084774.2474
 -13887391.63144 -10821341.15044  21619764.8604   21619766.8864
 -15927977.01744 -12411391.89744  22160738.2784   22160742.0374
 -21383557.21744 -16662496.39944  21187097.9484   21187100.0944
  -3032927.33644  -2363318.76444  21245108.1044   21245111.1664
 -20287162.06344 -15808165.98944  21078632.0364   21078634.4054
 -21465446.507 4 -16726316.421 4  20719318.417    20719316.801
 96  7 11  0  7 30.0000000  0  7G 9G 3G 1G23G17G21G28
  -1936307.61944  -1508809.16244  24077584.3664   24077587.6434
 -13927030.22244 -10852228.35844  21612221.8024   21612224.0024
 -16020938.00644 -12483828.98544  22143049.2264   22143052.3044
 -21346260.18444 -16633433.77644  21194195.1954   21194196.8424
  -2987849.85444  -2328193.46244  21253686.2854   21253688.6674
 -20313124.00044 -15828396.06044  21073691.6364   21073694.2654
 -21432930.348 4 -16700979.175 4  20725505.993    20725504.343
 96  7 11  0  8  0.0000000  0  8G 9G31G 3G 1G23G17G21G28
  -1973592.41044  -1537862.17344  24070489.6014
         0.05454                  23986767.1494
 -13965974.96044 -10882574.91344  21604810.6364   21604813.3584
 -16113492.90944 -12555949.65044  22125436.3494   22125439.4584
 -21308664.82644 -16604138.69444  21201349.3654   21201351.1694
  -2942332.92644  -2292725.73444  21262347.6744   21262350.2174
 -20338740.80544 -15848357.19744  21068816.8224   21068819.5144
 -21399733.347 4 -16675111.405 4  20731823.213    20731821.552
 96  7 11  0  8 30.0000000  0  8G 9G31G 3G 1G23G17G21G28
  -2010484.22044  -1566608.98444  24063468.8484
    -86550.53244                  23970295.2514
 -14004305.01244 -10912442.49144  21597517.3204   21597519.2244
 -16205719.74744 -12627814.66744  22107885.8894   22107888.9974
 -21270845.81744 -16574669.33644  21208545.8754   21208547.6734
  -2896481.51644  -2256997.37544  21271073.0364   21271076.1084
 -20364109.08744 -15868124.67344  21063989.3044   21063991.7724
 -21365937.147 4 -16648776.725 4  20738254.270    20738252.837
 96  7 11  0  9  0.0000000  0  8G 9G31G 3G 1G23G17G21G28
  -2047114.54344  -1595152.03144  24056498.4544   24056500.0394
   -172881.60344                  23953868.3994
 -14042149.67844 -10941931.84744  21590315.6524   21590317.5834
 -16297758.69444 -12699533.27544  22090371.3804   22090375.1724
 -21232952.91844 -16545142.41044  21215756.7234   21215758.8494
  -2850422.15344  -2221106.97544  21279837.8084   21279840.4124
 -20389374.31044 -15887811.84244  21059181.6964   21059184.0234
 -21331671.146 4 -16622075.966 4  20744774.948    20744773.429
 96  7 11  0  9 30.0000000  0  8G 9G31G 3G 1G23G17G21G28
  -2083375.67344  -1623407.38744  24049598.2054   24049605.6824
   -258877.40444                  23937501.9744
 -14079406.29844 -10970962.97844  21583225.5214   21583227.6434
 -16389511.55544 -12771028.96244  22072911.2414   22072914.5744
 -21194900.96544 -16515491.54244  21222997.8354   21223000.0784
  -2804046.63344  -2184970.21744  21288663.1804   21288665.6384
 -20414430.57644 -15907336.19044  21054413.7604   21054416.1644
 -21296825.840 4 -16594923.801 4  20751405.999    20751404.205
 96  7 11  0 10  0.0000000  0  8G 9G31G 3G 1G23G17G21G28
  -2119261.29944  -1651370.09844  24042769.3394
   -344542.06844                  23921202.1024
 -14116102.60344 -10999557.50844  21576242.6484   21576244.4364
 -16480986.19544 -12842307.84744  22055504.0524   22055507.7044
 -21156709.05144 -16485731.61544  21230265.5044   21230267.8164
  -2757366.25844  -2148595.91844  21297545.9824   21297548.5894
 -20439288.51044 -15926705.99544  21049683.3344   21049685.9664
 -21261405.694 4 -16567323.711 4  20758146.149    20758144.512
 96  7 11  0 10 30.0000000  0  8G 9G31G 3G 1G23G17G21G28
  -2154773.94244                  24036011.6454
   -429897.46644                  23904959.2924
 -14152255.64144 -11027728.70844  21569362.9924   21569365.1884
 -16572185.35144 -12913372.07044  22038149.0494   22038152.7184
 -21118408.02344 -16455886.66144  21237554.1374   21237556.0054
  -2710380.03844  -2111983.29144  21306487.0414   21306489.9354
 -20463960.58444 -15945930.97644  21044988.1904   21044990.6424
 -21225424.297 4 -16539286.281 4  20764993.204    20764991.621
 96  7 11  0 11  0.0000000  0  8G 9G31G 3G 1G23G17G21G28
  -2189897.16544  -1706410.28344  24029327.2424
   -514914.35544   -401231.51844  23888780.9874
 -14187845.28344 -11055460.89844  21562590.1614   21562592.1664
 -16663088.65244 -12984205.75644  22020850.7874   22020854.2454
 -21079986.62244 -16425947.91244  21244865.5284   21244867.0714
  -2663056.99944  -2075108.20844  21315492.2364   21315494.8074
 -20488406.55144 -15964979.76844  21040336.2354   21040338.8294
 -21188863.966 4 -16510797.733 4  20771950.488    20771948.732
 96  7 11  0 11 30.0000000  0  8G 9G31G 3G 1G23G17G21G28
  -2224660.93144  -1733497.75044  24022713.0784   24022714.2444
   -599638.04344   -467249.88944  23872659.5104   23872657.8594
 -14222913.09444 -11082786.46844  21555917.0934   21555919.0614
 -16753723.52844 -13054830.28544  22003603.6554   22003607.0534
 -21041473.85844 -16395937.97144  21252194.0524   21252196.3044
  -2615445.78644  -2038008.57644  21324552.7374   21324555.2264
 -20512659.68344 -15983878.29644  21035721.0874   21035723.4114
 -21151770.772 4 -16481893.968 4  20779009.153    20779007.473
 96  7 11  0 12  0.0000000  0  8G 9G31G 3G 1G23G17G21G28
  -2259016.64344  -1760261.76444  24016174.7024   24016177.0104
   -684033.95144   -533012.92944  23856600.7184   23856602.0544
 -14257421.99244 -11109676.52344  21549350.4944   21549352.5814
 -16844044.01444 -13125209.83244  21986416.5044   21986419.9184
 -21002817.80444 -16365816.37244  21259549.7644   21259551.8344
  -2567524.55744  -2000667.37644  21333671.3924   21333674.2434
 -20536698.85544 -16002610.10144  21031146.5454   21031149.0244
 -21114111.916 4 -16452549.426 4  20786175.444    20786173.762
 96  7 11  0 12 30.0000000  0  8G 9G31G 3G 1G23G17G21G28
  -2292928.74044  -1786688.60444  24009721.5774   24009723.9964
   -768052.86744   -598482.17844  23840613.0264   23840609.1794
 -14291315.85944 -11136087.32744  21542900.3374   21542902.7324
 -16933997.16744 -13195303.14744  21969299.0954   21969301.9504
 -20963966.30544 -16335542.47944  21266943.2024   21266945.2904
  -2519258.87744  -1963057.77044  21342856.3644   21342858.5294
 -20560476.93844 -16021138.46244  21026621.7214   21026624.2174
 -21075843.406 4 -16422729.832 4  20793457.474    20793455.997
 96  7 11  0 13  0.0000000  0  8G 9G31G 3G 1G23G17G21G28
  -2326402.05544  -1812778.74944  24003351.7604   24003353.0384
   -851695.63544   -663658.26844  23824695.5614   23824697.5774
 -14324602.22044 -11162024.75144  21536566.7244   21536568.6884
 -17023596.22344 -13265120.54644  21952248.7554   21952251.8614
 -20924920.83244 -16305117.46044  21274373.0254   21274375.1114
  -2470653.33144  -1925183.33744  21352105.3534   21352108.3944
 -20584000.73144 -16039468.67744  21022145.2564   21022147.6254
 -21036975.322 4 -16392443.035 4  20800853.808    20800852.309
 96  7 11  0 13 30.0000000  0  8G 9G31G 3G 1G23G17G21G28
  -2359436.34244                  23997065.4604
   -934976.84644   -728552.69044  23808847.3934   23808848.5524
 -14357295.47144 -11187500.01644  21530345.1924   21530347.4024
 -17112853.84544 -13334671.89044  21935263.6284   21935266.8374
 -20885688.16144 -16274546.54544  21281838.9664   21281841.2124
  -2421722.43344  -1887055.38844  21361416.8044   21361419.9074
 -20607293.88244 -16057619.16844  21017712.9194   21017715.2934
 -20997522.267 4 -16361700.419 4  20808361.671    20808359.933
 96  7 11  0 14  0.0000000  0  8G 9G31G 3G 1G23G17G21G28
  -2392078.90744                  23990853.5344
  -1017909.32744   -793175.39944  23793064.6984   23793069.3374
 -14389422.50544 -11212534.06544  21524231.5454   21524233.5514
 -17201799.59244 -13403980.21944  21918337.3894   21918340.7804
 -20846306.36244 -16243859.43844  21289333.4554   21289335.4334
  -2372491.85544  -1848693.91644  21370785.2294   21370787.5844
 -20630375.00944 -16075604.44644  21013320.7664   21013322.7014
 -20957511.270 4 -16330523.042 4  20815975.627    20815973.720
 96  7 11  0 14 30.0000000  0  8G 9G31G 3G 1G23G17G21G28
  -2424335.95744                  23984715.3904
  -1100466.62744   -857505.74644  23777355.1154   23777362.0514
 -14420968.64344 -11237115.47244  21518228.6024   21518230.9434
 -17290430.69144 -13473043.35744  21901471.6374   21901475.0494
 -20806773.60244 -16213054.69244  21296856.3934   21296858.2224
  -2322940.14444  -1810082.20744  21380214.5704   21380217.1134
 -20653217.90944 -16093404.09144  21008973.7434   21008975.8934
 -20916933.756 4 -16298904.226 4  20823697.260    20823695.426
 96  7 11  0 15  0.0000000  0  8G 9G31G 3G 1G23G17G21G28
  -2456169.94244  -1913896.97644  23978657.6834   23978663.7754
  -1182614.59144   -921517.12744  23761720.0554   23761723.1864
 -14451916.74444 -11261230.87244  21512339.2794   21512341.5754
 -17378710.16644 -13541832.50844  21884672.4944   21884675.6954
 -20767064.68144 -16182112.68044  21304412.6744   21304414.3064
  -2273028.87644  -1771190.32744  21389712.4514   21389715.3904
 -20675790.75144 -16110993.30244  21004678.2484   21004680.5364
 -20875761.841 4 -16266822.241 4  20831532.146    20831530.263
 96  7 11  0 15 30.0000000  0  8G 9G31G 3G 1G23G17G21G28
  -2487588.12044  -1938378.60644  23972678.9344   23972684.6054
  -1264356.53744   -985212.09144  23746164.3724   23746164.9714
 -14482270.43544 -11284883.09544  21506563.3144   21506565.6324
 -17466625.51844 -13610337.92644  21867942.5214   21867945.8934
 -20727176.70244 -16151031.14444  21312002.8094   21312004.9234
  -2222771.32144  -1732028.61344  21399276.0874   21399278.6054
 -20698084.96844 -16128365.40344  21000435.7584   21000437.8804
 -20833995.685 4 -16234277.211 4  20839479.897    20839478.364
 96  7 11  0 16  0.0000000  0  8G 9G31G 3G 1G23G17G21G28
  -2518621.15944  -1962560.19944  23966773.2294   23966774.6104
  -1345724.23244  -1048615.50544  23730680.5274   23730684.7454
 -14512054.46244 -11308091.42744  21500895.4984   21500897.7114
 -17554196.54744 -13678575.04144  21851278.1794   21851281.7534
 -20687150.72444 -16119842.07544  21319619.7524   21319621.6754
  -2172191.99544  -1692616.16344  21408901.1064   21408903.9744
 -20720132.58344 -16145545.35244  20996240.4464   20996242.7594
 -20791667.236 4 -16201294.031 4  20847534.710    20847533.179
 96  7 11  0 16 30.0000000  0  8G 9G31G 3G 1G23G17G21G28
  -2549220.30744  -1986403.61344  23960950.5904   23960952.4184
  -1426711.64144  -1111722.55644  23715271.4104   23715272.5724
 -14541244.47544 -11330836.89344  21495340.5884   21495342.6004
 -17641396.20844 -13746522.77444  21834684.8964   21834688.2104
 -20646974.53444 -16088535.95744  21327264.7524   21327266.8104
  -2121269.44744  -1652936.27444  21418591.5254   21418594.1444
 -20741930.98044 -16162531.10544  20992092.2634   20992094.4774
 -20748758.845 4 -16167858.942 4  20855699.991    20855698.287
 96  7 11  0 17  0.0000000  0  8G 9G31G 3G 1G23G17G21G28
  -2579374.37344  -2009900.24544  23955212.5014   23955214.6054
  -1507347.69044  -1174555.82744  23699925.8364   23699928.1614
 -14569844.43244 -11353122.57244  21489898.0944   21489900.0894
 -17728219.01744 -13814176.85644  21818163.3034   21818166.3824
 -20606667.17744 -16057127.63144  21334935.1924   21334937.1274
  -2070010.51544  -1612994.27244  21428345.5654   21428348.2804
 -20763497.60344 -16179336.25244  20987988.3214   20987990.2524
 -20705279.757 4 -16133979.149 4  20863973.599    20863971.904
 96  7 11  0 17 30.0000000  0  8G 9G31G 3G 1G23G17G21G28
  -2609098.04144  -2033061.51844  23949556.2404   23949559.1604
  -1587644.39544  -1237124.64844  23684645.8694   23684649.1804
 -14597849.39544 -11374944.62144  21484569.3034   21484571.1664
 -17814686.63444 -13881554.17244  21801708.8944   21801712.0874
 -20566238.66244 -16025624.89744  21342628.3484   21342630.3814
  -2018419.45344  -1572793.45644  21438163.4854   21438166.3074
 -20784855.70144 -16195978.91244  20983923.9304   20983925.9154
 -20661246.450 4 -16099667.499 4  20872352.888    20872351.133
 96  7 11  0 18  0.0000000  0  8G 9G31G 3G 1G23G17G21G28
  -2638378.10244  -2055877.08944  23943984.3124   23943988.8844
  -1667585.47144  -1299416.37544  23669434.2964   23669437.7894
 -14625243.18244 -11396290.43244  21479356.4704   21479358.6504
 -17900798.33444 -13948654.14844  21785322.7684   21785326.0304
 -20525684.23744 -15994024.05544  21350345.6944   21350347.8614
  -1966478.13044  -1532319.71244  21448046.9654   21448049.8484
 -20806019.74844 -16212470.35944  20979896.5974   20979898.6434
 -20616656.735 4 -16064922.288 4  20880838.078    20880836.378
 96  7 11  0 18 30.0000000  0  8G 9G31G 3G 1G23G17G21G28
  -2667234.82344  -2078362.76944  23938492.8964   23938497.3854
  -1747177.44144  -1361436.08344  23654289.0074   23654292.3764
 -14652052.19844 -11417180.58144  21474254.8934   21474257.2234
 -17986572.54244 -14015491.14644  21768999.9654   21769002.6864
 -20485011.19544 -15962330.78044  21358085.5464   21358087.6134
  -1914205.82944  -1491588.05844  21457994.1144   21457996.9594
 -20827005.83044 -16228823.13544  20975903.1574   20975905.1564
 -20571529.887 4 -16029758.533 4  20889425.475    20889423.731
 96  7 11  0 19  0.0000000  0  8G 9G31G 3G 1G23G17G21G28
  -2695711.69144  -2100552.54544  23933074.5184   23933077.0994
  -1826423.48844  -1423186.22644  23639209.1614   23639214.0584
 -14678299.48844 -11437633.02344  21469259.6314   21469262.3154
 -18072027.26944 -14082079.19844  21752738.9354   21752741.7364
 -20444220.90044 -15930546.13944  21365847.5064   21365849.3784
  -1861620.64044  -1450612.60844  21468000.9844   21468003.9494
 -20847826.39044 -16245046.93544  20971941.0194   20971943.2584
 -20525886.062 4 -15994191.941 4  20898111.313    20898109.576
 96  7 11  0 19 30.0000000  0  8G 9G31G 3G 1G23G17G21G28
  -2723752.66644  -2122402.60844  23927738.0834   23927740.8294
  -1905255.03544  -1484613.41444  23624207.9414   23624214.8564
 -14703936.41544 -11457609.85444  21464381.4724   21464383.8404
 -18157106.31144 -14148374.51744  21736548.8734   21736551.6884
 -20403241.27444 -15898613.96344  21373645.8704   21373647.8084
  -1808668.19944  -1409350.97444  21478077.4674   21478080.5044
 -20868419.32144 -16261093.36144  20968022.1484   20968024.3174
 -20479667.841 4 -15958177.767 4  20906906.327    20906904.756
 96  7 11  0 20  0.0000000  0  8G 9G31G 3G 1G23G17G21G28
  -2751383.21544  -2143932.87644  23922480.1624   23922483.1954
  -1983709.03744  -1545746.36344  23609278.1784   23609283.5124
 -14729012.15744 -11477149.40544  21459609.8394   21459612.0514
 -18241832.63244 -14214394.98444  21720425.8494   21720429.0074
 -20362120.58244 -15866571.86944  21381470.7114   21381473.1034
  -1755398.20744  -1367841.91344  21488214.5764   21488217.3124
 -20888812.75044 -16276984.32544  20964141.4184   20964143.4444
 -20432911.741 4 -15921744.465 4  20915803.871    20915802.189
 96  7 11  0 20 30.0000000  0  8G 9G31G 3G 1G23G17G21G28
  -2778585.50744  -2165129.45644  23917303.6774   23917306.5954
  -2061780.14744  -1606580.98244  23594422.9954   23594427.3744
 -14753524.59344 -11496250.01644  21454945.2684   21454947.5644
 -18326188.73244 -14280126.96844  21704373.2814   21704376.4014
 -20320860.88244 -15834421.46244  21389321.9704   21389324.4604
  -1701811.09344  -1326085.73144  21498411.6194   21498414.4304
 -20908980.96044 -16292699.79744  20960303.6224   20960305.5944
 -20385605.681 4 -15884882.618 4  20924805.958    20924804.125
 96  7 11  0 21  0.0000000  0  8G 9G31G 3G 1G23G17G21G28
  -2805333.26244  -2185971.75444  23912213.3984   23912217.2054
  -2139463.57444  -1667113.50344  23579640.0994   23579642.8654
 -14777451.08044 -11514894.03444  21450392.2114   21450394.2414
 -18410162.23844 -14345560.83044  21688393.5304   21688396.4184
 -20279460.16044 -15802161.16144  21397200.2724   21397202.5234
  -1647888.90944  -1284068.45644  21508672.5594   21508675.2714
 -20928908.22044 -16308227.51744  20956511.6854   20956513.5274
 -20337735.748 4 -15847581.391 4  20933915.108    20933913.418
 96  7 11  0 21 30.0000000  0  8G 9G31G 3G 1G23G17G21G28
  -2831612.20644  -2206448.86744  23907212.6074   23907215.0124
  -2216764.26344  -1727347.78644  23564929.7414   23564932.3584
 -14800790.83044 -11533080.85844  21445950.6564   21445953.0304
 -18493763.15844 -14410704.35244  21672484.5024   21672487.8424
 -20237934.68844 -15769803.65744  21405102.3514   21405104.9454
  -1593632.44744  -1241790.70544  21518997.2194   21519000.3204
 -20948603.23044 -16323574.26044  20952763.4944   20952765.6454
 -20289309.431 4 -15809846.618 4  20943130.356    20943128.591
 96  7 11  0 22  0.0000000  0  8G 9G31G 3G 1G23G17G21G28
  -2857428.37744  -2226565.31844  23902300.0574   23902305.4064
  -2293687.99644  -1787288.33244  23550292.2554   23550292.7984
 -14823537.29244 -11550805.37944  21441622.3514   21441624.7544
 -18577004.33644 -14475567.56044  21656644.0644   21656647.2854
 -20196301.70444 -15737362.37244  21413024.9354   21413027.0614
  -1539055.49344  -1199263.22544  21529382.9184   21529385.8904
 -20968085.56444 -16338755.28644  20949056.0644   20949058.7714
 -20240342.566 4 -15771690.637 4  20952448.565    20952446.646
 96  7 11  0 22 30.0000000  0  8G 9G31G 3G 1G23G17G21G28
  -2882772.54644  -2246313.99644  23897477.1634   23897480.3744
  -2370218.92444  -1846922.80244  23535728.3804   23535730.3274
 -14845667.09444 -11568049.38744  21437411.2324   21437413.8824
 -18659891.87944 -14540155.20844  21640871.2474   21640874.4694
 -20154534.49944 -15704816.49944  21420972.9704   21420974.9424
  -1484151.74444  -1156481.09944  21539830.6134   21539833.7264
 -20987349.99244 -16353766.51144  20945390.1174   20945392.5434
 -20190829.075 4 -15733108.716 4  20961870.496    20961868.953
 96  7 11  0 23  0.0000000  0  8G 9G31G 3G 1G23G17G21G28
  -2907647.29044  -2265696.85544  23892744.3184   23892748.3034
  -2446341.24044  -1906238.87544  23521242.1104   23521245.1624
 -14867163.99944 -11584800.22744  21433320.3734   21433322.8554
 -18742427.64744 -14604468.74844  21625165.2174   21625168.2344
 -20112616.14444 -15672152.84944  21428949.8814   21428952.2524
  -1428912.95744  -1113437.90944  21550342.5424   21550345.4644
 -21006394.17544 -16368606.11744  20941766.4244   20941768.6354
 -20140770.814 4 -15694102.300 4  20971396.343    20971394.685
 96  7 11  0 23 30.0000000  0  8G 9G31G 3G 1G23G17G21G28
  -2932048.60344  -2284710.83344  23888101.2734   23888103.1254
  -2522038.15844  -1965223.46444  23506837.6244   23506842.3964
 -14888014.67844 -11601047.51344  21429352.5504   21429355.0484
 -18824608.49044 -14668505.71844  21609526.8374   21609530.0384
 -20070538.62244 -15639365.17344  21436956.8964   21436958.9794
  -1373345.13644  -1070138.31744  21560916.7274   21560919.5024
 -21025215.03444 -16383271.70144  20938184.8704   20938187.0764
 -20090167.078 4 -15654670.844 4  20981026.134    20981024.347
 96  7 11  0 24  0.0000000  0  8G 9G31G 3G 1G23G17G21G28
  -2956006.43744  -2303379.25544  23883541.2234   23883545.0504
  -2597327.30744  -2023890.32644  23492510.4754   23492511.4234
 -14908241.97344 -11616809.04344  21425503.5524   21425506.1284
 -18906449.70044 -14732278.04044  21593952.7834   21593956.1204
 -20028325.90344 -15606472.14844  21444989.7124   21444991.9974
  -1317483.23244  -1026609.58444  21571546.8764   21571549.7724
 -21043827.73744 -16397775.08644  20934642.7534   20934644.8944
 -20039043.687 4 -15614834.463 4  20990754.693    20990752.865
 96  7 11  0 24 30.0000000  0  8G 9G31G 3G 1G23G17G21G28
  -2979533.85744  -2321712.29144  23879064.3124   23879068.1734
  -2672192.77644  -2082227.01644  23478263.6964   23478268.4954
 -14927859.02644 -11632095.06544  21421770.5574   21421773.0974
 -18987941.89244 -14795778.39944  21578445.1204   21578448.4904
 -19985979.27244 -15573474.77744  21453048.2374   21453050.3974
  -1261310.60844   -982838.73244  21582236.1344   21582238.9354
 -21062220.05744 -16412106.74744  20931142.7494   20931145.3134
 -19987398.058 4 -15574591.143 4  21000582.503    21000580.731
 96  7 11  0 25  0.0000000  0  8G 9G31G 3G 1G23G17G21G28
  -3002646.31944  -2339721.96444  23874665.0054   23874668.5364
  -2746645.12244  -2140241.79144  23464095.6574   23464098.0294
 -14946883.44044 -11646919.28744  21418149.8924   21418152.3594
 -19069067.39244 -14858993.01944  21563007.8464   21563011.2314
 -19943527.20744 -15540395.25044  21461126.4314   21461128.5114
  -1204824.41944   -938823.53344  21592985.3794   21592988.4524
 -21080397.60644 -16426271.05844  20927683.8984   20927686.1654
 -19935236.784 4 -15533946.021 4  21010508.286    21010506.516
 96  7 11  0 25 30.0000000  0  8G 9G31G 3G 1G23G17G21G28
  -3025335.20944  -2357401.58244  23870348.7924   23870351.6834
  -2820685.96644  -2197935.92744  23450007.2854   23450008.4234
 -14965320.46544 -11661285.81544  21414642.2384   21414644.0104
 -19149817.91944 -14921915.45344  21547641.2804   21547644.4594
 -19900968.80444 -15507232.86544  21469225.1414   21469227.4504
  -1148019.40044   -894559.89444  21603794.5664   21603797.7514
 -21098370.71044 -16440276.06644  20924264.0474   20924266.1594
 -19882555.072 4 -15492895.364 4  21020533.454    21020531.532
 96  7 11  0 26  0.0000000  0  8G 9G31G 3G 1G23G17G21G28
  -3047591.05344  -2374743.74344  23866113.3294   23866118.3584
  -2894303.28744  -2255300.04744  23435998.7414   23436000.9734
 -14983173.38144 -11675197.17544  21411244.8704   21411247.1944
 -19230167.76044 -14984525.67144  21532351.0454   21532353.7964
 -19858287.17844 -15473974.46244  21477347.0134   21477348.9774
  -1090877.31744   -850033.62344  21614668.7864   21614671.4844
 -21116129.73844 -16454114.25444  20920884.5214   20920886.7114
 -19829340.072 4 -15451429.154 4  21030659.932    21030658.026
 96  7 11  0 26 30.0000000  0  8G 9G31G 3G 1G23G17G21G28
  -3069414.57544  -2391749.09944  23861960.5114   23861962.6334
  -2967520.70544  -2312352.57144  23422065.2844   23422068.5864
 -15000451.92344 -11688660.97444  21407956.7134   21407958.7544
 -19310114.27944 -15046821.61444  21517137.8644   21517140.7174
 -19815491.16244 -15440626.92144  21485490.6314   21485492.9884
  -1033397.31944   -805244.03444  21625606.7434   21625609.3274
 -21133698.33644 -16467804.06644  20917541.3884   20917543.4204
 -19775597.373 4 -15409551.748 4  21040886.787    21040885.024
 96  7 11  0 27  0.0000000  0  8G 9G31G 3G 1G23G17G21G28
  -3090798.36644  -2408411.74844  23857891.1024   23857894.3774
  -3040362.23844  -2369112.15044  23408204.4094   23408210.1914
 -15017157.76844 -11701678.52444  21404777.5844   21404779.8834
 -19389669.29944 -15108812.48444  21501998.8934   21502002.0354
 -19772587.15944 -15407195.23444  21493655.2334   21493657.5754
   -975596.79944   -760204.69144  21636605.8634   21636608.2074
 -21151094.07044 -16481359.17144  20914230.8854   20914233.1894
 -19721335.356 4 -15367269.680 4  21051212.599    21051210.859
 96  7 11  0 27 30.0000000  0  8G 9G31G 3G 1G23G17G21G28
  -3111729.38544  -2424721.62644  23853908.6224   23853911.4934
  -3112810.22144  -2425565.07744  23394418.9564   23394420.5724
 -15033282.85844 -11714243.53144  21401708.9764   21401711.2824
 -19468841.97644 -15170505.42744  21486932.8334   21486935.7994
 -19729553.23944 -15373662.31644  21501844.2254   21501846.5924
   -917467.79744   -714909.37744  21647667.3754   21647670.5594
 -21168309.27444 -16494773.60544  20910954.7074   20910957.1114
 -19666550.305 4 -15324580.052 4  21061637.729    21061636.095
 96  7 11  0 28  0.0000000  0  8G 9G31G 3G 1G23G17G21G28
  -3132201.17844  -2440673.60344  23850012.7054   23850016.0574
  -3184851.27644  -2481700.95744  23380709.5924   23380711.8684
 -15048830.16044 -11726358.31644  21398750.5524   21398753.0804
 -19547614.35144 -15231886.45244  21471943.2894   21471945.9774
 -19686387.98144 -15340027.05944  21510058.5764   21510060.6904
   -858999.28544   -669349.51944  21658793.6254   21658796.2124
 -21185327.08844 -16508034.23444  20907716.4084   20907718.9644
 -19611241.408 4 -15281482.228 4  21072162.658    21072160.871
 96  7 11  0 28 30.0000000  0  8G 9G31G 3G 1G23G17G21G28
  -3152208.62244  -2456263.78744  23846205.6974   23846208.1884
  -3256473.04844  -2537510.05844  23367080.1544   23367082.5394
 -15063788.87144 -11738014.45244  21395904.0274   21395906.4244
 -19625994.97244 -15292962.21544  21457027.8424   21457030.6404
 -19643098.02544 -15306294.63644  21518296.4174   21518298.1834
   -800182.41144   -623518.21644  21669986.0284   21669989.1374
 -21202141.50644 -16521136.36944  20904516.9564   20904519.1024
 -19555411.614 4 -15237978.515 4  21082786.961    21082784.990
 96  7 11  0 29  0.0000000  0  8G 9G31G 3G 1G23G17G21G28
  -3171729.02644  -2471474.47844  23842490.3664   23842493.5214
  -3327637.20344  -2592962.63444  23353538.0114   23353542.1364
 -15078142.31544 -11749198.95844  21393172.6804   21393174.9234
 -19703984.96544 -15353733.59344  21442186.6024   21442189.7354
 -19599659.68744 -15272446.58544  21526562.2734   21526563.7384
   -741004.71544   -577405.75244  21681247.4574   21681250.5144
 -21218714.81444 -16534050.62544  20901363.1034   20901365.2744
 -19499052.128 4 -15194062.050 4  21093511.738    21093510.082
 96  7 11  0 29 30.0000000  0  8G 9G31G 3G 1G23G17G21G28
  -3190744.11044  -2486291.39044  23838872.0134   23838874.7794
  -3398332.35544  -2648049.71644  23340084.8394   23340087.3214
 -15091881.10444 -11759904.50544  21390558.0864   21390560.6104
 -19781562.45944 -15414183.54344  21427424.0684   21427427.1294
 -19556071.70344 -15238481.92944  21534856.7784   21534858.6844
   -681457.64744   -531005.46444  21692578.6894   21692581.6784
 -21235043.52244 -16546774.27444  20898255.7414   20898257.8524
 -19442165.016 4 -15149734.445 4  21104336.926    21104335.336
 96  7 11  0 30  0.0000000  0  8G 9G31G 3G 1G23G17G21G28
  -3209253.04944  -2500713.91444  23835349.6824   23835353.6134
  -3468571.75344  -2702781.71044  23326719.4764   23326721.8064
 -15104990.54544 -11770119.65544  21388063.5154   21388065.5714
 -19858723.25144 -15474308.79044  21412740.9604   21412744.0524
 -19512357.34344 -15204418.79444  21543175.6064   21543177.7854
   -621551.81044   -484325.61344  21703978.6244   21703981.2874
 -21251139.26544 -16559316.39644  20895192.7854   20895195.1794
 -19384763.202 4 -15105005.775 4  21115260.187    21115258.443
 96  7 11  0 30 30.0000000  0  8G 9G31G 3G 1G23G17G21G28
  -3227255.87144  -2514742.05744  23831924.1284   23831927.1744
  -3538362.27244  -2757163.95344  23313436.7384   23313438.4064
 -15117456.15844 -11779833.13144  21385691.3474   21385693.6954
 -19935480.56944 -15534119.64144  21398134.3764   21398137.4174
 -19468528.74644 -15170266.64544  21551515.9084   21551517.9094
   -561302.76544   -437378.32344  21715443.3424   21715446.1704
 -21267005.81244 -16571679.92844  20892173.1804   20892175.5844
 -19326854.063 4 -15059881.785 4  21126280.009    21126278.080
 96  7 11  0 31  0.0000000  0  8G 9G31G 3G 1G23G17G21G28
  -3244739.73544  -2528365.82644  23828597.0264   23828599.2124
  -3607700.40044  -2811193.62644  23300242.6414   23300245.7694
 -15129256.73944 -11789028.38644  21383446.0584   21383448.1954
 -20011803.12444 -15593591.71644  21383610.2524   21383613.3204
 -19424577.42644 -15136018.87244  21559879.2204   21559881.5324
   -500708.74044   -390162.22644  21726974.2534   21726977.2004
 -21282635.75344 -16583859.09444  20889199.0244   20889201.1694
 -19268425.340 4 -15014352.922 4  21137398.707    21137396.699
 96  7 11  0 31 30.0000000  0  8G 9G31G 3G 1G23G17G21G28
  -3261739.58044  -2541612.46144  23825362.2544   23825365.0454
  -3676610.77344  -2864889.99944  23287129.1134   23287132.9684
 -15140414.54344 -11797722.78244  21381322.6754   21381324.5694
 -20087701.36944 -15652733.15844  21369167.2664   21369170.4534
 -19380541.95344 -15101705.53044  21568258.7354   21568260.8364
   -439791.29744   -342694.11344  21738566.2134   21738569.3344
 -21298061.31544 -16595879.00044  20886263.8384   20886265.9394
 -19209499.112 4 -14968436.400 4  21148611.829    21148609.897
 96  7 11  0 32  0.0000000  0  8G 9G31G 3G 1G23G17G21G28
  -3278298.69744  -2554515.64844  23822211.0224   23822216.1084
  -3745102.92144  -2918260.49744  23274096.2824   23274098.8024
 -15150960.54644 -11805940.45144  21379315.5864   21379318.2374
 -20163210.76744 -15711571.60244  21354798.5194   21354801.5914
 -19336434.78044 -15067336.31244  21576652.1564   21576654.2294
   -378583.56944   -294999.80544  21750213.6674   21750216.7084
 -21313290.51744 -16607745.89744  20883366.0204   20883367.8264
 -19150092.289 4 -14922145.388 4  21159916.730    21159914.686
 96  7 11  0 32 30.0000000  0  8G 9G31G 3G 1G23G17G21G28
  -3294438.99744                  23819139.6194
  -3813186.88044  -2971312.90744  23261140.3674   23261143.6564
 -15160934.31144 -11813712.22144  21377418.0724   21377420.6804
 -20238339.14044 -15770113.14344  21340501.7954   21340504.9004
 -19292246.32944 -15032903.76344  21585061.2854   21585063.1884
   -317104.74044   -247094.24744  21761912.8644   21761915.6384
 -21328335.63744 -16619469.35344  20880502.9034   20880504.6054
 -19090209.977 4 -14875483.869 4  21171311.865    21171310.066
 96  7 11  0 33  0.0000000  0  8G 9G31G 3G 1G23G17G21G28
  -3310151.11644                  23816149.2034
  -3880841.96744  -3024031.17144  23248266.1234   23248269.2694
 -15170332.84944 -11821035.76344  21375629.3734   21375631.9014
 -20313063.22744 -15828339.66444  21326282.4184   21326285.4224
 -19247944.79644 -14998383.09244  21593491.5234   21593493.2844
   -255331.97844   -198959.64444  21773667.9974   21773670.1974
 -21343185.00444 -16631040.27444  20877677.0554   20877678.7204
 -19029833.713 4 -14828437.452 4  21182801.164    21182799.458
 96  7 11  0 33 30.0000000  0  8G 9G31G 3G 1G23G17G21G28
  -3325449.77544                  23813238.5994
  -3948078.22544  -3076423.05144  23235471.4274   23235473.1344
 -15179176.79244 -11827927.15244  21373946.2374   21373948.4564
 -20387415.57944 -15886276.52144  21312133.4074   21312136.4424
 -19203533.21444 -14963776.67044  21601942.5284   21601944.8594
   -193286.50044   -150612.53344  21785474.6574   21785477.5374
 -21357861.19344 -16642476.24644  20874884.2294   20874886.4244
 -18968983.316 4 -14781021.585 4  21194380.795    21194378.914
 96  7 11  0 34  0.0000000  0  8G 9G31G 3G 1G23G17G21G28
  -3340274.20544  -2602811.01344  23810417.4444   23810419.2844
  -4014849.12144  -3128452.31444  23222765.4154   23222767.5724
 -15187419.31044 -11834349.90644  21372377.7734   21372380.2754
 -20461347.31544 -15943885.62644  21298064.7514   21298067.2984
 -19158955.55544 -14929040.83744  21610425.5394   21610427.5924
   -130925.88444   -102019.87544  21797341.7224   21797344.8924
 -21372335.88844 -16653755.21944  20872129.7324   20872131.8274
 -18907618.020 4 -14733204.496 4  21206058.190    21206056.450
 96  7 11  0 34 30.0000000  0  8G 9G31G 3G 1G23G17G21G28
  -3354624.21144  -2613994.88944  23807687.0654   23807689.0924
  -4081170.28544  -3180131.12244  23210143.6674   23210146.5444
 -15195066.94744 -11840309.10844  21370922.3614   21370924.7384
 -20534873.47944 -16001178.70044  21284073.3004   21284076.3794
 -19114241.15844 -14894198.45244  21618934.2774   21618935.8514
    -68256.01944    -53186.23044  21809267.1284   21809270.0914
 -21386645.53344 -16664905.57544  20869406.7354   20869408.7534
 -18845765.606 4 -14685007.835 4  21217828.286    21217826.472
 96  7 11  0 35  0.0000000  0  8G 9G31G 3G 1G23G17G21G28
  -3368446.99044                  23805056.4294
  -4147002.43644  -3231428.89044  23197616.3144   23197619.7274
 -15202076.73844 -11845771.30044  21369588.4574   21369590.8234
 -20607971.31744 -16058138.01844  21270163.3784   21270166.0474
 -19069382.39844 -14859243.58144  21627470.7784   21627472.8464
     -5234.62644     -4078.67144  21821259.6154   21821262.7984
 -21400768.63744 -16675910.57644  20866719.2714   20866721.4664
 -18783408.584 4 -14636417.972 4  21229694.271    21229692.336
 96  7 11  0 35 30.0000000  0  8G 9G31G 3G 1G23G17G21G28
  -3381693.18444  -2635085.60944  23802535.2414
  -4212324.91444  -3282329.50344  23185186.5564   23185187.8374
 -15208420.79544 -11850714.73544  21368381.3854   21368383.6614
 -20680610.14244 -16114739.66444  21256340.7724   21256343.4154
 -19024361.75644 -14824162.56644  21636038.0964   21636040.1894
     58170.83444     45328.16544  21833325.2114   21833328.3824
 -21414683.99144 -16686753.69544  20864071.1494   20864073.2904
 -18720527.199 4 -14587419.519 4  21241660.341    21241658.143
 96  7 11  0 36  0.0000000  0  8G 9G31G 3G 1G23G17G21G28
  -3394382.98944  -2644973.76244  23800120.8114   23800124.8714
  -4277158.80144  -3332849.39344  23172849.7714   23172850.0404
 -15214137.88744 -11855169.62344  21367293.4634   21367295.4494
 -20752792.88444 -16170985.91844  21242604.8984   21242607.7204
 -18979208.68644 -14788978.36244  21644630.1714   21644632.2034
    121963.71644     95036.88544  21845465.0004   21845467.8094
 -21428391.07344 -16697434.52744  20861462.5644   20861464.5894
 -18657142.915 4 -14538029.195 4  21253722.046    21253719.980
 96  7 11  0 36 30.0000000  0  8G 9G31G 3G 1G23G17G21G28
  -3406595.17044  -2654489.77644  23797796.4184   23797798.2274
  -4341577.04444  -3383045.44644  23160591.3624   23160592.7264
 -15219299.38744 -11859191.58544  21366311.3454   21366313.3884
 -20824579.77244 -16226923.71544  21228943.7384   21228946.7694
 -18933995.35744 -14753747.20444  21653233.8684   21653236.1844
    186084.76644    145001.32444  21857666.5064   21857669.1444
 -21441929.17144 -16707983.68644  20858886.3894   20858888.4014
 -18593321.674 4 -14488298.382 4  21265866.672    21265864.848
 96  7 11  0 37  0.0000000  0  8G 9G31G 3G 1G23G17G21G28
  -3418323.26544  -2663628.52844  23795565.8074   23795568.3424
  -4405577.28844  -3432915.74544  23148412.7364   23148413.7724
 -15223891.41444 -11862769.79744  21365437.5144   21365439.6234
 -20895940.13244 -16282529.15044  21215364.1724   21215367.2734
 -18888696.78944 -14718449.62444  21661853.4694   21661855.7464
    250539.42344    195225.73144  21869932.0354   21869934.9444
 -21455266.75544 -16718376.59344  20856348.5404   20856350.5454
 -18529044.434 4 -14438212.242 4  21278098.176    21278096.530
 96  7 11  0 37 30.0000000  0  8G 9G31G 3G 1G23G17G21G28
  -3429623.71844  -2672434.08544  23793414.1084   23793416.6024
  -4469194.95644  -3482487.91544  23136306.3674   23136308.8324
 -15227951.57844 -11865933.57744  21364664.5874   21364666.8854
 -20966897.82444 -16337820.82544  21201861.4354   21201864.4224
 -18843331.42844 -14683099.99944  21670486.6864   21670488.7864
    315282.89044    245675.16344  21882252.4294   21882254.8444
 -21468413.42444 -16728620.73544  20853846.8404   20853848.6904
 -18464339.562 4 -14387792.885 4  21290411.146    21290409.609
 96  7 11  0 38  0.0000000  0  8G 9G31G 3G 1G23G17G21G28
  -3440500.22844  -2680909.23644  23791345.1514   23791349.5434
  -4532390.95644  -3531731.52244  23124280.3634   23124280.8454
 -15231451.82444 -11868661.05144  21363998.7934   21364001.0684
 -21037437.08144 -16392786.44644  21188438.4894   21188441.3424
 -18797878.20244 -14647681.89944  21679136.7364   21679138.8514
    380312.54444    296347.54344  21894627.0374   21894630.0304
 -21481330.96744 -16738686.33844  20851388.7064   20851390.7964
 -18399182.662 4 -14337021.296 4  21302810.291    21302808.479
 96  7 11  0 38 30.0000000  0  8G 9G31G 3G 1G23G17G21G28
  -3450932.73744  -2689038.42344  23789359.5534   23789360.8074
  -4595142.98944  -3580629.22144  23112339.2264   23112340.7344
 -15234356.57844 -11870924.50544  21363445.7394   21363448.2974
 -21107549.17044 -16447419.21344  21175096.4304   21175099.1784
 -18752317.26944 -14612179.86944  21687806.5114   21687808.6184
    445609.98844    347228.66044  21907052.9124   21907055.6014
 -21494023.20044 -16748576.37744  20848973.3374   20848975.4434
 -18333562.003 4 -14285888.341 4  21315297.646    21315295.701
 96  7 11  0 39  0.0000000  0  8G 9G31G 3G 1G23G17G21G28
  -3460883.56044  -2696792.27844  23787466.0744   23787468.8674
  -4657418.86644  -3629155.85244  23100487.9324   23100491.1544
 -15236633.62744 -11872698.83944  21363012.5434   21363015.3024
 -21177219.21444 -16501707.52644  21161838.7694   21161841.4984
 -18706629.48244 -14576578.99844  21696500.1024   21696502.1964
    511196.09544    398334.69544  21919533.1764   21919536.3504
 -21506477.14244 -16758280.74144  20846603.1574   20846605.3424
 -18267458.844 4 -14234379.408 4  21327876.531    21327874.734
 96  7 11  0 39 30.0000000  0  8G 9G31G 3G 1G23G17G21G28
  -3470316.95144  -2704142.96044  23785671.1474   23785672.3584
  -4719173.37144  -3677276.21344  23088736.0734   23088739.2404
 -15238258.51844 -11873965.00144  21362703.4134   21362705.9104
 -21246437.72144 -16555643.98844  21148666.8104   21148669.6464
 -18660802.42744 -14540869.60944  21705220.8684   21705223.2754
    577109.60144    449695.84644  21932076.2464   21932079.2954
 -21518667.52644 -16767779.73644  20844283.4454   20844285.5904
 -18200851.859 4 -14182477.885 4  21340551.503    21340549.433
 96  7 11  0 40  0.0000000  0  8G 9G31G 3G 1G23G17G21G28
  -3479194.05944  -2711060.16644  23783981.7314   23783984.5524
  -4780383.02444  -3724972.01244  23077088.0164   23077090.1924
 -15239191.35144 -11874691.90044  21362525.9724   21362528.6104
 -21315193.32744 -16609219.73644  21135582.9884   21135585.6634
 -18614825.52444 -14505043.45944  21713969.8914   21713972.1094
    643385.65544    501339.51944  21944688.5284   21944691.6424
 -21530587.11844 -16777067.72244  20842015.2854   20842017.3644
 -18133725.132 4 -14130171.372 4  21353325.400    21353323.343
 96  7 11  0 40 30.0000000  0  8G 9G31G 3G 1G23G17G21G28
  -3487497.92544  -2717530.70544  23782401.2014   23782403.6184
  -4841057.78244  -3772251.02644  23065542.8824   23065544.9334
 -15239428.05444 -11874876.34944  21362481.0234   21362483.2634
 -21383484.38444 -16662433.49644  21122587.7874   21122590.4544
 -18568710.45844 -14469109.64844  21722745.4044   21722747.2774
    710052.29144    553287.52044  21957374.5234   21957377.3484
 -21542249.60744 -16786155.36644  20839796.1434   20839797.9774
 -18066088.110 4 -14077467.222 4  21366196.342    21366194.025
 96  7 11  0 41  0.0000000  0  8G 9G31G 3G 1G23G17G21G28
  -3495245.13444  -2723567.44944  23780926.4644   23780930.1204
  -4901212.73144  -3819125.02144  23054095.1924   23054095.8404
 -15238989.17044 -11874534.37244  21362564.5354   21362566.8484
 -21451333.22644 -16715302.68044  21109676.5774   21109679.1324
 -18522485.03444 -14433089.84144  21731541.9314   21731543.9874
    777120.01344    605548.07044  21970137.3744   21970140.4694
 -21553674.27544 -16795057.69344  20837621.9344   20837623.7724
 -17997959.195 4 -14024379.781 4  21379160.783    21379158.476
 96  7 11  0 41 30.0000000  0  8G 9G31G 3G 1G23G17G21G28
  -3502475.47844  -2729201.46144  23779550.7774   23779555.1854
  -4960882.24844  -3865620.73344  23042740.8614   23042743.2414
 -15237914.97244 -11873697.34244  21362768.7514   21362771.3554
 -21518772.85544 -16767853.00244  21096843.2004   21096845.6424
 -18476173.03644 -14397002.57144  21740354.8254   21740356.8974
    844545.22344    658087.17044  21982967.4724   21982970.8604
 -21564915.14044 -16803816.79744  20835483.0104   20835484.9564
 -17929373.320 4 -13970936.268 4  21392212.273    21392210.134
 96  7 11  0 42  0.0000000  0  8G 9G31G 3G 1G23G17G21G28
  -3509216.75544  -2734454.36244  23778268.4504   23778269.9114
  -5020088.11644  -3911755.18544  23031474.8644   23031477.5204
 -15236224.00444 -11872379.72144  21363090.8614   21363093.2554
 -21585798.60544 -16820080.82244  21084088.5504   21084090.9544
 -18429780.49244 -14360852.54844  21749182.7854   21749184.8254
    912307.32644    710888.77844  21995862.8974   21995865.5054
 -21576008.82544 -16812461.22044  20833371.8334   20833373.9534
 -17860349.033 4 -13917151.136 4  21405347.207    21405345.158
 96  7 11  0 42 30.0000000  0  8G 9G31G 3G 1G23G17G21G28
  -3515475.51844  -2739331.31744  23777077.5724   23777079.3084
  -5078822.76744  -3957522.41544  23020297.9834   23020301.3694
 -15233946.11044 -11870604.74844  21363524.3834   21363526.5604
 -21652397.94244 -16871976.36344  21071414.9244   21071417.3534
 -18383303.53044 -14324636.74044  21758027.2474   21758029.2444
    980394.85644    763943.98444  22008818.8644   22008821.7684
 -21586966.27944 -16820999.49044  20831286.6654   20831288.9734
 -17790887.185 4 -13863025.050 4  21418565.225    21418563.469
 96  7 11  0 43  0.0000000  0  8G 9G31G 3G 1G23G17G21G28
  -3521245.90544  -2743827.72744  23775978.9324   23775981.9944
  -5137074.30744  -4002913.21444  23009212.9864   23009214.3534
 -15231090.97244 -11868379.97144  21364067.5394   21364069.4484
 -21718558.75344 -16923530.20544  21058825.1784   21058827.7284
 -18336710.95144 -14288330.84244  21766893.5934   21766895.5334
   1048792.26744    817240.64944  22021834.6374   22021837.7944
 -21597784.02644 -16829428.89644  20829228.1304   20829230.3614
 -17720979.623 4 -13808551.648 4  21431867.985    21431866.535
 96  7 11  0 43 30.0000000  0  8G 9G31G 3G 1G23G17G21G28
  -3526541.45544  -2747954.12344  23774971.1034   23774975.2554
  -5194856.78744  -4047938.51144  22998217.1144   22998218.5694
 -15227682.11344 -11865723.72744  21364716.0214   21364718.7164
 -21784279.24244 -16974740.93644  21046318.8364   21046321.5164
 -18290001.85544 -14251934.15344  21775782.1824   21775784.1274
   1117474.51944    870759.25844  22034904.7124   22034907.7094
 -21608460.48044 -16837748.19644  20827196.4564   20827198.5634
 -17650644.365 4 -13753744.974 4  21445252.151    21445250.762
 96  7 11  0 44  0.0000000  0  8G 9G31G 3G 1G23G17G21G28
  -3531362.95544  -2751711.11644  23774054.1784   23774056.8904
  -5252163.57644  -4092593.14044  22987311.7904   22987314.0404
 -15223731.94044 -11862645.68444  21365468.0174   21365470.2294
 -21849565.60144 -17025613.38444  21033895.0564   21033897.7814
 -18243193.57044 -14215460.16944  21784689.5824   21784691.7384
   1186439.14444    924497.88844  22048028.1184   22048031.2924
 -21618974.78044 -16845941.14744  20825195.7084   20825197.6924
 -17579892.948 4 -13698614.020 4  21458715.933    21458714.336
 96  7 11  0 44 30.0000000  0  8G 9G31G 3G 1G23G17G21G28
  -3535680.28944  -2755075.23944  23773232.4674   23773236.3834
  -5308984.49544  -4136869.16344  22976499.3734   22976501.4784
 -15219245.40444 -11859149.68944  21366321.9714   21366324.2414
 -21914418.91444 -17076148.39544  21021553.9354   21021556.7854
 -18196287.43444 -14178909.94744  21793615.2754   21793617.2234
   1255685.01544    978455.69344  22061205.0374   22061208.1904
 -21629298.72344 -16853985.76844  20823231.1304   20823232.8334
 -17508722.088 4 -13643156.230 4  21472259.676    21472258.102
 96  7 11  0 45  0.0000000  0  8G 9G31G 3G 1G23G17G21G28
  -3539469.57144  -2758027.90244  23772511.4354   23772513.6014
  -5365312.26244  -4180760.91544  22965780.8124   22965782.3044
 -15214195.45644 -11855214.67144  21367282.8054   21367284.8754
 -21978827.16944 -17126336.60944  21009297.2534   21009300.1344
 -18149285.85544 -14142285.34344  21802559.4544   21802561.3534
   1325225.54744   1032643.09544  22074437.9844   22074441.1924
 -21639406.23244 -16861861.73644  20821307.6244   20821309.4894
 -17437127.384 4 -13587368.170 4  21485883.745    21485881.877
 96  7 11  0 45 30.0000000  0  8G 9G31G 3G 1G23G17G21G28
  -3542702.77644  -2760547.27544  23771895.8274   23771898.7164
  -5421123.90544  -4224250.49744  22955159.6934   22955162.8884
 -15208545.16144 -11850811.85444  21368358.1154   21368360.7544
 -22042772.52144 -17176164.11644  20997128.9164   20997131.9314
 -18102193.89844 -14105590.31944  21811520.5304   21811523.0284
   1395099.41944   1087090.24744  22087734.7424   22087738.1634
 -21649267.98544 -16869546.21344  20819431.2564   20819433.0294
 -17365089.610 4 -13531234.866 4  21499592.383    21499589.901
 96  7 11  0 46  0.0000000  0  8G 9G31G 3G 1G23G17G21G28
  -3545412.75644  -2762658.89644  23771380.4024   23771383.7664
  -5476453.25644  -4267364.23844  22944631.1524   22944634.2134
 -15202314.61744 -11845956.89744  21369543.0624   21369545.9364
 -22106289.64744 -17225657.93944  20985042.1414   20985044.9574
 -18055057.82844 -14068860.92244  21820490.1844   21820492.7974
   1465269.76544   1141768.41944  22101088.2674   22101090.4324
 -21658928.14844 -16877073.60344  20817592.8114   20817594.9884
 -17292642.063 4 -13474782.262 4  21513378.706    21513375.934
 96  7 11  0 46 30.0000000  0  8G 9G31G 3G 1G23G17G21G28
  -3547620.06044  -2764378.88344  23770960.1194   23770963.2104
  -5531312.65344  -4310111.80644  22934191.5104   22934194.7744
 -15195490.75044 -11840639.60744  21370841.7104   21370844.4094
 -22169375.87844 -17274816.00044  20973037.0584   20973039.9014
 -18007866.17044 -14032088.21544  21829470.3814   21829472.7964
   1535733.75944   1196675.41144  22114496.3574   22114499.8364
 -21668400.93944 -16884454.99144  20815790.3384   20815792.5584
 -17219786.765 4 -13418011.926 4  21527242.429    21527239.921
 96  7 11  0 47  0.0000000  0  8G 9G31G 3G 1G23G17G21G28
  -3549364.40244  -2765738.09544  23770628.1424   23770631.2824
  -5585715.52744  -4352503.63544  22923838.8024   22923841.6314
 -15188057.60344 -11834847.55344  21372256.4644   21372259.2884
 -22232042.56644 -17323647.14944  20961111.6614   20961114.7274
 -17960616.28544 -13995270.12744  21838462.0274   21838464.0934
   1606483.51244   1251805.05944  22127959.8834   22127963.0554
 -21677703.35244 -16891703.62044  20814020.0184   20814022.3174
 -17146533.780 4 -13360931.703 4  21541181.861    21541179.604
 96  7 11  0 47 30.0000000  0  8G 9G31G 3G 1G23G17G21G28
  -3550642.39244  -2766733.92344  23770385.0094   23770388.3704
  -5639639.83644  -4394522.57044  22913577.8334   22913580.1554
 -15179995.20144 -11828565.17244  21373790.1184   21373792.7964
 -22294264.84244 -17372131.99944  20949271.3514   20949274.4104
 -17913264.59244 -13958372.71144  21847472.5574   21847474.6214
   1677537.56244   1307171.82444  22141481.2364   22141484.7244
 -21686825.53944 -16898811.81344  20812284.2304   20812286.4474
 -17072863.478 4 -13303526.298 4  21555200.710    21555198.781
 96  7 11  0 48  0.0000000  0  8G 9G31G 3G 1G23G17G21G28
  -3551462.90644  -2767373.26144  23770228.7214   23770232.2354
  -5693080.23344  -4436164.45144  22903408.0784   22903410.4734
 -15171308.00944 -11821795.94544  21375444.1594   21375446.1504
 -22356026.30544 -17420257.77344  20937518.7054   20937521.5594
 -17865787.70944 -13921377.74144  21856507.4404   21856509.6204
   1748891.73144   1362772.44844  22155059.3894   22155062.4144
 -21695762.53444 -16905775.70044  20810583.4774   20810585.5164
 -16998777.600 4 -13245797.065 4  21569298.885    21569296.949
 96  7 11  0 48 30.0000000  0  8G 9G31G 3G 1G23G17G21G28
  -3551807.48544  -2767641.73644  23770162.7364   23770165.5974
  -5746023.73044  -4477419.10644  22893333.4994   22893335.5944
 -15161998.76344 -11814541.99844  21377215.6844   21377217.9844
 -22417326.03944 -17468023.76144  20925853.7194   20925856.3884
 -17818180.10844 -13884280.91844  21865566.6994   21865569.4464
   1820568.97344   1418624.83244  22168699.1534   22168702.2624
 -21704500.56044 -16912584.54544  20808920.6944   20808922.5704
 -16924277.348 4 -13187744.947 4  21583475.921    21583473.989
 96  7 11  0 49  0.0000000  0  8G 9G31G 3G 1G23G17G21G28
  -3551634.38744  -2767506.85544  23770195.6494   23770200.0814
  -5798464.04644  -4518281.67444  22883354.0304   22883356.8964
 -15152076.92144 -11806810.71244  21379103.3664   21379106.1084
 -22478141.79444 -17515412.62544  20914280.8974   20914283.6464
 -17770451.39744 -13847089.72444  21874649.3784   21874651.5564
   1892586.73944   1474742.54144  22182403.6004   22182406.7664
 -21713030.69544 -16919231.39944  20807297.2854   20807299.1494
 -16849359.342 4 -13129367.304 4  21597732.269    21597730.576
 96  7 11  0 49 30.0000000  0  8G 9G31G 3G 1G23G17G21G28
  -3550891.02144  -2766927.55644  23770337.0744   23770339.8574
  -5850363.61744  -4558722.87844  22873478.1504   22873480.3184
 -15141535.02444 -11798596.26344  21381109.1364   21381112.2154
 -22538435.61344 -17562394.78744  20902807.5874   20902809.7784
 -17722582.66944 -13809789.42344  21883758.3774   21883760.1534
   1964984.06144   1531156.01244  22196180.8034   22196183.9494
 -21721325.65944 -16925694.99844  20805718.7944   20805720.7284
 -16773997.783 4 -13070644.031 4  21612073.239    21612071.518
 96  7 11  0 50  0.0000000  0  8G 9G31G 3G 1G23G17G21G28
  -3549557.95744  -2765888.81144  23770591.3044   23770591.7904
  -5901697.69044  -4598723.43644  22863709.3954   22863712.2034
 -15130364.34744 -11789891.85244  21383235.1614   21383238.0754
 -22598204.78244 -17608968.13444  20891433.5694   20891435.9204
 -17674583.26344 -13772387.29644  21892892.3494   21892894.4784
   2037780.54344   1587880.51544  22210033.4974   22210036.3844
 -21729364.31744 -16931958.88144  20804189.2454   20804191.1264
 -16698178.560 4 -13011564.145 4  21626501.316    21626499.189
 96  7 11  0 50 30.0000000  0  8G 9G31G 3G 1G23G17G21G28
  -3547687.42744  -2764431.21544  23770947.1024   23770950.2864
  -5952525.16444  -4638329.25944  22854037.5034   22854038.9654
 -15118615.71144 -11780737.09144  21385471.0294   21385473.4854
 -22657500.77144 -17655172.76744  20880149.8534   20880152.2384
 -17626520.29444 -13734935.64044  21902038.3954   21902040.2914
   2110923.14744   1644874.72844  22223951.7264   22223954.9224
 -21737209.86244 -16938072.28844  20802696.2214   20802698.4364
 -16621953.206 4 -12952167.792 4  21641006.482    21641004.400
 96  7 11  0 51  0.0000000  0  8G 9G31G 3G 1G23G17G21G28
  -3545291.38544  -2762564.14244  23771403.1384   23771406.1534
  -6002848.95444  -4677542.59244  22844460.5384   22844462.6174
 -15106286.29944 -11771129.77244  21387817.1994   21387819.7514
 -22716321.03044 -17701006.70344  20868956.3854   20868958.8434
 -17578392.86644 -13697433.75344  21911196.7704   21911199.1054
   2184388.59044   1702120.50144  22237931.6524   22237934.4494
 -21744882.64544 -16944051.07244  20801236.0934   20801238.0884
 -16545319.133 4 -12892452.960 4  21655589.458    21655587.095
 96  7 11  0 51 30.0000000  0  8G 9G31G 3G 1G23G17G21G28
  -3542329.26744  -2760255.95144  23771966.5334   23771969.7034
  -6052599.95844  -4716309.59844  22834993.3434   22834996.3774
 -15093300.89244 -11761011.29244  21390288.3094   21390290.4304
 -22774627.39544 -17746440.20744  20857861.4994   20857863.8424
 -17530127.97344 -13659824.75444  21920381.2024   21920383.2924
   2258223.92844   1759654.49544  22251982.3214   22251985.4004
 -21752327.95244 -16949852.60144  20799819.4714   20799821.6044
 -16468219.885 4 -12832375.659 4  21670260.746    21670258.833
 96  7 11  0 52  0.0000000  0  8G 9G31G 3G 1G23G17G21G28
  -3538858.79544  -2757551.63944  23772627.3454   23772629.6734
  -6101844.82044  -4754682.19744  22825622.3484   22825625.2434
 -15079710.06244 -11750421.05844  21392874.4964   21392876.7994
 -22832487.97544 -17791526.34644  20846850.6904   20846853.0874
 -17481781.91144 -13622152.51044  21929581.4124   21929583.2974
   2332354.65744   1817418.68044  22266089.0524   22266092.1544
 -21759604.43744 -16955522.58244  20798434.7544   20798436.7164
 -16390718.334 4 -12771984.875 4  21685008.706    21685006.913
 96  7 11  0 52 30.0000000  0  8G 9G31G 3G 1G23G17G21G28
  -3534892.73844  -2754461.17544  23773382.0954   23773385.2874
  -6150615.89544  -4792685.62944  22816341.7234   22816344.7614
 -15065540.75044 -11739380.05344  21395571.1294   21395573.3434
 -22889920.14344 -17836278.65844  20835921.6774   20835923.9254
 -17433369.06144 -13584428.22144  21938793.9224   21938795.8344
   2406738.45344   1875380.04944  22280243.6694   22280246.2384
 -21766742.68344 -16961084.84744  20797076.3544   20797078.3494
 -16312846.274 4 -12711305.380 4  21699827.470    21699825.514
 96  7 11  0 53  0.0000000  0  8G 9G31G 3G 1G23G17G21G28
  -3530395.08244  -2750956.54344  23774238.4664   23774239.5474
  -6198863.92244  -4830281.50444  22807160.3634   22807162.3824
 -15050777.18444 -11727875.99344  21398380.1664   21398382.5284
 -22946904.14344 -17880681.74244  20825077.8744   20825080.5214
 -17384862.52644 -13546630.92844  21948024.3454   21948026.7144
   2481397.71744   1933556.05444  22294450.5534   22294453.7214
 -21773703.24244 -16966508.65544  20795751.7054   20795753.8564
 -16234586.134 4 -12650323.482 4  21714719.894    21714717.803
 96  7 11  0 53 30.0000000  0  8G 9G31G 3G 1G23G17G21G28
  -3525352.96244  -2747027.60244  23775197.5634   23775199.4704
  -6246576.73244  -4867460.31444  22798081.1034   22798083.0904
 -15035424.00644 -11715912.49644  21401301.8134   21401304.1834
 -23003423.61744 -17924722.85744  20814322.5504   20814325.0604
 -17336250.73444 -13508751.62044  21957274.7414   21957276.5984
   2556350.69644   1991960.94744  22308713.9044   22308716.5194
 -21780446.50144 -16971763.13544  20794468.6034   20794470.7174
 -16155939.922 4 -12589040.753 4  21729686.105    21729683.869
 96  7 11  0 54  0.0000000  0  8G 9G31G 3G 1G23G17G21G28
  -3519783.10644  -2742687.44744  23776257.0504   23776260.0884
  -6293762.70644  -4904228.58244  22789101.9894   22789103.5724
 -15019505.63144 -11703508.58944  21404331.0474   21404333.7794
 -23059473.54644 -17968398.09844  20803656.6734   20803659.3224
 -17287566.11144 -13470815.55344  21966539.1044   21966540.9134
   2631586.79844   2050586.46144  22323031.2464   22323034.5244
 -21786969.14644 -16976845.70844  20793227.2734   20793229.1614
 -16076922.060 4 -12527468.424 4  21744722.886    21744720.722
 96  7 11  0 54 30.0000000  0  8G 9G31G 3G 1G23G17G21G28
  -3513722.44344  -2737964.83344  23777410.8844   23777412.9404
  -6340426.24944  -4940589.78944  22780222.1104   22780223.5684
 -15003042.92244 -11690680.52244  21407463.5754   21407465.8894
 -23115063.64844 -18011715.02744  20793078.1924   20793080.7204
 -17238828.67644 -13432838.34744  21975813.5884   21975815.8634
   2707099.54644   2109427.53344  22337400.9434   22337403.2424
 -21793285.28444 -16981767.35844  20792025.4764   20792027.3774
 -15997557.394 4 -12465625.861 4  21759825.733    21759823.377
 96  7 11  0 55  0.0000000  0  8G 9G31G 3G 1G23G17G21G28
  -3507173.56544  -2732861.78744  23778656.9514   23778659.4584
  -6386554.96544  -4976534.24344  22771444.2554   22771445.8704
 -14986014.28544 -11677411.47444  21410703.9684   21410706.9894
 -23170184.61644 -18054666.39944  20782589.2104   20782591.5234
 -17190026.70244 -13394810.84444  21985100.5844   21985103.3274
   2782909.78244   2168500.41044  22351826.7544   22351829.9994
 -21799390.16344 -16986524.39244  20790863.7684   20790865.6194
 -15917840.375 4 -12403508.734 4  21774995.227    21774993.019
 96  7 11  0 55 30.0000000  0  8G 9G31G 3G 1G23G17G21G28
  -3500074.54344  -2727330.06244  23780007.4044   23780009.6934
  -6432094.57344  -5012019.65644  22762778.7394   22762781.4104
 -14968339.29344 -11663638.77244  21414067.9214   21414070.6204
 -23224769.88944 -18097200.34744  20772202.2164   20772204.4004
 -17141085.32744 -13356674.72044  21994413.8344   21994416.1974
   2859083.47344   2227856.49944  22366322.2904   22366325.5984
 -21805240.15844 -16991082.82144  20789750.7114   20789752.5754
 -15837698.781 4 -12341060.769 4  21790245.509    21790243.196
 96  7 11  0 56  0.0000000  0  8G 9G31G 3G 1G23G17G21G28
  -3492444.52344  -2721384.55944  23781459.2034   23781462.4284
  -6477060.37344  -5047057.93744  22754221.8824   22754224.8044
 -14950023.67244 -11649366.87944  21417553.2894   21417555.4854
 -23278837.36644 -18139330.81544  20761913.3114   20761915.4984
 -17092022.98944 -13318444.33744  22003750.0204   22003751.4694
   2935604.47844   2287483.22544  22380883.8644   22380886.2634
 -21810885.86444 -16995482.06344  20788676.2104   20788678.3634
 -15757144.592 4 -12278291.300 4  21805574.376    21805571.873
 96  7 11  0 56 30.0000000  0  8G 9G31G 3G 1G23G17G21G28
  -3484304.13544  -2715041.39644  23783008.6104   23783009.8044
  -6521497.32044  -5081684.12244  22745765.4144   22745767.0514
 -14931108.33444 -11634627.67244  21421152.7524   21421155.1584
 -23332432.44844 -18181093.18044  20751714.4794   20751716.6974
 -17042858.02044 -13280133.97344  22013105.6824   22013107.7864
   3012434.33144   2347350.61344  22395503.9104   22395507.4964
 -21816394.42644 -16999774.44344  20787627.6724   20787629.9174
 -15676220.495 4 -12215233.593 4  21820973.704    21820971.308
 96  7 11  0 57  0.0000000  0  8G 9G31G 3G 1G23G17G21G28
  -3475655.05344  -2708301.83544  23784654.6874   23784655.4924
  -6565441.96844  -5115926.68544  22737403.2874   22737405.9764
 -14911623.84844 -11619444.97144  21424860.7244   21424862.8764
 -23385587.80844 -18222512.90844  20741598.9724   20741601.3904
 -16993613.58844 -13241761.69744  22022476.4774   22022478.3944
   3089537.56244   2407431.02244  22410176.3304   22410180.1004
 -21821793.96444 -17003981.87444  20786600.3524   20786602.8304
 -15594947.371 4 -12151903.917 4  21836439.405    21836437.291
 96  7 11  0 57 30.0000000  0  8G 9G31G 3G 1G23G17G21G28
  -3466516.39144  -2701180.78544  23786393.6234   23786396.6534
  -6608930.50344  -5149813.87144  22729128.2594   22729129.9454
 -14891622.14844 -11603859.24644  21428666.8994   21428669.4414
 -23438335.27244 -18263614.79544  20731561.7314   20731564.2784
 -16944317.48844 -13203349.15844  22031857.4114   22031860.2404
   3166892.53644   2467707.58344  22424896.6404   22424899.8474
 -21827102.21344 -17008118.17244  20785590.4274   20785592.5674
 -15513354.696 4 -12088325.245 4  21851966.032    21851964.041
 96  7 11  0 58  0.0000000  0  8G 9G31G 3G 1G23G17G21G28
  -3456839.57244  -2693640.41344  23788235.1724   23788238.5124
  -6651919.89244  -5183312.09144  22720947.7464   22720949.1234
 -14871063.12844 -11587839.24644  21432578.8464   21432581.9084
 -23490627.56944 -18304362.00844  20721610.8664   20721613.3814
 -16894925.97444 -13164862.27544  22041256.5984   22041258.6014
   3244553.00944   2528222.21044  22439674.8964   22439676.8954
 -21832254.87544 -17012133.23244  20784609.7344   20784612.0684
 -15431403.901 4 -12024467.518 4  21867560.839    21867558.916
 96  7 11  0 58 30.0000000  0  8G 9G31G 3G 1G23G17G21G28
  -3446617.69144  -2685675.28844  23790180.0144   23790183.2394
  -6694401.57644  -5216414.69644  22712862.9234   22712865.1844
 -14849940.20844 -11571379.84244  21436598.6044   21436601.2514
 -23542461.79044 -18344752.28044  20711747.1504   20711749.5134
 -16845440.97344 -13126302.53844  22050673.0914   22050675.1384
   3322519.52644   2588975.29644  22454511.2504   22454514.5024
 -21837228.15544 -17016008.50644  20783663.3524   20783665.6194
 -15349096.592 4 -11960331.993 4  21883223.596    21883221.729
 96  7 11  0 59  0.0000000  0  8G 9G31G 3G 1G23G17G21G28
  -3435883.50444  -2677310.93244  23792222.2174   23792225.5604
  -6736386.86544  -5249130.51144  22704873.0144   22704876.0164
 -14828266.23344 -11554491.05444  21440723.2124   21440725.4514
 -23593841.73844 -18384788.57144  20701969.8094   20701972.1204
 -16795889.61344 -13087691.10444  22060102.4154   22060104.4784
   3400778.73244   2649956.44944  22469403.9234   22469406.8424
 -21842015.70944 -17019739.06144  20782752.2314   20782754.4624
 -15266451.088 4 -11895932.941 4  21898950.519    21898948.724
 96  7 11  0 59 30.0000000  0  8G 9G31G 3G 1G23G17G21G28
  -3424628.55744  -2668540.81844  23794364.8894   23794367.6374
  -6777834.70544  -5281427.52144  22696986.2404   22696988.1664
 -14806010.38244 -11537148.84744  21444958.0734   21444960.8514
 -23644719.71844 -18424433.71944  20692288.1694   20692290.8774
 -16746254.62244 -13049014.49944  22069547.4544   22069549.8364
   3479366.66144   2711193.75044  22484358.2004   22484361.3304
 -21846593.59144 -17023306.23444  20781881.2324   20781883.1764
 -15183448.891 4 -11831255.947 4  21914745.412    21914743.239
 96  7 11  1  0  0.0000000  0  8G 9G31G 3G 1G23G17G21G28
  -3412859.71244  -2659370.31144  23796604.6294   23796606.9634
  -6818734.60744  -5313297.56144  22689202.8034   22689205.9974
 -14783162.35444 -11519345.20944  21449306.0604   21449308.6304
 -23695088.89944 -18463682.40144  20682703.1664   20682705.7214
 -16696548.77944 -13010282.69244  22079006.2494   22079008.1154
   3558263.68744   2772671.91344  22499372.2814   22499375.5094
 -21850968.82744 -17026715.50044  20781048.7484   20781050.5124
 -15100099.592 4 -11766308.482 4  21930606.262    21930603.674
 96  7 11  1  0 30.0000000  0  8G 9G31G 3G 1G23G17G21G28
  -3400592.50944  -2649811.47244  23798938.6744   23798940.4484
  -6859099.93744  -5344751.05844  22681521.9784   22681525.1304
 -14759740.07444 -11501094.10144  21453762.9714   21453765.6044
 -23744966.01544 -18502547.65844  20673211.7164   20673214.0074
 -16646779.47044 -12971501.42444  22088476.6814   22088479.0214
   3637444.04144   2834370.84344  22514440.2434   22514442.9524
 -21855154.61944 -17029977.14744  20780252.1024   20780253.9114
 -15016422.243 4 -11701105.404 4  21946529.524    21946526.595
 96  7 11  1  1  0.0000000  0  8G 9G31G 3G 1G23G17G21G28
  -3387809.05544  -2639850.30744  23801370.3714   23801372.7854
  -6898910.86344  -5375772.55444  22673946.5484   22673949.0384
 -14735730.53444 -11482385.38444  21458332.0774   21458334.9424
 -23794338.19344 -18541019.45444  20663816.5154   20663818.8614
 -16596913.12544 -12932644.54444  22097966.4644   22097968.5954
   3716941.63344   2896316.98444  22529567.2124   22529570.8364
 -21859127.81944 -17033073.14044  20779496.0954   20779497.7704
 -14932397.146 4 -11635631.349 4  21962518.981    21962516.390
 96  7 11  1  1 30.0000000  0  8G 9G31G 3G 1G23G17G21G28
  -3374492.05744  -2629473.39144  23803904.5064   23803908.0404
  -6938166.79844  -5406361.60344  22666476.2754   22666478.3524
 -14711133.05444 -11463218.53144  21463012.5744   21463015.4474
 -23843218.57744 -18579108.03444  20654514.9014   20654517.2894
 -16546947.46144 -12893710.26944  22107474.9984   22107477.2454
   3796757.02244   2958510.74644  22544755.4254   22544758.5274
 -21862895.22544 -17036008.76944  20778779.1924   20778781.1014
 -14848022.934 4 -11569885.251 4  21978574.810    21978572.872
 96  7 11  1  2  0.0000000  0  8G 9G31G 3G 1G23G17G21G28
  -3360608.87644  -2618655.32844  23806547.5454   23806551.6634
  -6976851.21744  -5436505.31044  22659114.5054   22659117.0264
 -14685915.04844 -11443568.15144  21467811.3484   21467814.0884
 -23891598.92544 -18616806.97844  20645308.3194   20645311.0564
 -16496849.79344 -12854673.13144  22117007.6244   22117010.1324
   3876900.39444   3020960.08744  22560007.1984   22560010.2434
 -21866424.55144 -17038758.88744  20778107.3414   20778109.4484
 -14763274.324 4 -11503847.405 4  21994702.096    21994700.189
 96  7 11  1  2 30.0000000  0  8G 9G31G 3G 1G23G17G21G28
  -3346175.16544  -2607408.26944  23809293.2604   23809296.1644
  -7014980.89244  -5466216.72944  22651858.5814   22651861.5644
 -14660097.10344 -11423450.29144  21472724.7584   21472727.2604
 -23939497.42844 -18654130.45944  20636193.8134   20636195.9374
 -16446635.66944 -12815545.25444  22126563.0754   22126565.9564
   3957366.39244   3083660.82044  22575318.5344   22575321.8684
 -21869733.28944 -17041337.12144  20777477.6214   20777479.8984
 -14678162.388 4 -11437526.452 4  22010898.346    22010896.506
 96  7 11  1  3  0.0000000  0  8G 9G31G 3G 1G23G17G21G28
  -3331209.39344  -2595746.62044  23812141.7634   23812142.8514
  -7052571.37644  -5495507.98544  22644705.7764   22644707.9794
 -14633705.55444 -11402885.46244  21477746.4334   21477749.3144
 -23986927.65544 -18691089.05044  20627167.9574   20627170.3614
 -16396350.52944 -12776362.04344  22136132.0944   22136134.8774
   4038126.71144   3146590.89844  22590687.2314   22590690.8384
 -21872855.18544 -17043769.76644  20776883.7064   20776885.9394
 -14592713.355 4 -11370942.824 4  22027158.823    22027156.629
 96  7 11  1  3 30.0000000  0  8G 9G31G 3G 1G23G17G21G28
  -3315695.45444  -2583657.84644  23815093.2684   23815096.0814
  -7089615.02044  -5524373.15544  22637656.7454   22637658.2444
 -14606728.41944 -11381864.33744  21482880.4424   21482882.9954
 -24033858.38344 -18727658.42144  20618237.2954   20618239.6354
 -16345983.37744 -12737114.92644  22145717.0764   22145719.2234
   4119168.02744   3209739.94344  22606109.1174   22606112.1674
 -21875790.15644 -17046056.75244  20776325.2254   20776327.4044
 -14506922.222 4 -11304092.631 4  22043484.427    22043481.893
 96  7 11  1  4  0.0000000  0  8G 9G31G 3G 1G23G17G21G28
  -3299647.90744  -2571153.26444  23818145.8734   23818149.4374
  -7126111.90644  -5552812.27544  22630711.1114   22630713.0864
 -14579172.66244 -11360392.33644  21488123.9764   21488126.8104
 -24080281.35644 -18763832.13844  20609403.2814   20609405.7214
 -16295540.14144 -12697808.52244  22155315.5424   22155317.9624
   4200481.35944   3273100.94544  22621582.1814   22621586.6984
 -21878548.36544 -17048205.99844  20775800.4014   20775802.3364
 -14420802.420 4 -11236986.340 4  22059872.371    22059869.933
 96  7 11  1  4 30.0000000  0  8G 9G31G 3G 1G23G17G21G28
  -3283079.57944  -2558242.87544  23821300.0174   23821303.3054
  -7162078.96544  -5580838.56244  22623866.6784   22623869.7434
 -14551075.80044 -11338498.69844  21493470.4824   21493473.2434
 -24126207.85244 -18799618.99244  20600663.7014   20600666.0964
 -16245050.48744 -12658465.94644  22164923.2124   22164925.6434
   4282062.31344   3336670.48044  22637106.4544   22637110.2454
 -21881156.70444 -17050238.46344  20775303.9604   20775306.1244
 -14334380.229 4 -11169644.421 4  22076318.146    22076315.648
 96  7 11  1  5  0.0000000  0  8G 9G31G 3G 1G23G17G21G28
  -3265977.99844  -2544916.96144  23824555.1514   23824556.6514
  -7197508.51144  -5608445.99144  22617124.6154   22617127.1984
 -14522430.09244 -11316177.39144  21498921.9794   21498924.9244
 -24171630.92944 -18835013.57144  20592020.0754   20592022.3714
 -16194505.24744 -12619080.06244  22174542.2254   22174544.4614
   4363919.59744   3400455.35044  22652683.6314   22652687.1914
 -21883608.86244 -17052149.22844  20774837.4244   20774839.2324
 -14247658.458 4 -11102069.057 4  22092820.934    22092818.450
 96  7 11  1  5 30.0000000  0  8G 9G31G 3G 1G23G17G21G28
  -3248333.10144  -2531167.68644  23827912.9664   23827913.4704
  -7232387.37244  -5635624.30344  22610486.9294   22610490.1024
 -14493230.38944 -11293424.39344  21504478.8314   21504481.0574
 -24216533.53944 -18870002.59444  20583475.2814   20583477.7694
 -16143877.34544 -12579629.75144  22184176.5344   22184178.3344
   4446079.54644   3464476.05744  22668317.7664   22668320.8414
 -21885878.77744 -17053917.98744  20774405.4664   20774407.2544
 -14160624.828 4 -11034250.696 4  22109382.877    22109380.613
 96  7 11  1  6  0.0000000  0  8G 9G31G 3G 1G23G17G21G28
  -3230130.75544  -2516984.02444  23831376.8004   23831379.1894
  -7266687.56544  -5662351.72044  22603960.3034   22603962.2914
 -14463464.94044 -11270230.55744  21510142.8274   21510145.8674
 -24260907.09944 -18904579.37144  20575031.3934   20575033.5474
 -16093164.21544 -12540113.03844  22193826.6164   22193828.5034
   4528575.91844   3528758.89444  22684016.4324   22684018.6734
 -21887936.78144 -17055521.62444  20774013.9014   20774015.9484
 -14073262.403 4 -10966176.129 4  22126007.258    22126005.191
 96  7 11  1  6 30.0000000  0  8G 9G31G 3G 1G23G17G21G28
  -3211385.84944  -2502377.60044  23834942.9824   23834943.8474
  -7300419.67644  -5688636.47744  22597541.1244   22597543.4464
 -14433159.01644 -11246615.56744  21515909.8264   21515912.9544
 -24304780.93044 -18938766.75044  20566682.3914   20566684.4764
 -16042364.78644 -12500529.07044  22203493.6864   22203495.9994
   4611396.86444   3593294.67244  22699776.8834   22699780.9054
 -21889787.37844 -17056963.64144  20773661.8204   20773663.6964
 -13985586.481 4 -10897857.280 4  22142691.511    22142689.531
 96  7 11  1  7  0.0000000  0  8G 9G31G 3G 1G23G17G21G28
  -3192127.60044  -2487371.14044  23838607.8644   23838608.8794
  -7333596.14744  -5714488.25644  22591228.1134   22591231.1224
 -14402318.30144 -11222583.85544  21521778.1674   21521781.1394
 -24348162.75844 -18972570.74844  20558427.0834   20558429.2344
 -15991464.89144 -12460866.83144  22213179.6624   22213182.1954
   4694523.98044   3658068.99944  22715595.7384   22715599.3244
 -21891440.24644 -17058251.58244  20773347.1294   20773348.9594
 -13897606.198 4 -10829301.262 4  22159433.618    22159431.278
 96  7 11  1  7 30.0000000  0  8G 9G31G 3G 1G23G17G21G28
  -3172353.67044  -2471962.87144  23842371.5684   23842372.1604
  -7366207.47344  -5739899.69044  22585022.2724   22585024.6354
 -14370936.16644 -11198130.26244  21527750.2854   21527752.8384
 -24391039.03744 -19005980.81144  20550268.1394   20550270.2924
 -15940447.38644 -12421112.94844  22222887.9104   22222890.4704
   4777957.31244   3723081.93144  22731472.9324   22731475.2404
 -21892886.76344 -17059378.73344  20773072.0704   20773073.9074
 -13809309.180 4 -10760498.434 4  22176236.156    22176233.501
 96  7 11  1  8  0.0000000  0  8G 9G31G 3G 1G23G17G21G28
  -3152082.22444  -2456166.94544  23846229.2924   23846231.0594
  -7398278.11044  -5764889.77944  22578919.6874   22578921.9164
 -14339020.57844 -11173260.99244  21533823.7364   21533826.1234
 -24433435.00844 -19039016.60744  20542200.1394   20542202.5074
 -15889330.19444 -12381281.36844  22232614.9564   22232616.9334
   4861669.71144   3788312.32844  22747402.7054   22747405.9494
 -21894162.31044 -17060372.66044  20772829.2214   20772830.9674
 -13720715.693 4 -10691464.592 4  22193095.000    22193092.425
 96  7 11  1  8 30.0000000  0  8G 9G31G 3G 1G23G17G21G28
  -3131309.07544  -2439980.05944  23850181.1694   23850183.8154
  -7429805.51944  -5789456.58244  22572920.4394   22572923.2734
 -14306549.95744 -11147959.22844  21540002.8324   21540005.4104
 -24475340.29744 -19071670.05844  20534225.9644   20534228.2714
 -15838102.84344 -12341363.95744  22242363.4964   22242365.4214
   4945664.65644   3853762.88844  22763386.1064   22763388.4484
 -21895264.74144 -17061231.69044  20772619.3054   20772621.3384
 -13631819.991 4 -10622195.258 4  22210011.496    22210008.586
 96  7 11  1  9  0.0000000  0  8G 9G31G 3G 1G23G17G21G28
  -3110049.37344  -2423414.01044  23854226.3154   23854231.1424
  -7460815.68644  -5813620.34044  22567019.6974   22567021.7294
 -14273537.56744 -11122235.30844  21546284.8194   21546287.1214
 -24516758.08544 -19103943.63444  20526344.4504   20526346.5394
 -15786821.69144 -12301404.63144  22252121.7644   22252124.8064
   5029909.82744   3919408.41744  22779417.6984   22779420.9654
 -21896218.30644 -17061974.72044  20772437.8654   20772439.8034
 -13542645.997 4 -10552709.081 4  22226980.362    22226978.159
 96  7 11  1  9 30.0000000  0  8G 9G31G 3G 1G23G17G21G28
  -3088251.40544  -2406428.55044  23858374.7624   23858378.1524
  -7491260.39544  -5837343.49944  22561225.3644   22561228.0374
 -14239952.71944 -11096065.31544  21552675.8764   21552678.2664
 -24557669.42644 -19135822.57944  20518559.1344   20518561.2574
 -15735482.86744 -12261400.37144  22261891.2474   22261893.6464
   5114424.61544   3985264.04544  22795500.2844   22795504.0104
 -21896995.15344 -17062580.05044  20772290.1654   20772292.0064
 -13453167.958 4 -10482985.981 4  22244007.807    22244005.510
 96  7 11  1 10  0.0000000  0  8G 9G31G 3G 1G23G17G21G28
  -3065926.45144  -2389032.49944  23862623.1004   23862624.9094
  -7521145.55244  -5860630.62344  22555538.5074   22555540.3454
 -14205812.04344 -11069462.21144  21559172.2064   21559175.1144
 -24598104.99444 -19167330.79144  20510864.6454   20510866.6414
 -15684116.94744 -12221374.98444  22271666.1224   22271668.3834
   5199195.68244   4051319.36944  22811631.7624   22811634.8964
 -21897608.20944 -17063057.75144  20772173.5374   20772175.4624
 -13363410.671 4 -10413045.283 4  22261087.953    22261085.963
 96  7 11  1 10 30.0000000  0  8G 9G31G 3G 1G23G17G21G28
  -3043062.31144  -2371216.30544  23866974.3584   23866976.9114
  -7550450.70044  -5883465.79344  22549962.3614   22549964.1254
 -14171110.15644 -11042421.79644  21565776.1994   21565778.9024
 -24638055.52344 -19198461.05344  20503262.2014   20503264.4044
 -15632716.28444 -12181322.53044  22281447.5904   22281449.4114
   5284232.89444   4117582.06944  22827813.6114   22827817.8854
 -21898035.78644 -17063390.92344  20772092.3654   20772094.3854
 -13273371.374 4 -10342884.839 4  22278221.983    22278219.467
 96  7 11  1 11  0.0000000  0  8G 9G31G 3G 1G23G17G21G28
  -3019633.41644  -2352960.04844  23871432.9954   23871436.0824
  -7579155.94544  -5905833.52244  22544499.7574   22544501.7814
 -14135848.91844 -11014945.53344  21572486.3944   21572488.6154
 -24677513.97044 -19229207.87444  20495753.4474   20495755.8574
 -15581250.55144 -12141219.37344  22291240.5374   22291242.9564
   5369545.69644   4184059.53044  22844048.5854   22844051.6824
 -21898264.28044 -17063568.96944  20772048.7384   20772050.5364
 -13183040.580 4 -10272497.262 4  22295411.194    22295408.879
 96  7 11  1 11 30.0000000  0  8G 9G31G 3G 1G23G17G21G28
  -2995640.25844  -2334264.10244  23875997.1954   23876003.3874
  -7607259.61744  -5927732.48744  22539151.3534   22539153.8434
 -14100026.45244 -10987031.94044  21579303.0464   21579305.6504
 -24716491.43744 -19259579.90344  20488336.4434   20488338.8254
 -15529689.83844 -12101042.20144  22301052.4994   22301054.9284
   5455151.79444   4250765.52344  22860338.6104   22860341.7754
 -21898295.20044 -17063593.05844  20772042.8734   20772044.7244
 -13092421.385 4 -10201884.953 4  22312655.526    22312653.201
 96  7 11  1 12  0.0000000  0  8G 9G31G 3G 1G23G17G21G28
  -2971124.12044  -2315160.55844  23880662.0394   23880665.4884
  -7634809.15044  -5949199.65644  22533909.7374   22533911.9154
 -14063672.67844 -10958704.34144  21586220.2514   21586223.2744
 -24754995.28744 -19289582.88144  20481009.2964   20481011.3404
 -15478055.07644 -12060807.33144  22310878.4294   22310880.3864
   5541044.02744   4317694.49844  22876683.4594   22876686.5394
 -21898150.65544 -17063480.42144  20772070.3164   20772072.1354
 -13001544.756 4 -10131072.048 4  22329949.163    22329946.258
 96  7 11  1 12 30.0000000  0  8G 9G31G 3G 1G23G17G21G28
  -2946082.71044  -2295647.75944  23885428.0464   23885431.9784
  -7661821.90744  -5970248.55044  22528769.5154   22528771.7124
 -14026793.43044 -10929967.28844  21593239.0404   21593241.8564
 -24792997.05144 -19319194.62544  20473777.7844   20473779.9474
 -15426331.84944 -12020503.53644  22320721.1424   22320723.3034
   5627225.92644   4384849.17844  22893083.3904   22893087.6404
 -21897831.18844 -17063231.48344  20772131.1494   20772133.1954
 -12910409.229 4 -10060057.409 4  22347291.813    22347288.948
 96  7 11  1 13  0.0000000  0  8G 9G31G 3G 1G23G17G21G28
  -2920526.12444  -2275733.55644  23890292.9464   23890294.2964
  -7688309.24044  -5990888.03444  22523728.8284   22523730.5064
 -13989414.76144 -10900841.06744  21600352.0464   21600354.8494
 -24830492.16644 -19348411.57744  20466642.5744   20466644.7784
 -15374525.64644 -11980135.08444  22330579.3424   22330581.3024
   5713697.26444   4452229.38844  22909538.4874   22909541.6764
 -21897352.11144 -17062858.17744  20772222.2214   20772224.1174
 -12819023.011 4  -9988847.416 4  22364681.677    22364679.372
 96  7 11  1 13 30.0000000  0  7G31G 3G 1G23G17G21G28
  -7714271.07744  -6011118.03744  22518788.7864   22518790.5654
 -13951523.21344 -10871315.21144  21607562.0094   21607565.0424
 -24867457.05644 -19377215.37044  20459608.5634   20459610.7054
 -15322641.78544 -11939706.11844  22340452.5624   22340455.2254
   5800467.19244   4519842.26544  22926050.8744   22926054.0094
 -21896711.57844 -17062359.06144  20772344.1234   20772346.3494
 -12727380.883 4  -9917438.011 4  22382120.812    22382118.593
 96  7 11  1 14  0.0000000  0  7G31G 3G 1G23G17G21G28
  -7739703.91744  -6030935.82744  22513949.2104   22513951.0734
 -13913120.89044 -10841391.34144  21614869.5024   21614872.1984
 -24903880.02844 -19405596.88644  20452677.4114   20452679.4384
 -15270686.91544 -11899221.82044  22350338.9234   22350341.7514
   5887518.25444   4587674.22044  22942615.8314   22942619.4254
 -21895905.21244 -17061730.72544  20772497.6114   20772499.7434
 -12635483.248 4  -9845829.513 4  22399608.665    22399605.963
 96  7 11  1 14 30.0000000  0  7G31G 3G 1G23G17G21G28
  -7764588.32644  -6050326.27244  22509212.7634   22509215.1344
 -13874198.49544 -10811062.22244  21622276.8444   21622279.5454
 -24939765.36544 -19433559.46844  20445848.8304   20445850.9374
 -15218644.47944 -11858669.28044  22360242.3044   22360244.7704
   5974843.76244   4655719.99944  22959233.4504   22959235.9344
 -21894921.67344 -17060964.33444  20772684.8974   20772686.9454
 -12543323.844 4  -9774017.054 4  22417146.067    22417143.158
 96  7 11  1 15  0.0000000  0  7G31G 3G 1G23G17G21G28
  -7788881.60344  -6069256.10744  22504590.3074   22504592.1954
 -13834717.82144 -10780298.07844  21629790.1264   21629792.3564
 -24975108.58644 -19461099.61844  20439122.9134   20439125.2004
 -15166490.70444 -11818029.98244  22370167.0474   22370169.1654
   6062465.56244   4723996.68044  22975907.3384   22975910.3624
 -21893728.48544 -17060034.58244  20772911.9104   20772913.9274
 -12450876.559 4  -9701980.261 4  22434738.284    22434735.379
 96  7 11  1 15 30.0000000  0  7G31G 3G 1G23G17G21G28
  -7812620.64444  -6087754.07944  22500072.9854   22500075.0154
 -13794684.66444 -10749103.42544  21637407.6314   21637410.2024
 -25009951.96544 -19488250.28544  20432492.7024   20432494.7144
 -15114261.09644 -11777331.59044  22380106.5814   22380108.0134
   6150340.17544   4792470.34644  22992629.0764   22992632.2974
 -21892344.20844 -17058955.92644  20773175.1814   20773177.0644
 -12358172.127 4  -9629743.104 4  22452379.346    22452376.248
 96  7 11  1 16  0.0000000  0  7G31G 3G 1G23G17G21G28
  -7835760.59344  -6105785.20344  22495669.7734   22495672.6104
 -13754069.73244 -10717455.44144  21645135.8074   21645138.9994
 -25044264.75344 -19514987.50244  20425962.9464   20425964.9634
 -15061911.89544 -11736540.01744  22390068.3054   22390070.2574
   6238511.00844   4861174.84644  23009406.9964   23009410.2234
 -21890713.73844 -17057685.43144  20773485.2194   20773487.5554
 -12265174.166 4  -9557277.221 4  22470076.070    22470073.216
 96  7 11  1 16 30.0000000  0  7G31G 3G 1G23G17G21G28
  -7858338.67644  -6123378.51444  22491373.7034   22491375.3344
 -13712914.67644 -10685386.57544  21652968.1004   21652970.4924
 -25078093.91044 -19541347.86044  20419525.3844   20419527.6044
 -15009474.98044 -11695680.09744  22400046.3824   22400049.1624
   6326950.61044   4930088.77944  23026236.9394   23026241.7544
 -21888883.88544 -17056259.57544  20773833.6304   20773835.5814
 -12171923.305 4  -9484614.270 4  22487821.021    22487818.722
 96  7 11  1 17  0.0000000  0  7G31G 3G 1G23G17G21G28
  -7880317.00144  -6140504.47844  22487191.1464   22487192.8534
 -13671185.34244 -10652870.22244  21660908.9514   21660911.6664
 -25111402.84144 -19567302.84944  20413187.0234   20413189.0664
 -14956926.12744 -11654732.95544  22410046.0594   22410049.2284
   6415684.69044   4999232.15344  23043122.3154   23043125.4254
 -21886835.40244 -17054663.35744  20774223.3844   20774225.3054
 -12078392.865 4  -9411733.456 4  22505619.210    22505616.897
 96  7 11  1 17 30.0000000  0  7G31G 3G 1G23G17G21G28
  -7901727.79544  -6157188.22544  22483116.6054   22483118.5504
 -13628941.54244 -10619952.98544  21668947.6264   21668950.1434
 -25144215.59044 -19592871.20344  20406942.9604   20406945.1224
 -14904307.43644 -11613731.39644  22420058.8914   22420061.2224
   6504672.01144   5068572.85544  23060055.8984   23060060.8164
 -21884611.60544 -17052930.52844  20774646.6064   20774648.7064
 -11984627.548 4  -9338669.635 4  22523462.290    22523459.716
 96  7 11  1 18  0.0000000  0  7G31G 3G 1G23G17G21G28
  -7922532.27144  -6173399.51244  22479157.6014   22479160.0914
 -13586178.22244 -10586630.92844  21677084.8634   21677087.9334
 -25176518.26244 -19618042.09544  20400795.8594   20400798.0564
 -14851591.31744 -11572653.92844  22430090.1334   22430092.6514
   6593943.86944   5138135.29044  23077044.5484   23077049.6944
 -21882201.97044 -17051052.89244  20775105.1544   20775107.0604
 -11890612.450 4  -9265411.175 4  22541353.122    22541350.333
 96  7 11  1 18 30.0000000  0  7G31G 3G 1G23G17G21G28
  -7942742.40544  -6189147.66944  22475311.1404   22475313.8474
 -13542910.13844 -10552915.55244  21685318.8174   21685321.9184
 -25208329.56044 -19642830.10044  20394742.6064   20394744.5814
 -14798799.36744 -11531517.35044  22440136.8314   22440139.0004
   6683477.17644   5207901.44644  23094081.7844   23094085.7644
 -21879635.54444 -17049053.07744  20775593.6814   20775595.4794
 -11796369.771 4  -9191975.381 4  22559286.939    22559284.021
 96  7 11  1 19  0.0000000  0  7G31G 3G 1G23G17G21G28
  -7962323.15644  -6204405.40444  22471585.0234   22471587.9764
 -13499104.08244 -10518780.97344  21693654.8704   21693657.8324
 -25239614.20444 -19667207.72544  20388789.1964   20388791.1744
 -14745911.56444 -11490306.08544  22450201.1324   22450202.7504
   6773306.96644   5277898.62244  23111176.1344   23111179.6954
 -21876861.00044 -17046891.09144  20776121.8624   20776123.6934
 -11701869.631 4  -9118338.971 4  22577269.791    22577267.108
 96  7 11  1 19 30.0000000  0  7G31G 3G 1G23G17G21G28
  -7981341.68144  -6219225.05744  22467966.4214   22467968.3584
 -13454816.45444 -10484271.14344  21702082.2944   21702085.4154
 -25270427.05644 -19691217.72244  20382925.7364   20382927.6394
 -14692966.62344 -11449050.29844  22460276.0374   22460278.2244
   6863403.62344   5348103.75144  23128320.9424   23128323.7564
 -21873910.60544 -17044592.07644  20776683.3044   20776685.1414
 -11607158.914 4  -9044538.471 4  22595292.277    22595290.130
 96  7 11  1 20  0.0000000  0  7G31G 3G 1G23G17G21G28
  -7999810.51944  -6233616.37544  22464451.8464   22464454.0474
 -13410030.92544 -10449373.34344  21710604.8794   21710607.8474
 -25300767.18344 -19714859.36344  20377152.1994   20377154.2724
 -14639963.20344 -11407748.95844  22470362.1444   22470364.1514
   6953780.93244   5418527.57444  23145519.1314   23145521.6434
 -21870787.43444 -17042158.43344  20777277.6824   20777279.6774
 -11512237.940 4  -8970574.128 4  22613355.130    22613352.884
 96  7 11  1 20 30.0000000  0  7G31G 3G 1G23G17G21G28
  -8017774.81244  -6247614.52944  22461033.4824   22461035.7414
 -13364778.92644 -10414112.06244  21719215.9944   21719219.1544
 -25330653.35544 -19738147.27244  20371464.8894   20371466.9784
 -14586950.25744 -11366440.18144  22480450.4564   22480451.9894
   7044384.90244   5489128.01644  23162760.6504   23162763.8294
 -21867527.85844 -17039618.50144  20777897.8334   20777899.8774
 -11417147.195 4  -8896477.504 4  22631450.618    22631447.897
 96  7 11  1 21  0.0000000  0  7G31G 3G 1G23G17G21G28
  -8035224.46844  -6261211.66444  22457713.4314   22457715.3834
 -13319037.60144 -10378469.48644  21727920.3884   21727922.9414
 -25360055.85444 -19761058.28544  20365869.8364   20365872.1244
 -14533900.41944 -11325102.66644  22490545.1114   22490547.9134
   7135233.82144   5559919.31744  23180048.5514   23180053.7164
 -21864105.41544 -17036951.65844  20778549.0964   20778551.1294
 -11321860.867 4  -8822228.486 4  22649582.906    22649580.199
 96  7 11  1 21 30.0000000  0  7G31G 3G 1G23G17G21G28
  -8052148.79944  -6274399.45744  22454492.6794   22454495.4764
 -13272804.93644 -10342444.04144  21736718.3514   21736720.9284
 -25388952.32644 -19783574.99744  20360371.0834   20360373.1284
 -14480796.69544 -11283723.16044  22500650.4864   22500653.1524
   7226326.86844   5630900.85544  23197382.9704   23197387.1384
 -21860532.66844 -17034167.69344  20779229.0414   20779230.9774
 -11226374.359 4  -8747823.477 4  22667753.644    22667750.848
 96  7 11  1 22  0.0000000  0  7G31G 3G 1G23G17G21G28
  -8068491.72844  -6287134.21644  22451382.8594   22451384.7684
 -13226044.80044 -10306007.59044  21745616.5944   21745618.8764
 -25417303.46944 -19805666.78144  20354975.8454   20354978.0774
 -14427614.44744 -11242282.46444  22510771.3924   22510773.2644
   7317673.37044   5702079.88144  23214766.2634   23214769.6844
 -21856781.92944 -17031245.03544  20779942.7044   20779944.8034
 -11130659.029 4  -8673240.173 4  22685968.112    22685965.550
 96  7 11  1 22 30.0000000  0  7G31G 3G 1G23G17G21G28
  -8084283.07544  -6299439.16244  22448377.3584   22448379.0564
 -13178797.15044 -10269191.25544  21754607.3534   21754609.6634
 -25445140.97944 -19827358.32944  20349678.6814   20349680.6524
 -14374374.73344 -11200796.98844  22520902.1634   22520904.4944
   7409217.54444   5773412.93944  23232186.5024   23232189.7094
 -21852878.82544 -17028203.65244  20780685.4034   20780687.4574
 -11034751.171 4  -8598506.842 4  22704218.904    22704216.276
 96  7 11  1 23  0.0000000  0  7G31G 3G 1G23G17G21G28
  -8099481.39444  -6311282.01144  22445485.4834   22445487.4244
 -13131033.08744 -10231972.52244  21763696.7614   21763699.7364
 -25472428.64244 -19848621.42844  20344485.9934   20344488.1304
 -14321014.42344 -11159217.53544  22531055.8744   22531059.1644
   7501016.71044   5844944.69344  23249655.5674   23249658.9954
 -21848773.16344 -17025004.43244  20781466.6084   20781468.6084
 -10938610.079 4  -8523591.776 4  22722513.707    22722510.961
 96  7 11  1 23 30.0000000  0  7G31G 3G 1G23G17G21G28
  -8114086.67044  -6322662.75044  22442706.0024   22442708.3974
 -13082775.05244 -10194368.87544  21772879.8864   21772882.8944
 -25499181.78044 -19869468.01244  20339394.9344   20339396.8544
 -14267552.04244 -11117558.56244  22541229.6984   22541232.8484
   7593062.31544   5916668.48344  23267171.0054   23267175.4664
 -21844472.90544 -17021653.58144  20782284.7754   20782286.9394
 -10842258.881 4  -8448512.992 4  22740848.661    22740846.127
 96  7 11  1 24  0.0000000  0  7G31G 3G 1G23G17G21G28
  -8128101.65544  -6333583.52544  22440038.8304   22440041.9224
 -13034017.13544 -10156375.71244  21782157.5934   21782160.6354
 -25525404.20044 -19889901.05144  20334405.0204   20334407.0304
 -14213975.81644 -11075810.86344  22551424.7214   22551427.4764
   7685374.94644   5988600.33744  23284737.1264   23284741.9714
 -21839959.99944 -17018137.02944  20783143.6374   20783145.6624
 -10745691.784 4  -8373265.973 4  22759224.987    22759222.311
 96  7 11  1 24 30.0000000  0  7G31G 3G 1G23G17G21G28
  -8141539.90944  -6344054.89844  22437481.8794   22437485.0234
 -12984776.15644 -10118006.13544  21791528.5474   21791531.5524
 -25551094.21344 -19909919.22744  20329516.4214   20329518.3874
 -14160288.41044 -11033976.54844  22561641.0384   22561643.5934
   7777983.57444   6060762.83844  23302360.3034   23302363.3794
 -21835233.07244 -17014453.70344  20784043.0944   20784045.1954
 -10648910.804 4  -8297852.297 4  22777642.064    22777639.207
 96  7 11  1 25  0.0000000  0  7G31G 3G 1G23G17G21G28
  -8154388.81644  -6354067.04144  22435036.8834   22435039.3804
 -12935061.30544 -10079267.30844  21800989.1694   21800991.8314
 -25576247.24244 -19929518.97444  20324729.8454   20324731.8634
 -14106503.60544 -10992066.32544  22571875.7444   22571878.5514
   7870908.64844   6133171.94644  23320042.4564   23320048.4494
 -21830289.93244 -17010601.90444  20784983.8444   20784985.7994
 -10551914.157 4  -8222270.568 4  22796099.727    22796096.884
 96  7 11  1 25 30.0000000  0  7G31G 3G 1G23G17G21G28
  -8166671.54244  -6363637.99044  22432699.8554   22432701.4044
 -12884884.41144 -10040168.43444  21810537.1514   21810540.4604
 -25600901.01344 -19948729.68744  20320038.2874   20320040.5764
 -14052668.19244 -10950116.68344  22582120.5414   22582123.2824
   7964118.92644   6205803.25344  23337780.7714   23337785.5334
 -21825165.96044 -17006609.19644  20785958.9134   20785960.8044
 -10454731.749 4  -8146544.088 4  22814592.898    22814589.955
 96  7 11  1 26  0.0000000  0  7G31G 3G 1G23G17G21G28
  -8178390.19044  -6372769.41044  22430469.5984   22430471.8304
 -12834228.13844 -10000696.03344  21820176.4884   21820179.2554
 -25625063.66344 -19967557.71044  20315440.3744   20315442.5594
 -13998765.83344 -10908114.86644  22592378.3964   22592380.2234
   8057606.66344   6278650.78744  23355571.6564   23355573.1644
 -21819863.85244 -17002477.68544  20786967.7454   20786969.6554
 -10357358.083 4  -8070668.575 4  22833122.736    22833119.903
 96  7 11  1 26 30.0000000  0  7G31G 3G 1G23G17G21G28
  -8189551.03344  -6381466.17944  22428345.5394   22428347.8094
 -12783108.16344  -9960862.29744  21829904.4374   21829907.5154
 -25648755.95644 -19986019.21844  20310931.9384   20310933.8034
 -13944816.93644 -10866076.77044  22602644.1564   22602646.1314
   8151330.49944   6351682.30244  23373406.2104   23373409.8154
 -21814394.60544 -16998215.93244  20788008.3464   20788010.0124
 -10259811.974 4  -7994658.702 4  22851685.553    22851682.159
 96  7 11  1 27  0.0000000  0  7G31G 3G 1G23G17G21G28
  -8200115.32644  -6389698.09844  22426335.2574   22426338.0294
 -12731472.09744  -9920626.40844  21839730.6904   21839733.6454
 -25671958.18544 -20004098.86044  20306516.5794   20306518.6144
 -13890783.78844 -10823973.03144  22612926.2444   22612928.6404
   8245301.33644   6424906.25944  23391288.3974   23391293.4694
 -21808727.43744 -16993799.96044  20789086.8134   20789088.7874
 -10162064.900 4  -7918492.237 4  22870285.890    22870282.680
 96  7 11  1 27 30.0000000  0  7G31G 3G 1G23G17G21G28
  -8210132.28444  -6397503.52744  22424429.1684   22424430.8454
 -12679345.93244  -9880008.63744  21849649.8014   21849652.5904
 -25694712.52144 -20021829.49744  20302186.8254   20302188.6794
 -13836685.47044 -10781818.51044  22623220.6384   22623223.3924
   8339480.96144   6498292.90044  23409210.3564   23409213.8024
 -21802903.62344 -16989261.92444  20790195.2474   20790197.0754
 -10064154.997 4  -7842198.880 4  22888917.528    22888914.738
 96  7 11  1 28  0.0000000  0  7G31G 3G 1G23G17G21G28
  -8219567.69044  -6404855.78544  22422633.6784   22422635.4714
 -12626725.03344  -9839005.35344  21859663.2884   21859666.4304
 -25716961.43444 -20039166.29644  20297952.8334   20297954.5124
 -13782481.09144 -10739581.35144  22633535.5894   22633538.0014
   8433892.06344   6571859.96044  23427176.5784   23427178.6294
 -21796887.63544 -16984574.14244  20791340.2354   20791342.0764
  -9966056.773 4  -7765758.780 4  22907585.289    22907582.220
 96  7 11  1 28 30.0000000  0  7G31G 3G 1G23G17G21G28
  -8228434.32944  -6411764.85744  22420946.5854   22420947.7404
 -12573654.40144  -9797651.63644  21869762.2084   21869765.2414
 -25738709.76344 -20056113.02744  20293814.3914   20293816.3244
 -13728211.12144 -10697293.07544  22643863.0514   22643865.1874
   8528527.35844   6645601.65244  23445184.9064   23445189.8494
 -21790702.59644 -16979754.63244  20792517.0364   20792519.0874
  -9867801.376 4  -7689196.211 4  22926282.676    22926279.561
 96  7 11  1 29  0.0000000  0  7G31G 3G 1G23G17G21G28
  -8236722.86744  -6418223.46144  22419369.0624   22419371.6094
 -12520127.04344  -9755942.01644  21879948.2124   21879950.5244
 -25759937.55344 -20072654.14844  20289774.8404   20289776.6334
 -13673872.21644 -10654951.07844  22654203.5104   22654206.8624
   8623409.63144   6719535.83244  23463240.1764   23463246.0684
 -21784354.59344 -16974808.13844  20793725.0334   20793726.8854
  -9769387.800 4  -7612510.376 4  22945009.946    22945007.453
 96  7 11  1 29 30.0000000  0  7G31G 3G 1G23G17G21G28
  -8244460.04844  -6424252.42944  22417896.2184   22417899.4454
 -12466176.69444  -9713902.79644  21890214.4624   21890216.9994
 -25780651.63044 -20088794.97344  20285833.0204   20285834.8444
 -13619482.72444 -10612569.65444  22664553.4274   22664555.4844
   8718512.93044   6793642.22644  23481338.1044   23481343.4634
 -21777862.24044 -16969749.16844  20794960.6364   20794962.6564
  -9670843.365 4  -7535722.562 4  22963762.860    22963759.879
 96  7 11  1 30  0.0000000  0  7G31G 3G 1G23G17G21G28
  -8251605.89544  -6429820.61644  22416536.5854   22416539.6204
 -12411774.27844  -9671511.31144  21900566.9884   21900570.0544
 -25800819.35044 -20104510.06544  20281994.9604   20281997.1174
 -13565017.09244 -10570128.96444  22674917.4034   22674920.2594
   8813863.67644   6867941.40944  23499482.1094   23499487.0224
 -21771172.96744 -16964536.75544  20796233.1644   20796235.4744
  -9572139.183 4  -7458810.294 4  22982545.820    22982542.705
 96  7 11  1 30 30.0000000  0  7G31G 3G 1G23G17G21G28
  -8258183.85444  -6434946.31444  22415285.2164   22415287.6504
 -12356905.38144  -9628756.35244  21911008.3074   21911011.3334
 -25820474.77744 -20119825.96744  20278254.7924   20278256.8604
 -13510493.86244 -10527643.32244  22685293.1974   22685295.5134
   8909457.92244   6942430.41044  23517673.7764   23517675.6374
 -21764298.70844 -16959180.19244  20797541.2844   20797543.5364
  -9473286.071 4  -7381781.963 4  23001356.615    23001353.851
 96  7 11  1 31  0.0000000  0  7G31G 3G 1G23G17G21G28
  -8264202.24344  -6439635.96544  22414140.1864   22414142.5214
 -12301549.98244  -9585622.29544  21921542.2824   21921545.2634
 -25839607.78344 -20134734.79044  20274613.8894   20274615.9294
 -13455885.03744 -10485090.98744  22695684.9694   22695687.7624
   9005297.11644   7017110.25544  23535911.1254   23535916.2854
 -21757226.56744 -16953669.43544  20798887.1764   20798889.2104
  -9374273.545 4  -7304629.410 4  23020198.288    23020195.131
 96  7 11  1 31 30.0000000  0  7G31G 3G 1G23G17G21G28
  -8269682.06044  -6443905.95544  22413097.7764   22413099.1844
 -12245736.01544  -9542130.90744  21932163.1294   21932166.2934
 -25858247.72444 -20149259.40544  20271066.9874   20271069.1044
 -13401195.26444 -10442475.59044  22706091.9894   22706094.8864
   9101351.41144   7091957.69444  23554189.4774
 -21749962.04944 -16948008.77444  20800269.6464   20800271.8544
  -9275122.580 4  -7227368.993 4  23039066.167    23039062.858
 96  7 11  1 32  0.0000000  0  7G31G 3G 1G23G17G21G28
  -8274570.49244  -6447715.12144  22412167.5334   22412168.7454
 -12189435.91844  -9498260.71244  21942876.3804   21942879.7324
 -25876366.18944 -20163377.67144  20267619.0994   20267620.9924
 -13346387.59544 -10399768.32944  22716521.5254   22716523.8534
   9197663.22344   7167005.75944  23572517.8504   23572521.2344
 -21742469.39144 -16942170.34344  20801695.3954   20801697.6794
  -9175793.738 4  -7149969.971 4  23057967.834    23057964.359
 96  7 11  1 32 30.0000000  0  7G31G 3G 1G23G17G21G28
  -8278880.07944  -6451073.25444  22411347.1344   22411349.4424
 -12132666.35644  -9454024.70644  21953680.1224   21953682.7144
 -25893981.38544 -20177103.78444  20264266.9964   20264268.9114
 -13291478.18144 -10356981.78444  22726970.5594   22726972.7634
   9294217.72544   7242242.98044  23590891.2994   23590897.0494
 -21734794.40744 -16936189.83644  20803155.9554   20803158.0214
  -9076307.286 4  -7072448.138 4  23076899.735    23076896.326
 96  7 11  1 33  0.0000000  0  7G31G 3G 1G23G17G21G28
  -8282597.37744  -6453969.85244  22410638.9914   22410641.1064
 -12075444.10344  -9409435.95244  21964568.8554   21964571.5934
 -25911090.81544 -20190435.79244  20261011.2304   20261013.2934
 -13236451.57444 -10314103.91444  22737442.1824   22737444.4734
   9391009.79644   7317665.30444  23609310.2144   23609311.6264
 -21726931.03444 -16930062.53444  20804652.2024   20804653.9714
  -8976661.800 4  -6994802.369 4  23095861.515    23095858.554
 96  7 11  1 33 30.0000000  0  7G31G 3G 1G23G17G21G28
  -8285749.75144  -6456426.26844  22410039.5324   22410041.6744
 -12017819.56944  -9364533.74044  21975534.2354   21975537.0164
 -25927747.19444 -20203414.77644  20257841.5014   20257843.5274
 -13181363.65944 -10271178.28044  22747925.0654   22747926.8934
   9487998.88944   7393241.13344  23627765.3744
 -21718922.65044 -16923822.23944  20806176.2244   20806178.3544
  -8876897.956 4  -6917064.375 4  23114845.751    23114842.982
 96  7 11  1 34  0.0000000  0  7G31G 3G 1G23G17G21G28
  -8288333.35244  -6458439.45344  22409548.1414   22409551.3444
 -11959779.62444  -9319307.82344  21986578.9524   21986582.0724
 -25943932.42644 -20216026.63044  20254761.4694   20254763.4364
 -13126217.04544 -10228206.89644  22758418.8134   22758420.6454
   9585195.22244   7468978.45144  23646262.3224
 -21710762.59544 -16917463.76044  20807729.2064   20807731.2584
  -8777004.315 4  -6839225.247 4  23133855.416    23133851.812
 96  7 11  1 34 30.0000000  0  7G31G 3G 1G23G17G21G28
  -8290379.24744  -6460033.67544  22409158.9204   22409161.5504
 -11901326.93644  -9273760.30244  21997701.8294   21997704.7474
 -25959641.65244 -20228267.57244  20251772.1204   20251774.0234
 -13071024.25444 -10185199.53844  22768921.5484   22768924.0234
   9682594.68444   7544874.09044  23664796.6344
 -21702456.56244 -16910991.53144  20809309.9004   20809311.8874
  -8676994.682 4  -6761295.750 4  23152886.438    23152882.913
 96  7 11  1 35  0.0000000  0  7G31G 3G 1G23G17G21G28
  -8291892.87544  -6461213.13344  22408870.5954   22408873.4084
 -11842478.94044  -9227904.74944  22008900.5244   22008903.6344
 -25974861.82444 -20240127.43244  20248875.7384   20248877.6604
 -13015788.50544 -10142158.69744  22779432.4634   22779434.7414
   9780194.68144   7620925.94144  23683369.5234
 -21693971.73944 -16904379.98144  20810924.3734   20810926.2734
  -8576870.412 4  -6683276.914 4  23171939.654    23171936.577
 96  7 11  1 35 30.0000000  0  7G31G 3G 1G23G17G21G28
  -8292892.05944  -6461991.72344  22408680.7334   22408682.5964
 -11783249.49444  -9181751.95244  22020171.7914   22020174.8394
 -25989602.54544 -20251613.69544  20246070.7274   20246072.5344
 -12960536.60144 -10099105.27944  22789946.9674   22789950.0184
   9877981.24144                  23701977.8164
 -21685316.22744 -16897635.43044  20812571.3534   20812573.3654
  -8476654.477 4  -6605186.648 4  23191010.151    23191007.426
 96  7 11  1 36  0.0000000  0  7G31G 3G 1G23G17G21G28
  -8293333.91544  -6462336.03244  22408596.7444   22408598.9784
 -11723577.93144  -9135254.65344  22031526.2524   22031529.3594
 -26003818.86744 -20262691.33544  20243365.3374   20243367.6824
 -12905215.12644 -10055997.65844  22800474.2464   22800476.8934
   9975994.97144                  23720629.4494
 -21676436.73444 -16890716.34644  20814261.0194   20814262.9154
  -8376310.834 4  -6526996.869 4  23210105.121    23210101.715
 96  7 11  1 36 30.0000000  0  7G31G 3G 1G23G17G21G28
  -8293217.54544  -6462245.36444  22408618.3554   22408620.8904
 -11663467.26444  -9088415.18744  22042965.0634   22042968.1864
 -26017517.01444 -20273365.20144  20240758.7204   20240760.6734
 -12849828.34444 -10012839.14344  22811013.5544   22811015.3294
  10074251.00944                  23739327.0664
 -21667344.01044 -16883631.10844  20815991.4774   20815993.5334
  -8275849.100 4  -6448715.080 4  23229222.335    23229218.896
 96  7 11  1 37  0.0000000  0  6G31G 3G 1G23G21G28
  -8292490.28544  -6461678.67844  22408757.1094   22408759.4134
 -11602876.48144  -9041201.61544  22054495.2244   22054498.7684
 -26030671.43344 -20283615.38644  20238255.5814   20238257.6194
 -12794333.65344  -9969596.51844  22821574.2224   22821576.3944
 -21658001.50344 -16876351.23744  20817769.0854   20817771.3864
  -8175231.794 4  -6370312.065 4  23248369.106    23248365.713
 96  7 11  1 37 30.0000000  0  6G31G 3G 1G23G21G28
  -8291188.10744  -6460663.99344  22409004.5924   22409007.2694
 -11541824.53244  -8993628.69544  22066113.3144   22066116.5174
 -26043333.80044 -20293482.15444  20235845.9974   20235847.9364
 -12738760.05644  -9926292.42444  22832149.5424   22832151.7254
 -21648482.37144 -16868933.73344  20819580.7544   20819582.7484
  -8074500.289 4  -6291820.041 4  23267537.739    23267534.402
 96  7 11  1 38  0.0000000  0  7G31G 3G 1G23G 9G21G28
  -8289318.66544  -6459207.29144  22409361.2724   22409362.6774
 -11480312.14544  -8945696.98844  22077819.2124   22077822.0824
 -26055494.10944 -20302957.70644  20233532.0914   20233534.0594
 -12683104.33144  -9882924.34744  22842740.2074   22842743.3254
         0.03554         0.27154  24258321.3074   24258325.6664
 -21638800.66244 -16861389.54544  20821423.4404   20821425.4194
  -7973651.970 4  -6213237.029 4  23286728.952    23286725.194
 96  7 11  1 38 30.0000000  0  7G31G 3G 1G23G 9G21G28
  -8286853.87344  -6457286.68344  22409830.3104   22409831.5914
 -11418340.02344  -8897407.05144  22089611.9164   22089614.2694
 -26067112.34744 -20312010.86644  20231321.1604   20231322.9104
 -12627339.53844  -9839471.26044  22853352.2374   22853354.4794
     51480.10544     40114.55444  24268116.1824   24268118.9884
 -21628925.14844 -16853694.34244  20823302.3864   20823304.4594
  -7872654.173 4  -6134537.526 4  23305947.979    23305944.616
 96  7 11  1 39  0.0000000  0  7G31G 3G 1G23G 9G21G28
  -8283781.35344  -6454892.51444  22410414.4394   22410415.8354
 -11355899.24344  -8848751.92244  22101493.6594   22101496.1844
 -26078173.86644 -20320630.21944  20229216.1724   20229218.1794
 -12571448.27444  -9795919.63844  22863987.5404   22863990.1624
    103497.08744     80647.28244  24278016.2454   24278018.3014
 -21618830.94244 -16845828.72844  20825223.1814   20825225.0744
  -7771498.949 4  -6055715.345 4  23325197.312    23325194.064
 96  7 11  1 39 30.0000000  0  7G31G 3G 1G23G 9G21G28
  -8280204.02144  -6452104.98744  22411095.0764   22411096.8834
 -11293101.49644  -8799818.63544  22113443.7414   22113446.9304
 -26088760.53244 -20328879.55644  20227201.6474   20227203.5564
 -12515527.23144  -9752344.81444  22874629.7654   22874632.1164
    155955.83444    121524.24544  24287998.9114   24288003.1084
 -21608610.53744 -16837864.77444  20827168.2414   20827170.0634
  -7670287.490 4  -5976849.347 4  23344457.387    23344454.107
 96  7 11  1 40  0.0000000  0  7G31G 3G 1G23G 9G21G28
  -8276075.37644  -6448887.86144  22411880.6234   22411883.2204
 -11229922.92644  -8750588.60544  22125466.0934   22125469.0194
 -26098832.44244 -20336727.78544  20225284.8684   20225286.9214
 -12459545.36044  -9708722.59544  22885282.4624   22885284.6234
    208894.39144    162775.03444  24298072.9194   24298075.0774
 -21598189.73044 -16829744.65944  20829151.0364   20829153.2214
  -7568978.157 4  -5897907.095 4  23363736.102    23363732.644
 96  7 11  1 40 30.0000000  0  6G31G 3G 1G23G21G28
  -8271423.78244  -6445263.25644  22412766.1954   22412768.0024
 -11166401.32044  -8701091.27344  22137553.6964   22137557.3634
 -26108440.43344 -20344214.51844  20223456.7034   20223458.4484
 -12403534.52744  -9665077.80544  22895940.5184   22895942.8224
 -21587606.74944 -16821498.17944  20831164.5484   20831166.7354
  -7467615.414 4  -5818923.225 4  23383024.388    23383021.153
 96  7 11  1 41  0.0000000  0  7G31G 3G 1G23G15G21G28
  -8266126.60844  -6441135.59544  22413774.1694   22413775.8654
 -11102393.62844  -8651215.18844  22149734.2914   22149737.7254
 -26117474.68644 -20351254.18344  20221737.5414   20221739.5934
 -12347364.75144  -9621309.17644  22906629.7414   22906631.9954
        -0.18654                  25087080.9334
 -21576755.52744 -16813042.68144  20833230.0834   20833232.1364
  -7366081.330 4  -5739805.839 4  23402345.718    23402342.514
 96  7 11  1 41 30.0000000  0  7G31G 3G 1G23G15G21G28
  -8260233.62744  -6436543.67344  22414895.3994   22414897.5184
 -11037968.53544  -8601013.85144  22161994.0424   22161997.1514
 -26126009.91344 -20357904.99744  20220113.2524   20220115.2244
 -12291098.27644  -9577465.19444  22917336.9204   22917339.2734
   -106925.10844                  25066734.9914
 -21565696.79544 -16804425.48744  20835334.3714   20835336.3774
  -7264432.602 4  -5660599.119 4  23421689.216    23421686.095
 96  7 11  1 42  0.0000000  0  7G31G 3G 1G23G15G21G28
  -8253778.24944  -6431513.51644  22416123.9034   22416125.4404
 -10973158.63144  -8550512.65644  22174327.4114   22174329.4754
 -26134106.11444 -20364213.71144  20218572.6054   20218574.5934
 -12234776.77944  -9533578.33544  22928054.5124   22928057.3224
   -213891.18244                  25046383.3564
 -21554476.93244 -16795682.72944  20837469.3534   20837471.3794
  -7162713.355 4  -5581337.448 4  23441045.569    23441042.561
 96  7 11  1 42 30.0000000  0  7G31G 3G 1G23G15G21G28
  -8246767.88944  -6426050.90844  22417458.4984   22417460.2364
 -10907963.61844  -8499711.37544  22186733.5664   22186736.0784
 -26141753.35944 -20370172.59044  20217117.4994   20217119.4584
 -12178386.52544  -9489637.91044  22938785.1484   22938786.7664
   -320900.62644                  25026017.5204
 -21543112.18644 -16786827.07744  20839632.2334   20839634.0394
  -7060929.860 4  -5502025.703 4  23460414.264    23460411.251
 96  7 11  1 43  0.0000000  0  7G31G 3G 1G23G15G21G28
  -8239216.21744  -6420166.48544  22418895.0304   22418897.5884
 -10842399.82144  -8448622.72744  22199209.6924   22199212.3694
 -26148950.07344 -20375780.40744  20215747.9974   20215749.9384
 -12121931.95444  -9445647.34644  22949527.8614   22949530.1654
   -427953.46744                  25005644.3474
 -21531585.26144 -16777845.05144  20841825.5804   20841827.5114
  -6959087.492 4  -5422668.094 4  23479794.686    23479790.693
 96  7 11  1 43 30.0000000  0  8G25G31G 3G 1G23G15G21G28
        -0.47354                  24305743.1694
  -8231057.40844  -6413808.97444  22420446.9394   22420449.6674
 -10776418.71544  -8397208.90444  22211765.6324   22211768.6134
 -26155616.24244 -20380974.80844  20214479.3264   20214481.1554
 -12065353.39744  -9401560.16944  22960294.8474   22960297.5074
   -534985.26444                  24985275.7874
 -21519808.86144 -16768668.63144  20844066.4284   20844068.3084
  -6857126.773 4  -5343218.279 4  23499197.332    23499193.552
 96  7 11  1 44  0.0000000  0  8G25G31G 3G 1G23G15G21G28
    -98461.64344                  24287006.4044
  -8222396.79244  -6407060.45044  22422095.3934   22422098.2974
 -10710096.50444  -8345529.29344  22224386.0804   22224388.3254
 -26161815.51644 -20385805.39844  20213299.6624   20213301.5334
 -12008715.30544  -9357426.60244  22971072.9874   22971075.8904
   -642076.75744                  24964897.1204
 -21507867.28044 -16759363.49844  20846338.6574   20846340.5784
  -6755133.555 4  -5263743.127 4  23518605.897    23518602.686
 96  7 11  1 44 30.0000000  0  8G25G31G 3G 1G23G15G21G28
   -197003.06644                  24268253.7564
  -8213279.36844  -6399955.97044  22423830.4654   22423832.5154
 -10643467.44444  -8293610.57244  22237065.6514   22237067.5394
 -26167556.53844 -20390278.91044  20212207.1314   20212209.0984
 -11952042.71144  -9313266.17344  22981857.5604   22981859.7934
   -749253.28744                  24944504.6524
 -21495785.94744 -16749949.47244  20848638.0044   20848639.8884
  -6653138.161 4  -5184266.273 4  23538014.686    23538011.823
 96  7 11  1 45  0.0000000  0  8G25G31G 3G 1G23G15G21G28
   -295582.73344                  24249494.1214
  -8203663.11744  -6392462.80344  22425660.6774   22425662.7004
 -10576494.63944  -8241423.98844  22249810.1314   22249813.3104
 -26172799.40444 -20394364.24744  20211209.6594   20211211.5214
 -11895305.55344  -9269055.42044  22992653.1034   22992656.1274
   -856469.88444   -667378.35544  24924102.1834
 -21483521.52044 -16740392.77644  20850971.6004   20850973.5604
  -6551100.041 4  -5104756.126 4  23557432.013    23557428.674
 96  7 11  1 45 30.0000000  0  8G25G31G 3G 1G23G15G21G28
   -394179.24944                  24230730.9874
  -8193519.55544  -6384558.73544  22427591.1874   22427593.3334
 -10509148.39444  -8188946.43744  22262624.7564   22262628.5554
 -26177525.92144 -20398047.23444  20210310.1844   20210311.8984
 -11838479.04744  -9224775.07144  23003466.9964   23003470.6824
   -963696.82444                  24903697.8174
 -21471072.07044 -16730691.90344  20853340.7374   20853342.8344
  -6448994.808 4  -5025193.703 4  23576862.267    23576858.382
 96  7 11  1 46  0.0000000  0  8G25G31G 3G 1G23G15G21G28
   -492786.77444   -383989.09444  24211967.9484
  -8182841.55344  -6376238.22344  22429622.6054   22429625.2784
 -10441412.99844  -8136165.64344  22275514.6574   22275518.4264
 -26181743.68644 -20401333.79344  20209507.4454   20209509.4424
 -11781550.34144  -9180415.07144  23014300.6414   23014303.6554
  -1070917.42444                  24883293.4254
 -21458441.82944 -16720850.15644  20855744.1434   20855746.1024
  -6346810.745 4  -4945569.847 4  23596307.128    23596303.587
 96  7 11  1 46 30.0000000  0  7G25G31G 3G 1G23G21G28
   -591398.73344   -460829.44144  24193202.4294   24193204.5874
  -8171589.28344  -6367470.22844  22431763.4374   22431765.4924
 -10373272.49744  -8083069.19244  22288481.9714   22288485.5234
 -26185451.12844 -20404222.69744  20208801.9774   20208803.7884
 -11724524.78944  -9135979.59344  23025153.0814   23025155.3584
 -21445619.49344 -16710858.72344  20858184.2874   20858186.2724
  -6244539.369 4  -4865877.959 4  23615768.833    23615765.861
 96  7 11  1 47  0.0000000  0  7G25G31G 3G 1G23G21G28
   -690035.41244   -537689.06944  24174432.0304   24174429.7954
  -8159758.23844  -6358251.24444  22434015.6694   22434017.4284
 -10304746.45744  -8029672.31244  22301522.0834   22301525.5344
 -26188685.09344 -20406742.65844  20208186.6104   20208188.5264
 -11667416.96944  -9091480.01844  23036019.8254   23036022.8174
 -21432632.38944 -16700738.90044  20860655.4514   20860657.4824
  -6142202.198 4  -4786134.780 4  23635243.401    23635240.304
 96  7 11  1 47 30.0000000  0  8G25G31G 3G 1G23G15G21G28
   -788675.87944   -614551.64344  24155661.1634   24155667.0304
  -8147332.14044  -6348568.59944  22436379.5834   22436381.0064
 -10235822.54744  -7975965.40444  22314638.0124   22314640.4534
 -26191444.46044 -20408892.80244  20207661.4674   20207663.2914
 -11610210.29844  -9046903.39344  23046905.9254   23046908.2894
        -1.15054                  24822106.0334
 -21419473.81744 -16690485.47344  20863159.4924   20863161.5394
  -6039796.405 4  -4706338.159 4  23654730.802    23654727.536
 96  7 11  1 48  0.0000000  0  7G25G31G 3G 1G23G21G28
   -887321.18044   -691417.97444  24136889.5654   24136893.0564
  -8134317.46544  -6338427.55344  22438856.3174   22438858.1264
 -10166514.12144  -7921958.87344  22327827.5084   22327829.5594
 -26193733.76844 -20410676.66444  20207225.9454   20207227.5654
 -11552923.78544  -9002264.56744  23057806.3154   23057809.4294
 -21406146.92644 -16680100.88944  20865695.6024   20865697.7744
  -5937345.253 4  -4626506.180 4  23674226.636    23674223.117
 96  7 11  1 48 30.0000000  0  7G25G31G 3G 1G23G21G28
   -985957.23544   -768277.11244  24118119.6604   24118125.9274
  -8120705.49244  -6327820.52144  22441447.1394   22441449.3984
 -10096822.97944  -7867654.10544  22341088.8854   22341090.6464
 -26195525.70944 -20412072.96844  20206884.7194   20206886.6234
 -11495548.77044  -8957556.78744  23068724.7564   23068727.2204
 -21392635.13944 -16669572.22444  20868266.6724   20868268.8674
  -5834845.859 4  -4546636.612 4  23693731.829    23693727.684
 96  7 11  1 49  0.0000000  0  7G25G31G 3G 1G23G21G28
  -1084569.67044   -845117.84644  24099354.5004   24099357.6964
  -8106498.76944  -6316750.38244  22444150.4554   22444152.8704
 -10026752.05544  -7813053.40444  22354423.0464   22354425.1134
 -26196796.60544 -20413063.26144  20206642.8114   20206644.7304
 -11438058.56844  -8912759.25644  23079664.9754   23079668.0804
 -21378902.61544 -16658871.55844  20870879.9414   20870881.9434
  -5732283.116 4  -4466717.682 4  23713249.073    23713244.822
 96  7 11  1 49 30.0000000  0  7G25G31G 3G 1G23G21G28
  -1183192.34644   -921966.53444  24080587.1654   24080591.2124
  -8091743.55444  -6305252.82344  22446958.4394   22446960.7724
  -9956331.40344  -7758180.19544  22367823.2644   22367826.7044
 -26197560.35344 -20413658.37944  20206497.5234   20206499.3074
 -11380491.22144  -8867901.59744  23090619.8494   23090623.1584
 -21364942.87144 -16647993.83644  20873536.6544   20873538.8154
  -5629680.076 4  -4386767.360 4  23732774.013    23732769.689
 96  7 11  1 50  0.0000000  0  7G25G31G 3G 1G23G21G28
  -1281853.99744   -998845.64544  24061812.4044   24061815.4904
  -8076488.68544  -6293365.93144  22449861.3254   22449863.3284
  -9885601.53944  -7703066.04944  22381281.8404   22381285.9384
 -26197848.56044 -20413882.94144  20206442.7504   20206444.5204
 -11322881.12144  -8823010.62044  23101583.0384   23101586.2354
 -21350775.83044 -16636954.58444  20876232.4704   20876234.5434
  -5527067.645 4  -4306809.721 4  23752300.536    23752296.262
 96  7 11  1 50 30.0000000  0  7G25G31G 3G 1G23G21G28
  -1380558.02644  -1075757.73744  24043029.3634   24043032.5574
  -8060755.28244  -6281106.15844  22452854.8014   22452856.9654
  -9814578.84544  -7647723.72544  22394797.0574   22394802.1284
 -26197679.57344 -20413751.25344  20206474.9134   20206476.6864
 -11265219.66244  -8778079.63944  23112555.5044   23112557.8764
 -21336402.99444 -16625754.97744  20878967.4134   20878969.6224
  -5424446.428 4  -4226845.232 4  23771828.536    23771824.536
 96  7 11  1 51  0.0000000  0  7G25G31G 3G 1G23G21G28
  -1479281.96144  -1152685.37644  24024243.2984   24024247.4214
  -8044538.11944  -6268469.41344  22455940.7264   22455943.8344
  -9743254.73144  -7592146.52744  22408369.9214   22408373.9324
 -26197060.71244 -20413269.01044  20206592.6444   20206594.4574
 -11207502.35344  -8733105.12344  23123539.1624   23123541.4434
 -21321826.87844 -16614396.97144  20881741.0694   20881742.9164
  -5321807.462 4  -4146866.903 4  23791360.074    23791356.276
 96  7 11  1 51 30.0000000  0  7G25G31G 3G 1G23G21G28
  -1577977.58744  -1229590.96044  24005461.8904   24005465.0694
  -8027807.25044  -6255432.38844  22459125.0484   22459127.3274
  -9671591.32744  -7536304.96644  22422007.3154   22422010.5984
 -26195970.07244 -20412419.15144  20206800.1584   20206801.9084
 -11149711.19644  -8688073.08944  23134536.0534   23134537.4514
 -21307052.18344 -16602884.21944  20884552.7994   20884554.7664
  -5219129.875 4  -4066858.499 4  23810899.010    23810895.127
 96  7 11  1 52  0.0000000  0  7G25G31G 3G 1G23G21G28
  -1676660.61644  -1306486.72144  23986683.0284   23986686.8464
  -8010583.68344  -6242011.44544  22462402.7354   22462404.8534
  -9599620.27144  -7480223.64944  22435703.7664   22435706.1754
 -26194440.25344 -20411227.07244  20207091.1284   20207092.9484
 -11091864.82644  -8642998.01044  23145543.4504   23145546.5054
 -21292134.62944 -16591260.15544  20887391.3164   20887393.4224
  -5116452.125 4  -3986849.948 4  23830437.625    23830434.325
 96  7 11  1 52 30.0000000  0  7G25G31G 3G 1G23G21G28
  -1775297.76744  -1383346.73244  23967913.1554   23967918.8684
  -7992816.09444  -6228166.57044  22465783.8254   22465785.5864
  -9527295.66444  -7423866.84144  22449467.0364   22449469.2764
 -26192426.64644 -20409658.01644  20207474.3744   20207476.2794
 -11033926.41444  -8597851.21744  23156568.5684   23156571.9984
 -21277047.22444 -16579503.73444  20890262.3684   20890264.5514
  -5013735.413 4  -3906811.037 4  23849983.978    23849980.588
 96  7 11  1 53  0.0000000  0  7G25G31G 3G 1G23G21G28
  -1873883.58344  -1460166.74444  23949152.3504   23949155.5164
  -7974486.02544  -6213883.41744  22469271.9344   22469274.2044
  -9454598.19444  -7367219.48844  22463300.3544   22463302.9544
 -26189905.34844 -20407693.35744  20207954.2784   20207956.0854
 -10975899.37144  -8552635.34644  23167611.2144   23167614.2704
 -21261789.44744 -16567614.55844  20893165.7004   20893167.8874
  -4910977.215 4  -3826739.826 4  23869538.039    23869534.561
 96  7 11  1 53 30.0000000  0  8G25G31G 3G 1G23G15G21G28
  -1972408.01344  -1536938.91244  23930404.3494   23930408.1004
  -7955564.32144  -6199139.24644  22472872.1054   22472875.1174
  -9381503.68244  -7310262.76044  22477209.3944   22477212.0534
 -26186844.22644 -20405308.05544  20208536.6574   20208538.5674
 -10917745.62444  -8507320.74744  23178677.5784   23178679.8914
        -1.22154                  24577351.6584
 -21246322.51144 -16555562.39644  20896109.2584   20896111.3424
  -4808157.732 4  -3746620.874 4  23889104.278    23889100.816
 96  7 11  1 54  0.0000000  0  8G25G31G 3G 1G23G15G21G28
  -2070942.62544  -1613719.02244  23911653.1154   23911656.1984
  -7936113.28144  -6183982.61244  22476573.5594   22476576.4814
  -9308076.69744  -7253046.96844  22491181.7394   22491185.2204
 -26183304.13744 -20402549.53244  20209210.4134   20209212.2774
 -10859511.12044  -8461943.22544  23189759.5824   23189762.7444
   -107066.77944                  24556980.1354
 -21230681.48844 -16543374.58744  20899085.3584   20899087.4454
  -4705334.352 4  -3666498.854 4  23908671.259    23908667.548
 96  7 11  1 54 30.0000000  0  8G25G31G 3G 1G23G15G21G28
  -2169503.25344  -1690519.39344  23892897.3264   23892900.1674
  -7916146.26444  -6168423.90444  22480372.9674   22480374.9164
  -9234328.54344  -7195580.90844  22505215.9694   22505218.5674
 -26179302.01444 -20399430.98444  20209972.0214   20209973.9224
 -10801200.23244  -8416506.19144  23200855.7694   23200859.1584
   -214126.48444                  24536608.6814
 -21214875.31344 -16531058.09044  20902093.4454   20902095.2714
  -4602517.094 4  -3586381.632 4  23928236.729    23928232.857
 96  7 11  1 55  0.0000000  0  8G25G31G 3G 1G23G15G21G28
  -2268069.20344  -1767323.90944  23874141.2464   23874144.3304
  -7895652.32444  -6152454.61344  22484273.4034   22484275.2724
  -9160260.08044  -7137865.25744  22519310.4504   22519314.2594
 -26174826.61644 -20395943.65144  20210823.5014   20210825.4164
 -10742796.76344  -8370997.02644  23211969.3464   23211972.4654
   -321170.16844                  24516236.7434
 -21198883.02944 -16518596.56644  20905136.5244   20905138.5884
  -4499701.098 4  -3506265.379 4  23947802.152    23947798.840
 96  7 11  1 55 30.0000000  0  8G25G31G 3G 1G23G15G21G28
  -2366604.39844  -1844104.48644  23855390.5084   23855393.6764
  -7874611.92144  -6136059.50744  22488277.3734   22488278.9654
  -9085854.88944  -7079887.22644  22533469.4294   22533472.5354
 -26169863.27344 -20392076.10144  20211768.1114   20211769.8134
 -10684272.06944  -8325393.37444  23223105.8314   23223109.0514
   -428165.25944                  24495876.2714
 -21182660.69344 -16505955.78644  20908223.6444   20908225.6144
  -4396859.378 4  -3426129.068 4  23967372.626    23967369.378
 96  7 11  1 56  0.0000000  0  8G25G31G 3G 1G23G15G21G28
  -2465117.30344  -1920867.69844  23836642.9264   23836646.9214
  -7853054.33444  -6119261.39544  22492379.7674   22492381.3224
  -9011143.85044  -7021670.85844  22547686.4254   22547690.0464
 -26164446.60344 -20387855.30744  20212798.7314   20212800.4674
 -10625669.84944  -8279729.31644  23234258.3784   23234260.2574
   -535133.71844                  24475518.0304
 -21166234.26044 -16493155.96844  20911349.2664   20911351.2144
  -4294018.638 4  -3345993.534 4  23986943.108    23986939.373
 96  7 11  1 56 30.0000000  0  8G25G31G 3G 1G23G15G21G28
  -2563598.66044  -1997606.34244  23817903.7684   23817907.1514
  -7830977.45944  -6102058.64944  22496580.5504   22496583.0324
  -8936135.90244  -6963223.14644  22561959.9324   22561963.2744
 -26158584.41644 -20383287.35544  20213914.4014   20213916.2084
 -10566997.69244  -8234010.77344  23245423.3844   23245424.3944
   -642078.65744                  24455163.2224
 -21149611.63044 -16480203.26744  20914512.8524   20914514.6394
  -4191187.088 4  -3265865.182 4  24006511.803    24006507.716
 96  7 11  1 57  0.0000000  0  7G25G31G 3G 1G23G21G28
  -2662033.44044  -2074308.68244  23799171.8614   23799173.4114
  -7808383.28144  -6084452.79644  22500879.8104   22500881.5824
  -8860837.03444  -6904548.74044  22576289.3694   22576291.5324
 -26152272.14644 -20378368.69344  20215115.3324   20215117.3054
 -10508264.26944  -8188244.48544  23256599.5104   23256601.8374
 -21132773.52944 -16467082.66844  20917716.8604   20917718.8424
  -4088367.125 4  -3185745.861 4  24026077.638    24026073.626
 96  7 11  1 57 30.0000000  0  7G25G31G 3G 1G23G21G28
  -2760428.97044  -2150980.43844  23780447.8944   23780450.2514
  -7785275.99244  -6066447.13744  22505277.0204   22505279.6414
  -8785247.34444  -6845647.71844  22590674.1624   22590677.2224
 -26145519.31744 -20373106.73444  20216400.6324   20216402.2244
 -10449467.01444  -8142428.44044  23267788.3164   23267791.4854
 -21115719.16544 -16453793.55544  20920962.0454   20920964.0564
  -3985560.206 4  -3105636.693 4  24045641.299    24045637.017
 96  7 11  1 58  0.0000000  0  7G25G31G 3G 1G23G21G28
  -2858786.71544  -2227622.76444  23761730.8164   23761735.2624
  -7761641.39444  -6048030.60144  22509774.5204   22509776.2674
  -8709365.95444  -6786519.39344  22605113.7404   22605116.5624
 -26138329.11944 -20367503.97444  20217768.7974   20217770.7584
 -10390582.18144  -8096544.17744  23278993.4954   23278996.1934
 -21098458.93644 -16440344.03244  20924246.4464   20924248.5124
  -3882770.573 4  -3025541.000 4  24065201.786    24065197.241
 96  7 11  1 58 30.0000000  0  7G25G31G 3G 1G23G21G28
  -2957128.28244  -2304252.48844  23743017.3884   23743021.1484
  -7737495.24944  -6029215.42544  22514369.4334   22514371.6094
  -8633200.10244  -6727169.41644  22619607.4514   22619610.7844
 -26130701.04644 -20361560.01244  20219220.1974   20219221.9084
 -10331609.53344  -8050591.47944  23290215.7234   23290217.5084
 -21081019.64544 -16426754.97644  20927565.1754   20927567.1994
  -3780016.423 4  -2945472.969 4  24084755.019    24084750.604
 96  7 11  1 59  0.0000000  0  7G25G31G 3G 1G23G21G28
  -3055406.94744  -2380833.19944  23724315.2434   23724318.1024
  -7712788.17844  -6009963.17144  22519071.3814   22519073.0984
  -8556700.85644  -6667559.66944  22634164.0394   22634167.7584
 -26122566.55644 -20355221.43944  20220768.4024   20220770.0794
 -10272503.56844  -8004534.92044  23301462.6794   23301464.5944
 -21063352.43844 -16412988.32344  20930927.2944   20930929.3024
  -3677250.330 4  -2865395.596 4  24104310.458    24104306.251
 96  7 11  1 59 30.0000000  0  7G25G31G 3G 1G23G21G28
  -3153659.30844  -2457393.38744  23705618.6084   23705621.7584
  -7687552.56644  -5990299.06244  22523873.3254   22523875.9324
  -8479904.61044  -6607718.49844  22648778.1874   22648781.7544
 -26113955.02644 -20348511.14444  20222406.7544   20222408.7584
 -10213297.22444  -7958400.12244  23312729.4984   23312732.6934
 -21045503.51344 -16399080.07144  20934323.5744   20934325.7274
  -3574508.045 4  -2785336.777 4  24123861.718    24123857.533
 96  7 11  2  0  0.0000000  0  8G25G31G 3G 1G23G15G21G28
  -3251875.89344  -2533925.72344  23686928.4214   23686930.4774
  -7661803.80744  -5970235.09744  22528773.0004   22528775.8164
  -8402823.03344  -6547654.97544  22663446.7284   22663449.8854
 -26104858.81944 -20341423.18144  20224137.9814   20224139.7534
 -10154012.24644  -7912204.04144  23324011.3934   23324014.5194
        -0.66354                  24312876.7434
 -21027486.57844 -16385040.90044  20937752.2074   20937754.1274
  -3471798.551 4  -2705303.521 4  24143407.251    24143402.736
 96  7 11  2  0 30.0000000  0  8G25G31G 3G 1G23G15G21G28
  -3350050.62244  -2610425.41744  23668247.1634   23668249.0574
  -7635570.83944  -5949793.84044  22533764.9674   22533768.1644
  -8325470.50844  -6487380.31944  22678167.0674   22678169.5814
 -26095271.13944 -20333952.25144  20225962.4534   20225964.0024
 -10094681.67744  -7865972.42944  23335302.0914   23335304.6884
   -106661.34144                  24292579.0984
 -21009290.67644 -16370862.27644  20941214.6704   20941216.7644
  -3369125.589 4  -2625298.743 4  24162945.271    24162940.666
 96  7 11  2  1  0.0000000  0  8G25G31G 3G 1G23G15G21G28
  -3448206.64244  -2686910.53744  23649568.1254   23649571.0584
  -7608890.33444  -5929003.84844  22538843.1154   22538844.3154
  -8247885.52844  -6426924.52344  22692930.9744   22692933.7734
 -26085240.95544 -20326136.50844  20227871.0264   20227872.8424
 -10035333.10744  -7819726.80844  23346595.1544   23346597.1564
   -213309.77544                  24272284.8104
 -20990928.58644 -16356554.15644  20944709.1164   20944711.1924
  -3266518.301 4  -2545345.130 4  24182470.652    24182466.718
 96  7 11  2  1 30.0000000  0  8G25G31G 3G 1G23G15G21G28
  -3546320.05944  -2763362.47544  23630897.3734   23630900.5414
  -7581758.83844  -5907862.43644  22544005.7084   22544008.5144
  -8170053.20144  -6366275.99344  22707740.8744   22707743.9754
 -26074780.86044 -20317985.77644  20229861.5084   20229863.2524
  -9975943.05144  -7773448.81444  23357896.6004   23357899.9094
   -319932.36344                  24251996.8234
 -20972393.35144 -16342111.11244  20948236.5454   20948238.2344
  -3163968.289 4  -2465436.144 4  24201985.366    24201981.313
 96  7 11  2  2  0.0000000  0  8G25G31G 3G 1G23G15G21G28
  -3644342.40144  -2839743.48644  23612244.5004   23612247.1164
  -7554131.15744  -5886334.39144  22549262.6154   22549265.7984
  -8091921.19944  -6305393.97444  22722608.8904   22722612.2124
 -26063862.07744 -20309477.61844  20231939.4104   20231941.2254
  -9916459.80644  -7727098.29144  23369216.1724   23369219.5404
   -426483.27044   -332323.35544  24231721.2054
 -20953635.43344 -16327494.55444  20951805.7594   20951807.7244
  -3061434.907 4  -2385540.124 4  24221497.148    24221492.894
 96  7 11  2  2 30.0000000  0  8G25G31G 3G 1G23G15G21G28
  -3742244.80744  -2916031.00244  23593614.2414   23593616.4044
  -7525977.74744  -5864396.69144  22554620.6064   22554622.9314
  -8013466.46544  -6244260.44744  22737538.3854   22737542.1524
 -26052483.51944 -20300611.20244  20234104.6404   20234106.4224
  -9856848.82344  -7680648.21344  23380559.6044   23380562.2314
   -532939.50044                  24211465.4394
 -20934630.66844 -16312685.64744  20955422.3134   20955424.2404
  -2958900.230 4  -2305643.079 4  24241009.157    24241004.418
 96  7 11  2  3  0.0000000  0  8G25G31G 3G 1G23G15G21G28
  -3840021.77144  -2992220.76744  23575007.6554   23575009.7784
  -7497273.84544  -5842030.03144  22560082.9004   22560084.5764
  -7934687.13244  -6182874.01144  22752530.0554   22752533.5414
 -26040647.37044 -20291388.21844  20236357.0144   20236358.6804
  -9797093.65044  -7634085.74144  23391930.7034   23391933.8384
   -639297.99844   -498152.93244  24191224.3034
 -20915401.74944 -16297702.07644  20959081.4814   20959083.3814
  -2856366.538 4  -2225746.817 4  24260521.054    24260516.251
 96  7 11  2  3 30.0000000  0  8G25G31G 3G 1G23G15G21G28
  -3937703.96144  -3068336.66044  23556419.4204   23556422.8934
  -7468044.92644  -5819254.26444  22565644.4074   22565646.8714
  -7855622.32644  -6121265.13744  22767576.0814   22767580.3474
 -26028370.77744 -20281822.03544  20238693.0034   20238694.9464
  -9737225.07344  -7587434.92044  23403323.4934   23403324.0524
   -745586.96544   -580975.41744  24170997.3834
 -20895981.26544 -16282569.22744  20962776.9684   20962778.9034
  -2753867.230 4  -2145877.344 4  24280026.032    24280021.405
 96  7 11  2  4  0.0000000  0  8G25G31G 3G 1G23G15G21G28
  -4035292.13644  -3144379.28944  23537848.8614   23537852.2654
  -7438288.69444  -5796067.61144  22571307.3574   22571308.9374
  -7776287.12644  -6059445.55544  22782673.1244   22782677.1824
 -26015636.33744 -20271899.08644  20241116.3044   20241118.0604
  -9677246.74444  -7540698.58544  23414737.6304   23414740.6484
   -851795.58044                  24150785.7674
 -20876348.92444 -16267271.30044  20966512.8414   20966514.7704
  -2651396.247 4  -2066029.941 4  24299525.967    24299520.768
 96  7 11  2  4 30.0000000  0  8G25G31G 3G 1G23G15G21G28
  -4132807.30444  -3220365.05844  23519292.2234   23519296.1094
  -7408031.21944  -5772490.37644  22577064.8354   22577066.9714
  -7696716.39644  -5997442.43044  22797815.4424   22797818.5684
 -26002453.93044 -20261627.07344  20243624.7844   20243626.6354
  -9617172.55744  -7493887.55244  23426169.0304   23426172.2594
   -957941.40144                  24130584.3134
 -20856531.86544 -16251829.43144  20970283.9174   20970286.1504
  -2548976.368 4  -1986222.370 4  24319015.843    24319010.898
 96  7 11  2  5  0.0000000  0  8G25G31G 3G 1G23G15G21G28
  -4230267.91044  -3296308.28744  23500746.2584   23500749.1904
  -7377281.75744  -5748529.77244  22582916.5264   22582919.0594
  -7616915.19244  -5935259.71644  22813001.2984   22813004.1304
 -25988817.22344 -20251001.05644  20246219.8254   20246221.5174
  -9557004.74944  -7447003.56544  23437618.7114   23437621.4274
  -1064024.68644                  24110398.0334
 -20836519.72244 -16236235.55244  20974091.9814   20974094.0684
  -2446612.809 4  -1906458.670 4  24338495.008    24338490.220
 96  7 11  2  5 30.0000000  0  8G25G31G 3G 1G23G15G21G28
  -4327686.28944  -3372218.63744  23482207.8274   23482211.0584
  -7346062.83544  -5724203.35544  22588857.0934   22588859.4734
  -7536886.72444  -5872899.92744  22828229.0874   22828232.5994
 -25974740.96344 -20240032.53544  20248898.6314   20248900.0854
  -9496765.47744  -7400063.91844  23449081.4724   23449084.6344
  -1170052.45444                  24090220.8664
 -20816303.15844 -16220482.38344  20977939.1544   20977940.8864
  -2344317.417 4  -1826748.099 4  24357961.262    24357956.486
 96  7 11  2  6  0.0000000  0  8G25G31G 3G 1G23G15G21G28
  -4425045.44644  -3448082.83044  23463681.2574   23463684.5544
  -7314358.81544  -5699498.95044  22594889.0184   22594891.9264
  -7456613.24944  -5810349.21144  22843504.4164   22843508.4134
 -25960223.90544 -20228720.53144  20251660.8154   20251662.5454
  -9436450.58844  -7353065.33644  23460559.1624   23460561.8614
  -1276012.48044   -994293.91344  24070057.5044
 -20795879.41544 -16204567.77544  20981825.8634   20981827.7254
  -2242083.482 4  -1747085.427 4  24377415.850    24377410.611
 96  7 11  2  6 30.0000000  0  8G21G25G31G 3G 1G23G15G28
 -20775237.05044 -16188482.81844  20985753.6554   20985755.9484
  -4522328.54044  -3523887.75344  23445167.5454   23445171.6464
  -7282146.17444  -5674398.21344  22601019.7294   22601021.9614
  -7376070.78344  -5747588.89944  22858830.6334   22858833.9184
 -25945257.55144 -20217058.42644  20254508.8394   20254510.6964
  -9376049.15444  -7305999.29844  23472053.5934   23472056.9114
  -1381890.61444                  24049908.6464
  -2139902.156 4  -1667463.740 4  24396859.901    24396855.227
 96  7 11  2  7  0.0000000  0  8G21G25G31G 3G 1G23G15G28
 -20754395.94344 -16172242.99544  20989719.8624   20989721.9104
  -4619556.95544  -3599650.06344  23426666.1784   23426670.5284
  -7249455.02444  -5648924.61144  22607240.6124   22607242.9674
  -7295289.19244  -5684642.27144  22874202.9904   22874207.6674
 -25929860.13744 -20205060.43344  20257438.8634   20257440.7334
  -9315600.14444  -7258896.20444  23483556.2204   23483559.8604
  -1487710.26044                  24029771.8484
  -2037801.666 4  -1587905.028 4  24416288.691    24416284.503
 96  7 11  2  7 30.0000000  0  8G21G25G31G 3G 1G23G15G28
 -20733363.88844 -16155854.37744  20993721.8514   20993724.2234
  -4716704.76444  -3675349.56444  23408179.5124   23408182.4774
  -7216270.83044  -5623066.82844  22613555.9044   22613558.6014
  -7214262.63344  -5621504.75944  22889623.2344   22889626.6874
 -25914022.60644 -20192719.48544  20260452.8314   20260454.3264
  -9255095.70644  -7211749.92544  23495069.7954   23495072.7414
  -1593457.74244                  24009650.5724
  -1935773.342 4  -1508402.559 4  24435704.511    24435699.955
 96  7 11  2  8  0.0000000  0  8G21G25G31G 3G 1G23G15G28
 -20712160.63244 -16139332.36144  20997756.9264   20997758.7204
  -4813787.07144  -3750998.04344  23389705.3504   23389709.4264
  -7182613.40044  -5596840.27944  22619960.4534   22619963.2414
  -7133023.45644  -5558201.55944  22905083.1374   22905084.5874
 -25897768.81844 -20180054.18444  20263545.7584   20263547.5664
  -9194541.48444  -7164564.84744  23506593.1684   23506597.1794
  -1699149.37844                  23989538.5254
  -1833838.694 4  -1428973.078 4  24455102.251    24455097.622
 96  7 11  2  8 30.0000000  0  8G21G25G31G 3G 1G23G15G28
 -20690757.19144 -16122654.35344  21001830.0044   21001831.7514
  -4910766.63744  -3826566.44744  23371250.7854   23371253.3334
  -7148468.71044  -5570234.05144  22626458.1744   22626461.1774
  -7051545.31944  -5494712.13644  22920587.9614   22920589.5754
 -25881064.64244 -20167037.93044  20266724.3904   20266725.9164
  -9133898.54744  -7117310.65144  23518132.6414   23518135.3294
  -1804752.74044                  23969441.7174
  -1731970.423 4  -1349595.337 4  24474487.192    24474482.621
 96  7 11  2  9  0.0000000  0  8G21G25G31G 3G 1G23G15G28
 -20669165.31844 -16105829.51644  21005938.7864   21005940.8374
  -5007629.32144  -3902043.78444  23352818.2064   23352821.4224
  -7113847.88844  -5543256.81244  22633045.8044   22633047.4354
  -6969827.70344  -5431036.13244  22936137.3594   22936140.5204
 -25863920.05044 -20153678.49844  20269986.8524   20269988.3224
  -9073154.97844  -7069978.03144  23529692.2534   23529694.4454
  -1910264.15344                  23949363.2334
  -1630170.007 4  -1270270.470 4  24493859.265    24493854.679
 96  7 11  2  9 30.0000000  0  8G21G25G31G 3G 1G23G15G28
 -20647401.96844 -16088871.06244  21010079.9204   21010082.2984
  -5104391.50244  -3977442.80444  23334405.0804   23334407.8954
  -7078773.57844  -5515926.19444  22639720.6134   22639723.2134
  -6887878.90444  -5367179.97344  22951731.4864   22951735.0754
 -25846376.96744 -20140008.54844  20273325.2844   20273326.8114
  -9012321.36944  -7022575.23344  23541268.9054   23541270.6414
  -2015699.79644  -1570673.36544  23929298.6084
  -1528458.469 4  -1191014.839 4  24513214.664    24513209.743
 96  7 11  2 10  0.0000000  0  8G21G25G31G 3G 1G23G15G28
 -20625443.76544 -16071760.77644  21014258.6594   21014260.7644
  -5201043.23444  -4052755.74244  23316012.8004   23316016.0054
  -7043252.01544  -5488247.07644  22646480.1824   22646482.7884
  -6805695.70644  -5303141.16644  22967370.9394   22967375.4074
 -25828429.36344 -20126023.39244  20276740.5764   20276742.3374
  -8951389.29944  -6975095.72944  23552863.6604   23552866.7894
  -2121050.49644  -1652764.84544  23909252.3214
  -1426832.083 4  -1111825.567 4  24532553.932    24532548.818
 96  7 11  2 10 30.0000000  0  8G21G25G31G 3G 1G23G15G28
 -20603244.03244 -16054462.28144  21018482.8164   21018484.9004
  -5297516.96544  -4127930.00944  23297654.9794   23297656.9634
  -7007230.40644  -5460178.32744  22653334.4354   22653337.3454
  -6723231.17644  -5238883.15344  22983062.7124   22983066.5024
 -25810009.45444 -20111670.20444  20280245.7114   20280247.3714
  -8890304.60344  -6927497.27144  23564487.5334   23564490.6414
  -2226261.20144  -1734747.15144  23889232.0604   23889233.4774
  -1325240.955 4  -1032663.753 4  24551886.404    24551880.743
 96  7 11  2 11  0.0000000  0  8G21G25G31G 3G 1G23G15G28
 -20580826.42044 -16036994.01144  21022749.0574   21022751.0964
  -5393855.78744  -4202999.13944  23279322.0334   23279324.3744
  -6970735.91144  -5431741.08944  22660279.5344   22660281.2684
  -6640529.16344  -5174440.09244  22998800.5374   22998804.5214
 -25791148.55744 -20096973.39144  20283834.9374   20283836.6754
  -8829113.28844  -6879815.76844  23576132.4534   23576134.6024
  -2331362.30244  -1816644.02144  23869231.6024   23869235.4974
  -1223720.955 4   -953557.398 4  24571205.163    24571199.539
 96  7 11  2 11 30.0000000  0  8G21G25G31G 3G 1G23G15G28
 -20558192.05544 -16019356.84444  21027056.1554   21027058.1054
  -5490079.19644  -4277978.34344  23261011.4134   23261014.6124
  -6933781.33344  -5402945.33044  22667311.1184   22667314.3124
  -6557618.07144  -5109834.10544  23014578.5014   23014581.5114
 -25771846.24044 -20081932.61444  20287507.9844   20287509.6964
  -8767832.56144  -6832064.56244  23587793.4664   23587797.1324
  -2436366.66644  -1898465.56544  23849251.1914   23849252.2614
  -1122289.234 4   -874519.843 4  24590506.906    24590501.782
 96  7 11  2 12  0.0000000  0  8G21G25G31G 3G 1G23G15G28
 -20535339.26744 -16001549.48444  21031404.8814   21031406.9164
  -5586170.33144  -4352854.47144  23242725.4024   23242728.6614
  -6896352.52844  -5373780.04444  22674433.5564   22674436.7814
  -6474518.53144  -5045081.26544  23030391.9354   23030394.4524
 -25752082.83644 -20066532.54944  20291268.8814   20291270.4114
  -8706449.31544  -6784233.49644  23599474.5994   23599476.3844
  -2541264.15344  -1980203.79544  23829288.4414   23829290.7404
  -1020941.326 4   -795547.563 4  24609792.636    24609787.848
 96  7 11  2 12 30.0000000  0  8G21G25G31G 3G 1G23G15G28
 -20512287.93244 -15983587.40944  21035791.3194   21035793.1454
  -5682149.73944  -4427643.54844  23224461.2694   23224463.7184
  -6858456.44844  -5344250.66144  22681645.3834   22681648.5994
  -6391245.17244  -4980192.98644  23046238.7384   23046241.8754
 -25731873.30744 -20050784.85344  20295114.6304   20295116.4544
  -8644969.86344  -6736327.47944  23611173.5074   23611175.8214
  -2646063.04044  -2061865.21144  23809345.7154   23809348.6444
   -919690.373 4   -716650.842 4  24629060.185    24629055.402
 96  7 11  2 13  0.0000000  0  8G21G25G31G 3G 1G23G15G28
 -20489047.17544 -15965477.73544  21040214.0904   21040216.1104
  -5778042.85544  -4502365.37944  23206213.1044   23206215.9644
  -6820110.80944  -5314370.96244  22688942.4454   22688945.0674
  -6307813.54444  -4915181.39144  23062114.6114   23062118.3914
 -25711255.61044 -20034719.10444  20299037.9794   20299039.6524
  -8583420.27144  -6688366.77344  23622885.8024   23622888.9824
  -2750781.74344  -2143464.15444  23789417.9714   23789421.5344
   -818559.817 4   -637847.937 4  24648304.959    24648299.860
 96  7 11  2 13 30.0000000  0  8G21G25G31G 3G 1G23G15G28
 -20465596.87144 -15947204.77744  21044676.8834   21044678.5414
  -5873824.40744  -4577000.27944  23187986.2844   23187989.4394
  -6781292.74844  -5284123.13444  22696329.6014   22696330.8204
  -6224200.32244  -4850028.30644  23078025.7934   23078030.1664
 -25690227.03144 -20018333.18944  20303039.6134   20303041.3724
  -8521770.09744  -6640327.70244  23634617.6364   23634619.5074
  -2855398.35744  -2224983.50744  23769508.8604   23769511.2134
   -717532.732 4   -559125.674 4  24667529.695    24667524.672
 96  7 11  2 14  0.0000000  0  8G21G25G31G 3G 1G23G15G28
 -20441930.01344 -15928763.07144  21049180.5344   21049182.4764
  -5969492.34444  -4651546.63644  23169781.0674   23169784.5174
  -6741988.43344  -5253496.41344  22703808.8074   22703810.8234
  -6140394.56344  -4784725.18144  23093973.2334   23093976.4024
 -25668794.19644 -20001632.26944  20307118.2194   20307119.8044
  -8460025.03744  -6592214.67444  23646366.8084   23646370.5724
  -2959908.25544  -2306419.71844  23749621.4224   23749624.1594
   -616610.150 4   -480484.831 4  24686734.971    24686729.441
 96  7 11  2 14 30.0000000  0  8G21G25G31G 3G 1G23G15G28
 -20418043.24044 -15910150.00844  21053725.5284   21053727.5054
  -6065051.67444  -4726008.37144  23151597.1584   23151599.8024
  -6702211.29744  -5222501.24944  22711378.4154   22711380.9384
  -6056372.88644  -4719253.83044  23109961.4294   23109966.3524
 -25646963.72844 -19984621.50144  20311272.1744   20311274.0034
  -8398205.64144  -6544043.73544  23658130.7774   23658134.0774
  -3064314.91244  -2387775.52144  23729751.5444   23729757.9184
   -515800.640 4   -401932.070 4  24705918.390    24705913.058
 96  7 11  2 15  0.0000000  0  8G21G25G31G 3G 1G23G15G28
 -20393923.69244 -15891355.55844  21058315.4974   21058317.6764
  -6160474.47544  -4800363.72144  23133439.0874   23133441.9654
  -6661951.44544  -5191129.96644  22719039.2864   22719042.2244
  -5972117.62244  -4653600.45644  23125995.9974   23125999.5814
 -25624728.60444 -19967295.41944  20315503.4394   20315505.2374
  -8336303.10444  -6495808.00944  23669911.0044   23669915.0684
  -3168601.63844  -2469037.84144  23709908.0754
   -415092.517 4   -323458.325 4  24725082.880    24725077.645
 96  7 11  2 15 30.0000000  0  8G21G25G31G 3G 1G23G15G28
 -20369585.42244 -15872390.67744  21062947.0164   21062949.0134
  -6255755.99944  -4874609.00844  23115307.2234   23115309.5944
  -6621227.03144  -5159396.67144  22726788.7844   22726790.9994
  -5887628.66744  -4587764.98444  23142072.8054   23142078.6834
 -25602072.16044 -19949641.03544  20319814.8324   20319816.5144
  -8274305.57544  -6447498.30044  23681707.9524   23681710.2604
  -3272759.21944  -2550199.55944  23690088.8594   23690095.7174
   -314481.662 4   -245060.349 4  24744228.422    24744223.268
 96  7 11  2 16  0.0000000  0  8G21G25G31G 3G 1G23G15G28
 -20345066.24644 -15853284.82944  21067613.1204   21067614.6704
  -6350911.84644  -4948756.35644  23097199.6844   23097201.8314
  -6580084.40444  -5127337.49844  22734617.9094   22734620.6484
  -5802937.56844  -4521772.00644  23158189.9234   23158193.3514
 -25579007.91744 -19931668.88744  20324203.8094   20324205.5904
  -8212244.41444  -6399138.96344  23693517.2754   23693518.7634
  -3376810.90844  -2631278.71744  23670288.7654   23670291.7904
   -213996.079 4   -166759.982 4  24763350.394    24763344.938
 96  7 11  2 16 30.0000000  0  8G21G25G31G 3G 1G23G15G28
 -20320374.08544 -15834044.18244  21072311.6924   21072313.4654
  -6445933.79544  -5022799.34344  23079117.2794   23079120.2314
  -6538537.41444  -5094963.23844  22742524.5734   22742527.1674
  -5718045.04644  -4455622.06944  23174345.8974   23174347.2774
 -25555530.18244 -19913374.54144  20328671.4564   20328673.2404
  -8150094.97344  -6350710.85644  23705344.9144   23705347.2644
  -3480742.52844  -2712264.30444  23650512.1264   23650513.0874
   -113627.005 4    -88550.418 4  24782450.161    24782444.670
 96  7 11  2 17  0.0000000  0  8G21G25G31G 3G 1G23G15G28
 -20295510.95844 -15814670.32544  21077042.7614   21077044.7554
  -6540830.47244  -5096744.73744  23061059.1384   23061062.1804
  -6496582.51844  -5062271.12444  22750508.1644   22750510.5284
  -5632978.25644  -4389336.30944  23190534.1284   23190534.7704
 -25531650.71244 -19894767.15244  20333215.4504   20333217.2534
  -8087840.94344  -6302201.25144  23717190.8834   23717194.1584
  -3584549.98444  -2793153.20744  23630757.7414   23630760.9674
    -13375.556 4    -10432.521 4  24801527.488    24801522.303
 96  7 11  2 17 30.0000000  0  8G21G25G31G 3G 1G23G15G28
 -20270434.88844 -15795130.53144  21081814.8864   21081816.5794
  -6635576.74444  -5170572.92944  23043029.4674   23043032.3054
  -6454187.40144  -5029235.98444  22758575.9004   22758578.3534
  -5547723.99444  -4322904.48744  23206756.2564   23206759.1984
 -25507346.29044 -19875828.63544  20337840.4044   20337842.2634
  -8025460.49744  -6253593.14244  23729062.0204   23729062.7024
  -3688207.26044  -2873925.03944  23611031.8774   23611035.0174
     86779.603 4     67610.378 4  24820586.573    24820581.213
 96  7 11  2 18  0.0000000  0  8G21G25G31G 3G 1G23G15G28
 -20245127.75544 -15775410.69344  21086630.4374   21086632.3984
  -6730173.17744  -5244284.35744  23025028.4014   23025031.2344
  -6411344.13244  -4995851.63044  22766728.6074   22766731.5724
  -5462301.81644  -4256341.83544  23223011.2574   23223013.6904
 -25482644.85444 -19856580.75744  20342541.0024   20342542.7304
  -7962963.26344  -6204894.04644  23740954.1344   23740957.0424
  -3791724.12044  -2954587.51944  23591332.8104   23591335.1604
    186823.023 4    145566.187 4  24839624.309    24839618.938
 96  7 11  2 18 30.0000000  0  8G21G25G31G 3G 1G23G15G28
 -20219593.91944 -15755514.19844  21091489.4284   21091491.5594
  -6824627.23444  -5317884.85544  23007054.0444   23007057.1894
  -6368052.91044  -4962118.23644  22774966.7534   22774968.7594
  -5376733.71644  -4189665.47944  23239292.5584   23239296.7594
 -25457568.00844 -19837040.35244  20347312.9874   20347314.7164
  -7900351.17544  -6156105.45044  23752869.7524   23752872.3584
  -3895108.92244  -3035147.03644  23571659.9404   23571662.0904
    286741.886 4    223424.936 4  24858638.179    24858632.781
 96  7 11  2 19  0.0000000  0  8G21G25G31G 3G 1G23G15G28
 -20193829.77444 -15735438.23444  21096392.1804   21096394.2524
  -6918924.32444  -5391363.04444  22989110.0694   22989112.8044
  -6324312.74944  -4928035.00644  22783289.5824   22783292.7794
  -5291036.46544  -4122888.49144  23255600.2614   23255604.7754
 -25432124.41544 -19817214.17044  20352154.7484   20352156.5794
  -7837652.72444  -6107249.55044  23764800.5944   23764804.1714
  -3998369.40044  -3115609.69744  23552009.5264   23552011.8604
    386523.124 4    301176.474 4  24877626.001    24877620.680
 96  7 11  2 19 30.0000000  0  8G21G25G31G 3G 1G23G15G28
 -20167851.43644 -15715195.34144  21101335.5704   21101337.5144
  -7013058.38144  -5464714.18444  22971197.1134   22971200.2574
  -6280142.19144  -4893616.40344  22791694.5094   22791697.6604
  -5205213.48444  -4056013.53244  23271932.8724   23271936.6504
 -25406311.06444 -19797099.87344  20357066.7744   20357068.5514
  -7774880.99144  -6058336.51644  23776746.0214   23776748.9934
  -4101513.95944  -3195982.04944  23532381.5284   23532385.1374
    486153.077 4    378810.087 4  24896584.634    24896579.203
 96  7 11  2 20  0.0000000  0  8G21G25G31G 3G 1G23G15G28
 -20141669.69344 -15694794.07044  21106317.6284   21106319.7324
  -7107019.19644  -5537930.33044  22953316.2914   22953319.4854
  -6235542.43444  -4858863.38344  22800182.0374   22800185.2334
  -5119248.82444  -3989028.17444  23288292.0984   23288296.4754
 -25380114.23944 -19776686.74444  20362051.9804   20362053.5434
  -7712013.95244  -6009349.22844  23788708.8044   23788712.2544
  -4204527.15544  -3276252.03644  23512779.2284   23512781.4004
    585641.951 4    456333.799 4  24915516.865    24915511.874
 96  7 11  2 20 30.0000000  0  8G21G25G31G 3G 1G23G15G28
 -20115312.21244 -15674255.74644  21111333.4674   21111335.3954
  -7200819.50444  -5611021.40644  22935466.8324   22935470.2854
  -6190532.38044  -4823790.64944  22808747.0924   22808750.1914
  -5033147.87944  -3921936.61544  23304678.4554   23304680.3594
 -25353539.10744 -19755978.85144  20367109.1074   20367110.7194
  -7649077.46744  -5960307.84844  23800685.0014   23800688.1164
  -4307420.06544  -3356428.30444  23493199.4724   23493201.1994
    684973.724 4    533735.081 4  24934419.449    24934414.001
 96  7 11  2 21  0.0000000  0  8G21G25G31G 3G 1G23G15G28
 -20088727.98344 -15653540.75544  21116392.3834   21116394.1434
  -7294423.22344  -5683959.29744  22917655.0974   22917657.4504
  -6145075.19144  -4788369.48944  22817397.6374   22817400.2464
  -4946862.05544  -3854700.96244  23321098.1534   23321099.6024
 -25326536.48644 -19734937.84544  20372247.3794   20372249.2594
  -7586031.19444  -5911180.92244  23812682.0754   23812685.6194
  -4410151.36144  -3436478.61544  23473649.7944   23473652.9764
    784184.685 4    611042.177 4  24953299.025    24953293.054
 96  7 11  2 21 30.0000000  0  8G21G25G31G 3G 1G23G15G28
 -20061910.33344 -15632643.87844  21121495.3824   21121497.2474
  -7387835.52444  -5756748.03044  22899878.7714   22899881.2874
  -6099174.72744  -4752602.91744  22826133.1934   22826135.1014
  -4860375.95644  -3787309.25444  23337554.8194   23337557.7944
 -25299093.83644 -19713553.96244  20377469.4854   20377471.2814
  -7522847.40344  -5861946.80044  23824706.3314   23824709.9574
  -4512712.11644  -3516396.03344  23454132.8574   23454136.4484
    883278.693 4    688258.160 4  24972155.851    24972149.965
 96  7 11  2 22  0.0000000  0  8G21G25G31G 3G 1G23G15G28
 -20034880.40544 -15611581.59644  21126638.9774   21126641.0534
  -7481090.16044  -5829413.92244  22882133.3044   22882136.2894
  -6052857.09544  -4716511.29144  22834947.2354   22834948.5034
  -4773731.89444  -3719794.48044  23354040.0244   23354046.8224
 -25271245.53144 -19691853.97744  20382768.9094   20382770.5614
  -7459571.36744  -5812640.80944  23836747.3404   23836751.9514
  -4615131.41944  -3596203.21344  23434643.4914   23434645.0894
    982221.394 4    765356.229 4  24990984.043    24990978.316
 96  7 11  2 22 30.0000000  0  8G21G25G31G 3G 1G23G15G28
 -20007617.13944 -15590337.49544  21131826.9604   21131829.1494
  -7574169.87744  -5901943.50144  22864420.6534   22864423.6904
  -6006114.01644  -4680088.13244  22843841.4754   22843843.6334
  -4686937.97844  -3652162.97544  23370557.0584   23370561.8574
 -25242971.93944 -19669822.60444  20388149.1524   20388150.8484
  -7396209.11144  -5763267.63544  23848805.1654   23848808.1254
  -4717399.27644  -3675892.43344  23415183.7354   23415185.1994
   1081017.912 4    842340.443 4  25009784.439    25009778.735
 96  7 11  2 23  0.0000000  0  8G21G25G31G 3G 1G23G15G28
 -19980116.84744 -15568908.69844  21137060.2194   21137062.4534
  -7667069.92344  -5974333.08244  22846742.4314   22846744.7354
  -5958950.44944  -4643337.33844  22852816.4294   22852818.6984
  -4599998.78444  -3584418.24244  23387102.4314   23387108.3054
 -25214272.52344 -19647459.41844  20393610.6564   20393612.1764
  -7332748.23644  -5713817.62344  23860880.5984   23860883.6214
  -4819502.92444  -3755453.66244  23395753.0254   23395755.4744
   1179675.716 4    919216.555 4  25028558.569    25028552.779
 96  7 11  2 23 30.0000000  0  8G21G25G31G 3G 1G23G15G28
 -19952396.17644 -15547308.17944  21142335.4284   21142337.3674
  -7759791.07544  -6046583.26744  22829098.0504   22829100.5174
  -5911375.89044  -4606266.27844  22861869.3044   22861871.8604
  -4512928.90744  -3516571.65244  23403672.4174   23403674.2764
 -25185163.33444 -19624776.92644  20399149.9154   20399151.5624
  -7269217.03344  -5664312.79744  23872970.5534   23872974.1654
  -4921444.52744  -3834888.62644  23376353.1634   23376357.0684
   1278187.765 4    995979.062 4  25047304.716    25047299.089
 96  7 11  2 24  0.0000000  0  8G21G25G31G 3G 1G23G15G28
 -19924468.21344 -15525546.13444  21147649.9204   21147651.9414
  -7852348.12444  -6118705.58044  22811484.9854   22811487.5334
  -5863406.66544  -4568887.71644  22870997.4304   22871000.5814
  -4425759.94344  -3448647.85344  23420259.4924   23420262.4314
 -25155675.90844 -19601799.70744  20404761.1274   20404762.8464
  -7205656.65344  -5614785.28544  23885065.1094   23885068.1704
  -5023240.40044  -3914210.04344  23356982.4964   23356985.5644
   1376532.368 4   1072611.108 4  25066019.275    25066013.529
 96  7 11  2 24 30.0000000  0  8G21G25G31G 3G 1G23G15G28
 -19896322.71044 -15503614.57644  21153005.9464   21153007.6894
  -7944720.58944  -6190684.06144  22793907.1394   22793909.5284
  -5815036.70444  -4531196.89444  22880201.8974   22880205.0104
  -4338463.89744  -3380625.02344  23436871.7814   23436875.5144
 -25125802.62944 -19578521.82144  20410445.7544   20410447.4714
  -7142026.63844  -5565203.47844  23897174.5874   23897178.8674
  -5124865.67344  -3993398.53244  23337643.5934   23337646.4694
   1474729.198 4   1149128.029 4  25084705.569    25084700.082
 96  7 11  2 25  0.0000000  0  8G21G25G31G 3G 1G23G15G28
 -19867955.41144 -15481510.19144  21158404.0804   21158405.6934
  -8036897.76744  -6262510.36044  22776365.9274   22776368.6894
  -5766252.99344  -4493183.66144  22889485.2424   22889488.3904
  -4251017.39344  -3312484.97544  23453511.5974   23453516.6304
 -25095551.89344 -19554949.81444  20416202.2514   20416204.1314
  -7078298.55844  -5515545.26244  23909300.9414   23909303.9354
  -5226306.20844  -4072443.04844  23318340.1234   23318344.9444
   1572787.323 4   1225536.892 4  25103365.308    25103359.871
 96  7 11  2 25 30.0000000  0  8G21G25G31G 3G 1G23G15G28
 -19839409.82044 -15459266.88144  21163836.1184   21163838.0074
  -8128907.42144  -6334206.12544  22758857.2084   22758860.1264
  -5717082.42844  -4454868.98344  22898841.9484   22898844.9454
  -4163455.21544  -3244254.80344  23470172.4034   23470179.2814
 -25064958.66744 -19531110.93144  20422024.0284   20422025.8794
  -7014500.31544  -5465832.35244  23921441.7224   23921444.5734
  -5327599.94944  -4151373.19844  23299065.2704   23299068.0234
   1670663.927 4   1301804.295 4  25121990.783    25121985.411
 96  7 11  2 26  0.0000000  0  8G21G25G31G 3G 1G23G15G28
 -19810669.56544 -15436871.88544  21169305.2304   21169307.0994
  -8220730.68644  -6405756.65444  22741383.5474   22741385.5234
  -5667505.32544  -4416237.51744  22908276.7504   22908279.5964
  -4075759.03644  -3175920.21844  23486860.4664   23486865.3174
 -25034005.81844 -19506991.82044  20427914.1064   20427915.6624
  -6950573.88744  -5416019.56244  23933606.6184   23933607.6514
  -5428722.65844  -4230170.07844  23279822.7304   23279823.1314
   1768378.380 4   1377945.366 4  25140585.488    25140579.856
 96  7 11  2 26 30.0000000  0  8G21G25G31G 3G 1G23G15G28
 -19781749.55844 -15414336.82044  21174808.5004   21174810.3264
  -8312369.72844  -6477163.63444  22723945.4654   22723947.8764
  -5617530.14344  -4377295.85244  22917786.5354   22917788.9884
  -3987937.97044  -3107488.31244  23503574.3074   23503579.0804
 -25002705.15744 -19482601.68944  20433870.4284   20433872.1104
  -6886505.13244  -5366095.86444  23945798.7644   23945802.6344
  -5529678.90744  -4308837.25644  23260610.9444   23260613.6384
   1865920.855 4   1453952.440 4  25159147.282    25159141.536
 96  7 11  2 27  0.0000000  0  8G21G25G31G 3G 1G23G15G28
 -19752591.88444 -15391616.55644  21180356.9554   21180359.0824
  -8403775.87644  -6548389.12944  22706551.5794   22706553.6124
  -5567113.02244  -4338009.83444  22927381.1944   22927384.0894
  -3899962.65644  -3038936.16944  23520316.8254   23520320.1974
 -24971005.91444 -19457900.97744  20439902.6224   20439904.1564
  -6822268.91644  -5316041.68444  23958022.2934   23958026.3934
  -5630427.66444  -4387342.76444  23241439.0644   23241441.0114
   1963327.354 4   1529853.570 4  25177683.190    25177677.603
 96  7 11  2 27 30.0000000  0  8G21G25G31G 3G 1G23G15G28
 -19723187.21344 -15368703.83044  21185952.4344   21185954.6514
  -8494954.41744  -6619437.28244  22689200.5984   22689202.8674
  -5516269.71444  -4298391.70844  22937056.1444   22937058.3684
  -3811851.17244  -2970277.94844  23537084.0484   23537087.9944
 -24938908.68144 -19432890.13844  20446010.5244   20446012.1004
  -6757884.74844  -5265872.24244  23970274.1774   23970277.3754
  -5730975.77044  -4465691.91744  23222305.0254   23222308.1044
   2060585.948 4   1605639.439 4  25196190.672    25196185.071
 96  7 11  2 28  0.0000000  0  8G21G25G31G 3G 1G23G15G28
 -19693533.34344 -15345596.91544  21191595.2954   21191597.4524
  -8585928.73044  -6690326.29944  22671888.8314   22671890.9904
  -5465033.28244  -4258467.25944  22946805.7584   22946808.6784
  -3723635.49344  -2901538.54044  23553869.5904   23553874.5384
 -24906431.35344 -19407583.12244  20452190.7214   20452192.5594
  -6693387.91744  -5215614.97544  23982547.4644   23982552.5854
  -5831340.74844  -4543898.35544  23203206.9654   23203210.1724
   2157673.700 4   1681292.186 4  25214665.997    25214660.468
 96  7 11  2 28 30.0000000  0  8G21G25G31G 3G 1G23G15G28
 -19663658.70144 -15322317.97844  21197280.1024   21197282.3424
  -8676728.32544  -6761079.14944  22654610.2034   22654612.6754
  -5413450.03944  -4218272.56144  22956621.6124   22956623.2004
  -3635357.78844  -2832750.80544  23570667.5794   23570671.8174
 -24873603.13544 -19382002.68944  20458437.8044   20458439.3904
  -6628847.53344  -5165323.81544  23994829.2844   23994834.2414
  -5931561.47244  -4621992.43944  23184134.9564   23184137.5334
   2254546.918 4   1756777.732 4  25233100.572    25233094.855
 96  7 11  2 29  0.0000000  0  8G21G25G31G 3G 1G23G15G28
 -19633549.71144 -15298856.43044  21203009.7364   21203011.6624
  -8767333.50944  -6831680.53144  22637368.8164   22637370.2204
  -5361506.79344  -4177797.34844  22966506.1094   22966508.8954
  -3546993.24444  -2763895.39344  23587483.5684   23587488.0234
 -24840392.77844 -19356124.48244  20464757.3784   20464759.0034
  -6564252.12444  -5114989.75744  24007120.9994   24007124.2364
  -6031617.89744  -4699958.44244  23165095.4834   23165096.8774
   2351221.048 4   1832108.149 4  25251496.949    25251491.253
 96  7 11  2 29 30.0000000  0  8G21G25G31G 3G 1G23G15G28
 -19603192.92344 -15275201.79444  21208786.4644   21208788.3364
  -8857714.47344  -6902107.20144  22620169.7134   22620171.9744
  -5309167.59844  -4137013.60544  22976466.1904   22976469.3594
  -3458511.55744  -2694948.71344  23604321.6044   23604325.1444
 -24806775.37644 -19329929.10444  20471154.6534   20471156.3844
  -6499554.83344  -5064576.27644  24019432.5544   24019435.4934
  -6131474.47144  -4777768.72444  23146093.5274   23146096.3184
   2447725.952 4   1907306.711 4  25269861.464    25269855.714
 96  7 11  2 30  0.0000000  0  8G21G25G31G 3G 1G23G15G28
 -19572609.61144 -15251370.64444  21214606.4184   21214608.3824
  -8947884.03444  -6972369.12744  22603010.4114   22603013.1884
  -5256448.24544  -4095933.63244  22986498.7794   22986501.8634
  -3369926.60644  -2625921.54944  23621178.7264   23621182.8604
 -24772774.40944 -19303434.84444  20477624.9134   20477626.5184
  -6434757.45544  -5014084.84644  24031763.7424   24031767.1784
  -6231136.52544  -4855427.44044  23127128.2854   23127131.1474
   2544051.570 4   1982365.603 4  25288191.474    25288185.629
 96  7 11  2 30 30.0000000  0  8G21G25G31G 3G 1G23G15G28
 -19541816.21644 -15227375.79444  21220465.9654   21220467.9124
  -9037842.17844  -7042466.32144  22585891.9724   22585893.5524
  -5203338.22144  -4054549.24344  22996604.8024   22996608.1244
  -3281237.57744  -2556813.31544  23638054.8064   23638061.2264
 -24738401.55644 -19276650.79844  20484165.6644   20484167.3194
  -6369843.02844  -4963502.17544  24044115.7984   24044118.9064
  -6330597.45344  -4932929.44044  23108201.0394   23108203.9994
   2640199.541 4   2057286.045 4  25306488.028    25306482.414
 96  7 11  2 31  0.0000000  0  7G21G25G31G 3G 1G23G15
 -19510811.69044 -15203216.42444  21226366.2644   21226368.3374
  -9127583.52844  -7112394.59344  22568814.8164   22568816.4324
  -5149834.59044  -4012858.13844  23006786.1704   23006788.7914
  -3192450.23544  -2487628.47144  23654949.7964   23654954.4014
 -24703673.82144 -19249590.22344  20490774.1644   20490775.9934
  -6304794.29544  -4912814.89444  24056494.0494   24056497.2214
  -6429848.55844  -5010267.97144  23089314.2304   23089314.8314
 96  7 11  2 31 30.0000000  0  7G21G25G31G 3G 1G23G15
 -19479642.83344 -15178929.00244  21232297.4884   21232299.6784
  -9217154.91744  -7182190.41544  22551770.2154   22551772.1314
  -5095996.66344  -3970906.54644  23017030.8944   23017031.8734
  -3103640.03244  -2418425.79544  23671850.7984   23671855.9204
 -24668667.55844 -19222312.61444  20497435.7484   20497437.4164
  -6239670.20944  -4862068.83044  24068887.2844   24068892.1094
  -6528936.76244  -5087479.55444  23070457.8954   23070461.3274
 96  7 11  2 32  0.0000000  0  7G21G25G31G 3G 1G23G15
 -19448299.39044 -15154505.54244  21238261.6944   21238263.7274
  -9306539.66344  -7251840.79544  22534760.6514   22534763.2474
  -5041838.32144  -3928705.25844  23027337.7424   23027339.7644
  -3014803.64644  -2349202.72644  23688756.5634   23688759.4374
 -24633378.94844 -19194814.99244  20504151.0274   20504152.5234
  -6174480.81844  -4811271.89044  24081292.0604   24081295.8154
  -6627856.60144  -5164559.91644  23051633.4124   23051636.4774
 96  7 11  2 32 30.0000000  0  7G21G25G31G 3G 1G23G15
 -19416708.32644 -15129889.12344  21244273.2194   21244275.6504
  -9395631.39344  -7321262.85844  22517807.0754   22517809.9314
  -4987279.85344  -3886192.20244  23037719.4264   23037724.0794
  -2925853.24944  -2279890.78244  23705683.4304   23705688.3014
 -24597712.86144 -19167023.23444  20510937.6744   20510939.6204
  -6109158.16044  -4760371.16444  24093722.5744   24093725.9764
  -6726527.30844  -5241446.14944  23032857.9534   23032861.3164
 96  7 11  2 33  0.0000000  0  7G21G25G31G 3G 1G23G15
 -19384931.58544 -15105128.02844  21250320.0014   21250322.0164
  -9484479.15244  -7390494.82844  22500900.1804   22500902.3484
  -4932408.30144  -3843435.18844  23048161.0364   23048163.6384
  -2836845.23444  -2210533.95844  23722620.6324   23722625.6554
 -24561728.89344 -19138983.78044  20517785.4174   20517787.1724
  -6043767.17844  -4709417.17644  24106165.8044   24106170.5724
  -6825015.22744  -5318190.01344  23014116.5664   23014119.1404
 96  7 11  2 33 30.0000000  0  7G21G25G31G 3G 1G23G15
 -19352933.05444 -15080194.11144  21256409.2214   21256411.2594
  -9573052.93744  -7459513.29944  22484044.8674   22484047.0114
  -4877189.65544  -3800407.70644  23058669.1974   23058672.3674
  -2747735.02444  -2141097.50844  23739577.3014   23739582.4284
 -24525377.98444 -19110658.38844  20524702.7424   20524704.4324
  -5978275.67044  -4658384.86544  24118629.4764   24118629.9094
  -6923288.15244  -5394766.28644  22995415.1884   22995418.5414
 96  7 11  2 34  0.0000000  0  7G21G25G31G 3G 1G23G15
 -19320639.05644 -15055029.95744  21262554.7504   21262556.4664
  -9661296.42844  -7528274.39944  22467252.5784   22467255.3754
  -4821556.03044  -3757056.87444  23069255.8094   23069259.0214
  -2658444.32644  -2071520.41744  23756569.3234   23756575.3634
 -24488583.60944 -19081987.44644  20531704.4994   20531706.1314
  -5912615.02544  -4607220.76844  24131123.7124   24131126.9324
  -7021285.12644  -5471127.52744  22976766.7974   22976770.6154
 96  7 11  2 34 30.0000000  0  7G21G25G31G 3G 1G23G15
 -19288092.56544 -15029669.05244  21268748.2264   21268750.2194
  -9749279.70444  -7596832.75244  22450509.9094   22450512.2754
  -4765548.65144  -3713414.81444  23079914.0654   23079917.7334
  -2569037.14144  -2001852.55944  23773582.8924   23773588.5634
 -24451411.34344 -19053022.03644  20538778.0714   20538779.5504
  -5846825.96544  -4555956.61744  24143642.7744   24143644.9724
  -7119056.50944  -5547312.98944  22958161.0814   22958163.3214
 96  7 11  2 35  0.0000000  0  7G21G25G31G 3G 1G23G15
 -19255314.40344 -15004127.62844  21274985.5854   21274987.7114
  -9837079.94644  -7665248.45944  22433801.8664   22433804.3284
  -4709209.35144  -3669514.09944  23090635.3774   23090637.2354
  -2479579.46844  -1932145.33944  23790606.0404   23790609.6904
 -24413917.35944 -19023805.94144  20545912.8694   20545914.6234
  -5780941.35944  -4504617.98344  24156180.2214   24156183.2814
  -7216642.67744  -5623354.13344  22939591.0784   22939593.0354
 96  7 11  2 35 30.0000000  0  7G21G25G31G 3G 1G23G15
 -19222284.95244 -14978390.38944  21281271.1014   21281273.1994
  -9924693.50944  -7733518.71944  22417129.6524   22417131.7774
  -4652512.27944  -3625334.59144  23101424.3574   23101426.9594
  -2390074.69144  -1862401.39444  23807638.7924   23807643.3364
 -24376090.05344 -18994330.11044  20553111.3404   20553112.8464
  -5714962.46644  -4453205.84844  24168736.0894   24168739.8964
  -7314025.04544  -5699236.45244  22921060.4584   22921064.9144
 96  7 11  2 36  0.0000000  0  7G25G31G 3G 1G23G15G21
 -10012098.80544  -7801626.69244  22400496.7684   22400499.1934
  -4595454.33244  -3580873.90044  23112281.7964   23112282.7054
  -2300531.24344  -1792627.31544  23824678.0324   23824681.8674
 -24337922.58844 -18964589.22344  20560374.0064   20560376.0144
  -5648883.33444  -4401715.68744  24181309.9764   24181313.4524
  -7411186.69544  -5774946.78844  22902571.4684   22902575.4034
 -19188995.72544 -14952450.72844  21287605.5164   21287607.6124
 96  7 11  2 36 30.0000000  0  7G25G31G 3G 1G23G15G21
 -10099284.37044  -7869563.44844  22383905.9054   22383907.4684
  -4538046.64144  -3536140.65744  23123205.9954   23123208.3354
  -2210970.07444  -1722839.44644  23841719.7264   23841724.4064
 -24299416.49844 -18934584.47644  20567701.8434   20567703.1814
  -5582712.13244  -4350153.68544  24193901.7254   24193905.6944
  -7508126.64144  -5850484.35744  22884123.7104   22884126.9314
 -19155464.75544 -14926322.69344  21293986.3354   21293988.5654
 96  7 11  2 37  0.0000000  0  7G21G25G31G 3G 1G23G15
 -19121696.09844 -14900009.45944  21300412.4874   21300414.4564
 -10186224.14644  -7937308.68144  22367361.8764   22367364.1114
  -4480291.41744  -3491136.63444  23134196.2154   23134199.3364
  -2121380.83744  -1653029.74244  23858767.4574   23858771.9144
 -24260550.91244 -18904299.59644  20575097.5634   20575099.2034
  -5516450.24344                  24206511.4944
  -7604833.13744  -5925840.05644  22865721.9524   22865723.8864
 96  7 11  2 37 30.0000000  0  7G25G31G 3G 1G23G15G21
 -10272892.58844  -8004842.48144  22350868.9824   22350871.0174
  -4422195.57244  -3445867.18844  23145251.1714   23145254.6054
  -2031765.07644  -1583199.34744  23875823.5274   23875828.7144
 -24221328.19044 -18873736.43444  20582561.3654   20582563.0594
  -5450100.42644  -4246818.97744  24219137.6384
  -7701306.81644  -6001014.33444  22847363.1074   22847364.7734
 -19087708.95344 -14873525.97644  21306879.8614   21306881.9984
 96  7 11  2 38  0.0000000  0  7G25G31G 3G 1G23G15G21
 -10359254.97944  -8072137.80444  22334435.1904   22334437.4074
  -4363745.66444  -3400321.86944  23156374.4184   23156377.6304
  -1942095.79944  -1513327.23244  23892887.1214   23892890.5104
 -24181727.51544 -18842878.76244  20590097.1994   20590098.9754
  -5383631.56944  -4195025.01244  24231785.2604   24231787.4494
  -7797524.84544  -6075989.35944  22829053.2434   22829056.3584
 -19053493.38444 -14846864.49744  21313390.9784   21313392.7384
 96  7 11  2 38 30.0000000  0  7G25G31G 3G 1G23G15G21
 -10445303.62844  -8139188.65044  22318060.1084   22318062.4434
  -4304931.17744  -3354492.46144  23167566.8244   23167569.8364
  -1852346.65344  -1443392.86544  23909965.3634   23909969.6624
 -24141743.58644 -18811722.45144  20597705.9844   20597707.5244
  -5317022.61644  -4143121.98544  24244461.0904   24244463.3494
  -7893473.50644  -6150754.50544  22810794.9394   22810795.7764
 -19019036.42644 -14820014.92544  21319947.7364   21319949.9304
 96  7 11  2 39  0.0000000  0  7G25G31G 3G 1G23G15G21
 -10531062.74344  -8206013.88244  22301741.0874   22301742.9744
  -4245778.74944  -3308399.69144  23178823.5344   23178825.7674
  -1762530.54544  -1373406.33244  23927056.2984   23927063.0744
 -24101418.64444 -18780300.41244  20605379.6284   20605381.2324
  -5250295.90544  -4091127.16144  24257158.4664   24257160.3284
  -7989169.73744  -6225322.98444  22792584.4724   22792585.4914
 -18984358.16644 -14792992.90944  21326546.6104   21326548.6344
 96  7 11  2 39 30.0000000  0  7G25G31G 3G 1G23G15G21
 -10616565.19644  -8272639.12844  22285470.2684   22285471.9414
  -4186322.07944  -3262069.85444  23190137.9854   23190140.7014
  -1672675.91244  -1303389.85244  23944153.6434   23944160.1004
 -24060800.88944 -18748650.20944  20613108.8964   20613110.5084
  -5183483.02144  -4039065.20044  24269872.9294   24269872.4134
  -8084639.25744  -6299714.79144  22774416.9004   22774420.2874
 -18949482.79044 -14765817.29044  21333183.2994   21333185.6514
 96  7 11  2 40  0.0000000  0  7G25G31G 3G 1G23G15G21
 -10701806.42644  -8339060.80344  22269249.5254   22269251.2684
  -4126557.68144  -3215500.24744  23201510.6844   23201512.3634
  -1582759.03744  -1233324.84144  23961264.4234   23961269.9274
 -24019887.78744 -18716769.87244  20620894.1344   20620896.0304
  -5116574.07844  -3986928.31744  24282605.7684   24282608.0524
  -8179861.15244  -6373913.60244  22756297.4244   22756300.5244
 -18914385.59144 -14738468.82944  21339862.3384   21339864.1624
 96  7 11  2 40 30.0000000  0  7G25G31G 3G 1G23G15G21
 -10786793.47644  -8405284.43244  22253077.0454   22253079.0524
  -4066483.85244  -3168689.53344  23212941.0014   23212945.1494
  -1492787.35944  -1163217.08844  23978387.9424   23978390.7424
 -23978690.28144 -18684667.92044  20628734.0304   20628735.5224
  -5049564.14844  -3934712.78944  24295356.8744   24295358.0344
  -8274825.14644  -6447911.48244  22738227.2394   22738229.3444
 -18879044.52544 -14710930.34244  21346587.3914   21346589.3054
 96  7 11  2 41  0.0000000  0  7G25G31G 3G 1G23G15G21
 -10871505.04744  -8471293.39244  22236957.0454   22236959.3144
  -4006079.15644  -3121620.97944  23224436.3064   23224440.0864
  -1402758.43944  -1093064.66944  23995520.3994   23995522.8674
 -23937196.21644 -18652334.87744  20636630.0344   20636631.7344
  -4982430.01044  -3882400.47044  24308131.5574   24308134.5104
  -8369507.55944  -6521689.97644  22720209.3914   22720210.8024
 -18843435.20044 -14683182.82544  21353363.6774   21353365.2814
 96  7 11  2 41 30.0000000  0  7G25G31G 3G 1G23G15G21
 -10955955.93544  -8537099.22244  22220886.5694   22220888.9124
  -3945364.61444  -3074311.01044  23235990.6334   23235993.8044
  -1312706.09044  -1022894.04744  24012656.4744   24012662.5584
 -23895411.29944 -18619775.20344  20644581.4724   20644583.3074
  -4915179.17744  -3829997.24544  24320930.2574   24320930.4254
  -8463931.79244  -6595267.26844  22702240.6684   22702243.0844
 -18807573.56144 -14655238.69544  21360187.8184   21360189.7524
 96  7 11  2 42  0.0000000  0  7G25G31G 3G 1G23G15G21
 -11040122.29044  -8602683.34644  22204869.9914   22204872.0024
  -3884323.09944  -3026746.24344  23247606.9394   23247609.2234
  -1222612.66944   -952691.42844  24029798.4974   24029803.5064
 -23853307.39044 -18586966.96144  20652593.2404   20652595.0454
  -4847786.69744  -3777483.60844  24333754.3514   24333755.2674
  -8558081.68444  -6668630.78744  22684324.2314   22684327.0164
 -18771453.73344 -14627093.38644  21367060.9874   21367063.2034
 96  7 11  2 42 30.0000000  0  7G25G31G 3G 1G23G15G21
 -11124033.26444  -8668068.46244  22188902.3834   22188904.1224
  -3822983.10244  -2978948.88544  23259277.5204   23259281.1024
  -1132529.75044   -882496.99244  24046940.6914   24046941.5384
 -23810912.53544 -18553932.00444  20660660.8324   20660662.3834
  -4780288.72144  -3724887.80644  24346597.9224   24346601.7234
  -8651997.28244  -6741811.75344  22666452.0844   22666454.2534
 -18735121.72344 -14598782.73844  21373974.9414   21373976.8984
 96  7 11  2 43  0.0000000  0  7G25G31G 3G 1G23G15G21
 -11207651.91744  -8733225.79344  22172990.0494   22172991.8784
  -3761330.19544  -2930907.73344  23271009.1134   23271013.8684
  -1042447.63244   -812303.24744  24064083.9174   24064086.3954
 -23768195.90444 -18520646.31344  20668789.4424   20668791.1054
  -4712676.38344  -3672202.88844  24359464.6234   24359466.1344
  -8745662.02144  -6814797.23344  22648628.1844   22648630.5994
 -18698571.76944 -14570302.26144  21380930.0304   21380931.5394
 96  7 11  2 43 30.0000000  0  8G25G31G 3G 1G23G15G21G14
 -11290927.65744  -8798115.92144  22157143.4304   22157145.4904
  -3699322.12244  -2882589.79144  23282810.2884   23282812.4414
   -952318.97544   -742073.15944  24081235.3864   24081237.6964
 -23725100.76944 -18487065.68744  20676990.4654   20676991.8154
  -4644913.08744  -3619400.31144  24372359.1734   24372363.0294
  -8839029.28744  -6887550.93244  22630861.1954   22630863.4564
 -18661761.29544 -14541618.78244  21387934.8854   21387937.0764
        -0.25054                  25372331.6594
 96  7 11  2 44  0.0000000  0  8G25G31G 3G 1G23G15G21G14
 -11374018.26644  -8862861.79344  22141331.4864   22141333.4084
  -3637113.42044  -2834115.49044  23294649.1704   23294650.8784
   -862299.55844   -671928.22444  24098366.1864   24098370.1104
 -23681779.75544 -18453309.04944  20685234.0144   20685235.5964
  -4577154.03044  -3566601.03644  24385253.9684   24385255.2924
  -8932244.48744  -6960186.11744  22613123.0374   22613125.8304
 -18624838.74144 -14512847.96744  21394960.9714   21394962.9774
    -78527.17944                  25357387.7464
 96  7 11  2 44 30.0000000  0  8G25G31G 3G 1G23G15G21G14
 -11456863.86544  -8927416.74544  22125566.5764   22125568.4414
  -3574647.98044  -2785441.14944  23306536.8284   23306539.2494
   -772352.07044   -601839.35744  24115482.4924   24115485.5524
 -23638174.96944 -18419331.28944  20693531.6414   20693533.1634
  -4509342.21944  -3513760.68944  24398157.3404   24398158.5714
  -9025247.49644  -7032655.97744  22595425.7104   22595428.4004
 -18587734.34544 -14483935.45544  21402021.9134   21402024.0294
   -157180.83944                  25342421.0394
 96  7 11  2 45  0.0000000  0  8G25G31G 3G 1G23G15G21G14
 -11539399.46444  -8991730.14944  22109860.4404   22109862.6074
  -3511872.54544  -2736525.27244  23318479.7634   23318484.4364
   -682406.81444   -531752.20244  24132597.9994   24132602.8194
 -23594221.91244 -18385082.14744  20701895.8654   20701897.3474
  -4441405.36044  -3460822.87144  24411085.9564   24411089.9124
  -9117971.09144  -7104908.12144  22577781.0464   22577783.2334
 -18550386.21444 -14454833.02144  21409128.9884   21409131.1124
   -235879.52444                  25327445.6704
 96  7 11  2 45 30.0000000  0  8G25G31G 3G 1G23G15G21G14
 -11621635.26944  -9055809.93844  22094211.2334   22094213.2444
  -3448792.78944  -2687372.26444  23330483.0454   23330486.0364
   -592443.92344   -461651.27544  24149716.4584   24149723.5284
 -23549930.00044 -18350568.96744  20710324.2664   20710325.9664
  -4373338.19244  -3407783.53944  24424038.2044   24424040.0304
  -9210414.36944  -7176941.82544  22560189.4304   22560190.9934
 -18512798.37544 -14425543.79144  21416281.9874   21416283.5814
   -314609.12444   -245149.31944  25312464.2384   25312469.3764
 96  7 11  2 46  0.0000000  0  8G25G31G 3G 1G23G15G21G14
 -11703548.66244  -9119638.50744  22078623.7794   22078625.4474
  -3385405.19544  -2637979.38044  23342547.3464   23342549.6704
   -502451.01344   -391527.03844  24166841.9604   24166845.7494
 -23505290.15344 -18315784.66744  20718818.9704   20718820.5914
  -4305139.00044  -3354641.26744  24437016.9834   24437016.7224
  -9302558.82044  -7248742.66844  22542654.0214   22542656.4374
 -18474955.48144 -14396055.82844  21423482.6174   21423484.8344
   -393354.31844   -306509.14344  25297479.7084
 96  7 11  2 46 30.0000000  0  8G25G31G 3G 1G23G15G21G14
 -11785130.38844  -9183208.63144  22063099.5504   22063101.1564
  -3321708.20344  -2588345.36744  23354669.0214   23354670.3254
   -412430.45044   -321381.20644  24183973.5124   24183976.6654
 -23460315.95444 -18280739.82944  20727377.1454   20727378.7404
  -4236827.87344  -3301411.83944  24450014.9984   24450015.4004
  -9394400.80744  -7320307.81044  22525178.1014   22525180.0324
 -18436858.62944 -14366369.97444  21430732.6144   21430734.2634
   -472104.88744   -367873.24344  25282493.9454
 96  7 11  2 47  0.0000000  0  8G25G31G 3G 1G23G15G21G14
 -11866406.25844  -9246540.42944  22047632.8494   22047634.7484
  -3257731.91744  -2538493.71044  23366842.6374   23366846.1114
   -322405.56944   -251232.00544  24201104.8464   24201108.0584
 -23415051.36344 -18245468.72044  20735990.7314   20735992.5284
  -4168439.65644  -3248122.34644  24463029.2294   24463030.9884
  -9485959.17344  -7391651.96944  22507755.4414   22507757.6844
 -18398526.08544 -14336500.46944  21438027.0174   21438029.0114
   -550880.74644                  25267503.0044
 96  7 11  2 47 30.0000000  0  8G25G31G 3G 1G23G15G21G14
 -11947359.37944  -9309620.73344  22032228.2334   22032229.8504
  -3193469.79544  -2488419.37244  23379070.5714   23379074.6794
   -232381.60444   -181083.46444  24218235.4204   24218242.0474
 -23369486.64644 -18209963.74644  20744661.4524   20744663.0454
  -4099973.88944  -3194772.40844  24476058.3454   24476064.1444
  -9577212.62644  -7462758.53944  22490389.7684   22490391.8044
 -18359935.92344 -14306430.22144  21445370.3974   21445372.5824
   -629684.46344                  25252509.4764
 96  7 11  2 48  0.0000000  0  8G25G31G 3G 1G23G15G21G14
 -12027967.65044  -9372432.32544  22016888.8594   22016890.5584
  -3128897.28344  -2438103.19344  23391357.9124   23391362.2784
   -142370.09344   -110944.67844  24235363.3524   24235366.8244
 -23323599.57044 -18174207.57444  20753393.3024   20753394.5524
  -4031406.46644  -3141343.25744  24489105.4784   24489109.6624
  -9668137.86244  -7533609.33644  22473087.2664   22473089.6154
 -18321057.41944 -14276135.27744  21452768.9914   21452770.9694
   -708501.79944                  25237511.7974
 96  7 11  2 48 30.0000000  0  8G25G31G 3G 1G23G15G21G14
 -12108223.38044  -9434969.21644  22001616.4674   22001618.2004
  -3064002.38844  -2387535.79044  23403707.4214   23403711.8664
    -52348.05944    -40797.70244  24252492.8884   24252497.1094
 -23277387.38444 -18138198.07344  20762187.2634   20762188.7104
  -3962698.07744  -3087804.26644  24502180.2234   24502183.2454
  -9758721.12844  -7604193.67444  22455850.1344   22455851.7664
 -18281875.04944 -14245603.56744  21460225.0744   21460226.9584
   -787326.22044                  25222511.0794
 96  7 11  2 49  0.0000000  0  8G25G31G 3G 1G23G15G21G14
 -12188175.05144  -9497269.18244  21986402.4544   21986404.2124
  -2998847.70844  -2336765.93944  23416106.5534   23416109.0894
     37648.72944     29329.58944  24269619.3544   24269625.9104
 -23230902.08244 -18101975.76644  20771033.1234   20771034.7894
  -3893862.95344  -3034166.52244  24515278.9934   24515280.7704
  -9849007.62844  -7674546.77344  22438669.0734   22438671.4524
 -18242439.59244 -14214874.64344  21467729.4274   21467730.8004
   -866221.19544                  25207497.7214
 96  7 11  2 49 30.0000000  0  8G25G31G 3G 1G23G15G21G14
 -12267836.38844  -9559342.90044  21971242.9754   21971245.1624
  -2933444.01044  -2285802.02644  23428552.5774   23428555.1814
    127615.93044     99433.82944  24286740.4454   24286744.2204
 -23184142.26944 -18065539.54744  20779931.3434   20779932.9524
  -3824896.89944  -2980426.70544  24528403.5014   24528405.0434
  -9939009.32444  -7744677.95344  22421542.8634   22421544.7594
 -18202779.32044 -14183970.54144  21475276.6744   21475278.0554
   -945192.21744                  25192469.6374
 96  7 11  2 50  0.0000000  0  8G25G31G 3G 1G23G15G21G14
 -12347138.04244  -9621136.35944  21956152.2254   21956153.9664
  -2867727.34344  -2234594.22944  23441057.9004   23441059.4444
    217639.02544    169581.63944  24303872.1494   24303875.6024
 -23137056.34044 -18028849.20744  20788891.6044   20788893.0684
  -3755721.06744  -2926523.45944  24541567.1914   24541570.8364
 -10028663.11444  -7814538.04544  22404481.1294   22404483.5584
 -18162825.29044 -14152837.53344  21482879.3974   21482881.4324
  -1024167.72044   -798046.49344  25177439.3794   25177440.7584
 96  7 11  2 50 30.0000000  0  8G25G31G 3G 1G23G15G21G14
 -12426104.01944  -9682668.24144  21941125.8904   21941127.5704
  -2801747.23044  -2183181.19744  23453612.8464   23453616.0054
    307689.00744    239750.43344  24321007.6954   24321011.1684
 -23089695.68044 -17991944.80144  20797903.8384   20797905.7114
  -3686380.48644  -2872491.88844  24554762.2064   24554764.3534
 -10118002.40744  -7884153.05444  22387479.3364   22387482.5624
 -18122622.41644 -14121510.62544  21490529.8064   21490532.7384
  -1103185.29844   -859621.36044  25162402.8184   25162404.4604
 96  7 11  2 51  0.0000000  0  8G25G31G 3G 1G23G15G21G14
 -12504763.73144  -9743961.47844  21926157.0654   21926158.6854
  -2735538.03344  -2131589.66544  23466213.1904   23466216.5694
    397697.67844    309887.01944  24338136.0984   24338139.1334
 -23042086.55044 -17954846.78144  20806963.9704   20806965.5434
  -3616925.54744  -2818371.22744  24567979.2114   24567981.5774
 -10207058.79344  -7953547.61944  22370533.0084   22370536.5734
 -18082211.43844 -14090021.55844  21498219.9284   21498221.7654
  -1182275.80944   -921254.13744  25147351.7514
 96  7 11  2 51 30.0000000  0  8G25G31G 3G 1G23G15G21G14
 -12583092.10144  -9804996.52444  21911251.7234   21911253.3474
  -2669077.56244  -2079802.30644  23478860.1664   23478862.9544
    487668.93544    379994.45044  24355256.5324   24355258.7594
 -22994198.73444 -17917531.60044  20816076.2624   20816077.8814
  -3547367.76844  -2764170.38844  24581215.6744   24581218.1054
 -10295813.51544  -8022707.12244  22353644.0144   22353646.4474
 -18041573.95444 -14058355.98744  21505952.7084   21505954.7664
  -1261408.70044                  25132292.1744
 96  7 11  2 52  0.0000000  0  8G25G31G 3G 1G23G15G21G14
 -12661079.09644  -9865765.55844  21896411.3254   21896412.9404
  -2602375.53644  -2027826.73344  23491553.6974   23491554.6004
    577587.93644    450061.10444  24372367.4064   24372371.9304
 -22946046.26344 -17880010.19944  20825239.2694   20825241.0014
  -3477725.82244  -2709903.90144  24594467.1804   24594470.7834
 -10384266.58344  -8091631.56544  22336812.9494   22336814.7064
 -18000704.97544 -14026510.03244  21513729.7764   21513731.7604
  -1340591.39944  -1044616.19844  25117225.6434
 96  7 11  2 52 30.0000000  0  8G25G31G 3G 1G23G15G21G14
 -12738765.85444  -9926300.65644  21881628.2664   21881629.8674
  -2535446.32444  -1975674.12844  23504289.3564   23504290.8804
    667403.09944    520046.89544  24389458.1324   24389463.4834
 -22897650.04144 -17842298.86444  20834448.7694   20834450.5444
  -3408040.42944  -2655603.64844  24607728.7884   24607730.9194
 -10472443.08444  -8160340.51544  22320033.4024   22320035.2224
 -17959644.50144 -13994514.86344  21521543.6364   21521545.4594
  -1419853.64344                  25102141.6674
 96  7 11  2 53  0.0000000  0  8G25G31G 3G 1G23G15G21G14
 -12816145.06244  -9986596.09644  21866903.2974   21866905.0274
  -2468275.03344  -1923332.92444  23517071.0674   23517073.6244
    757134.14144    589967.18544  24406533.1644   24406539.7864
 -22848993.56044 -17804384.71744  20843707.8914   20843709.6934
  -3338292.54244  -2601254.69844  24621001.0104   24621006.6424
 -10560330.54144  -8228824.23844  22303308.1314   22303310.1394
 -17918373.67044 -13962355.77644  21529397.1214   21529398.3584
  -1499180.27844                  25087046.1994
 96  7 11  2 53 30.0000000  0  8G25G31G 3G 1G23G15G21G14
 -12893167.30944 -10046613.38844  21852246.1394   21852247.5784
  -2400818.48944  -1870769.39744  23529908.1274   23529912.7984
    846852.57144    659877.58544  24423605.8084   24423609.0254
 -22800039.65844 -17766238.81844  20853023.5674   20853025.4474
  -3268431.35644  -2546817.42544  24634295.6934   24634299.3814
 -10647877.34844  -8297042.51044  22286648.5714   22286651.3254
 -17876834.84244 -13929987.86244  21537301.4464   21537303.5314
  -1578527.45744  -1230020.68344  25071948.1304   25071949.9584
 96  7 11  2 54  0.0000000  0  8G25G31G 3G 1G23G15G21G14
 -12969838.28544 -10106356.97044  21837656.1334   21837657.9144
  -2333082.60544  -1817988.21444  23542798.4054   23542800.1784
    936550.18744    729771.80544  24440676.3334   24440676.6624
 -22750796.65244 -17727867.64844  20862394.0834   20862395.8144
  -3198440.77144  -2492279.32944  24647614.2704   24647617.4594
 -10735077.49144  -8364990.66744  22270054.7674   22270057.3754
 -17835022.10844 -13897406.51144  21545258.2144   21545260.3474
  -1657907.69444  -1291875.39844  25056841.5994   25056842.8294
 96  7 11  2 54 30.0000000  0  8G25G31G 3G 1G23G15G21G14
 -13046221.53744 -10165876.34344  21823120.6974   21823122.3324
  -2265139.55344  -1765045.61744  23555726.8034   23555730.7644
   1026168.61744    799604.34544  24457730.4504   24457734.5684
 -22701321.39344 -17689315.50344  20871808.9584   20871810.5824
  -3128369.71344  -2437678.52444  24660947.8684   24660951.2884
 -10821988.78644  -8432713.74544  22253515.8114   22253517.7024
 -17792992.47144 -13864656.14944  21553256.4894   21553258.4724
  -1737385.34844  -1353806.06644  25041717.9534   25041720.8194
 96  7 11  2 55  0.0000000  0  8G25G31G 3G 1G23G15G21G14
 -13122250.74644 -10225119.84144  21808652.8534   21808654.6024
  -2196968.34544  -1711925.25344  23568698.2864   23568705.3894
   1115769.89344    869423.55244  24474779.7304   24474783.3744
 -22651567.15444 -17650545.96344  20881277.0244   20881278.5604
  -3058154.87544  -2382965.77244  24674309.6334   24674315.1474
 -10908554.26944  -8500167.35744  22237043.1884   22237045.5224
 -17750691.54344 -13831694.39044  21561305.8314   21561307.8054
  -1816909.76944  -1415773.05044  25026586.2154   25026591.2954
 96  7 11  2 55 30.0000000  0  8G25G31G 3G 1G23G15G21G14
 -13197951.68444 -10284107.54644  21794247.9014   21794249.2494
  -2128596.31744  -1658648.40844  23581709.5624   23581714.3314
   1205305.01544                  24491818.0334
 -22601549.15544 -17611570.89744  20890794.9424   20890796.6264
  -2987818.67544  -2328158.39444  24687694.5734   24687698.8464
 -10994791.92144  -8567365.51944  22220633.2154   22220635.3744
 -17708151.73244 -13798546.49144  21569400.9354   21569402.9844
  -1896495.80444  -1477788.09544  25011442.0464   25011441.4264
 96  7 11  2 56  0.0000000  0  8G25G31G 3G 1G23G15G21G14
 -13273308.09944 -10342826.79544  21779908.1584   21779909.2034
  -2060010.05444  -1605204.61244  23594762.1484   23594766.0944
   1294773.64444   1008906.89344  24508842.1624   24508847.9574
 -22551255.38244 -17572380.94544  20900365.3254   20900367.2644
  -2917344.52144  -2273243.47044  24701105.3004   24701108.6734
 -11080691.11544  -8634299.93344  22204287.6284   22204289.9704
 -17665375.97644 -13765214.73844  21577541.0424   21577543.0424
  -1976123.41544  -1539835.49944  24996289.6914
 96  7 11  2 56 30.0000000  0  8G25G31G 3G 1G23G15G21G14
 -13348286.16744 -10401251.22444  21765640.1304   21765641.6424
  -1991194.06544  -1551581.76144  23607858.0144   23607858.2844
   1384201.68444   1078591.02444  24525861.4794   24525863.8424
 -22500672.56344 -17532965.76044  20909991.0914   20909992.7714
  -2846724.07244  -2218214.56744  24714543.5224   24714545.7674
 -11166232.11044  -8700955.23444  22188009.1644   22188012.1454
 -17622349.18444 -13731687.36944  21585728.5974   21585730.8804
  -2055757.60344  -1601888.04844  24981136.4154   24981137.9894
 96  7 11  2 57  0.0000000  0  8G25G31G 3G 1G23G15G21G14
 -13422889.32844 -10459383.52044  21751443.2934   21751444.7344
  -1922156.26644  -1497786.08444  23620995.4894   23620998.2324
   1473568.96744   1148227.84744  24542867.5604   24542869.9184
 -22449819.45044 -17493339.95444  20919668.2254   20919669.8974
  -2775979.97944  -2163089.27844  24728005.7174   24728006.1814
 -11251423.08744  -8767337.80044  22171797.9464   22171800.0434
 -17579092.09344 -13697980.54644  21593960.1014   21593961.9894
  -2135403.77444  -1663950.04344  24965979.6714   24965980.6794
 96  7 11  2 57 30.0000000  0  8G25G31G 3G 1G23G15G21G14
 -13497131.06144 -10517234.17844  21737315.6084   21737317.2074
  -1852901.62244  -1443821.47244  23634173.6304   23634177.3484
   1562856.62844   1217802.63144  24559859.2634   24559861.4704
 -22398713.44044 -17453517.07544  20929393.3154   20929395.0514
  -2705141.46344  -2107890.43344  24741486.1694   24741489.8104
 -11336279.90644  -8833459.98244  22155649.8674   22155652.5354
 -17535618.82844 -13664105.28144  21602232.9714   21602235.3804
  -2215080.79044  -1726035.94444  24950819.8764   24950817.2004
 96  7 11  2 58  0.0000000  0  8G25G31G 3G 1G23G15G21G14
 -13571032.16244 -10574819.40944  21723252.5024   21723254.0904
  -1783467.97244  -1389717.38144  23647386.5484   23647389.2504
   1652047.77544   1287302.19244  24576829.3374   24576830.9124
 -22347397.14944 -17413530.35144  20939158.3314   20939160.3604
  -2634246.09744  -2052647.34044  24754976.6194   24754982.0464
 -11420829.40444  -8899342.68944  22139560.7004   22139563.2814
 -17491938.13444 -13630068.39044  21610544.9044   21610547.1474
  -2294832.05544  -1788179.76944  24935643.7044   24935642.7804
 96  7 11  2 58 30.0000000  0  8G25G31G 3G 1G23G15G21G14
 -13644490.37644 -10632059.53444  21709274.1324   21709275.8334
  -1713762.66644  -1335401.58244  23660650.4294   23660654.9494
   1741242.50244   1356804.58744  24593802.5864
 -22295766.10144 -17373298.36644  20948983.3794   20948985.2124
  -2563201.63344  -1997287.94744  24768496.8834   24768501.5534
 -11504962.65844  -8964901.05844  22123550.7614   22123553.7384
 -17447929.42844 -13595775.89344  21618920.0274   21618921.8234
  -2374565.78144  -1850309.85144  24920470.1374   24920467.9564
 96  7 11  2 59  0.0000000  0  8G25G31G 3G 1G23G15G21G14
 -13717597.95744 -10689026.44244  21695362.0374   21695363.6994
  -1643856.08144  -1280928.92844  23673952.9464   23673956.1334
   1830358.00544   1426245.17444  24610759.9184   24610765.7634
 -22243886.44344 -17332872.65444  20958856.1074   20958857.8234
  -2492072.75044  -1941862.80544  24782031.7864   24782033.5594
 -11588748.90444  -9030189.02244  22107606.6384   22107608.5764
 -17403662.37244 -13561282.08544  21627343.2884   21627345.2724
  -2454362.33944  -1912488.92344  24905284.0714   24905284.6514
 96  7 11  2 59 30.0000000  0  8G25G31G 3G 1G23G15G21G14
 -13790419.38344 -10745770.37744  21681504.5814   21681506.2534
  -1573811.11944  -1226348.44944  23687281.3694   23687285.8424
   1919318.90044   1495565.29044  24627690.2754   24627696.8664
 -22191822.58044 -17292303.40944  20968763.2534   20968765.1224
  -2420925.66244  -1886423.44544  24795570.2384   24795576.4344
 -11672252.35844  -9095256.63744  22091716.7944   22091718.7564
 -17359192.96344 -13526630.60644  21635805.5824   21635807.5614
  -2534289.03644  -1974769.35744  24890072.3924   24890073.9214
 96  7 11  3  0  0.0000000  0  8G25G31G 3G 1G23G15G21G14
 -13862882.63444 -10802235.20944  21667715.3484   21667716.7454
  -1503558.27144  -1171606.00744  23700650.3754   23700655.2784
   2008179.10244   1564807.00644  24644601.3934   24644606.9684
 -22139497.76144 -17251530.82144  20978720.3014   20978722.1194
  -2349682.93044  -1830909.57344  24809128.0744   24809131.6664
 -11755401.14544  -9160047.88744  22075893.9494   22075896.3704
 -17314445.51844 -13491762.47244  21644320.8294   21644322.4584
  -2614268.18744  -2037090.76744  24874853.2794   24874854.5834
 96  7 11  3  0 30.0000000  0  8G25G31G 3G 1G23G15G21G14
 -13934952.87244 -10858393.80244  21654000.5114   21654002.2814
  -1433057.27344  -1116670.20244  23714066.4454   23714070.4354
   2096969.12644   1633993.98944  24661497.0674   24661502.3794
 -22086875.81244 -17210526.70144  20988734.0354   20988736.0634
  -2278297.64244  -1775284.66644  24822711.7414   24822710.0174
 -11838156.15444  -9224532.29244  22060146.0314   22060148.2904
 -17269404.63144 -13456665.68244  21652891.9464   21652893.7684
  -2694255.12044  -2099418.22444  24859631.7104   24859636.1964
 96  7 11  3  1  0.0000000  0  8G25G31G 3G 1G23G15G21G14
 -14006644.62444 -10914257.46744  21640358.1114   21640359.7694
  -1362325.38644  -1061554.47744  23727527.2804   23727531.6814
   2185666.63044   1703108.96744  24678374.8474   24678379.5514
 -22033987.57344 -17169315.08744  20998798.2194   20998800.0124
  -2206776.21044  -1719553.62844  24836321.5754
 -11920536.35844  -9288724.66044  22044469.6914   22044471.8734
 -17224103.12744 -13421365.81744  21661512.4934   21661514.8684
  -2774270.48044                  24844403.4814
 96  7 11  3  1 30.0000000  0  7G25G 3G 1G23G15G21G14
 -14078010.32344 -10969867.07444  21626777.6794   21626779.3684
   2274202.11344                  24695220.5624
 -21980913.41044 -17127958.60244  21008897.6634   21008899.8504
  -2135184.23544                  24849945.0984
 -12002613.26844  -9352680.68244  22028850.6004   22028853.3304
 -17178611.04344 -13385917.44444  21670169.0234   21670170.9794
  -2854391.97744  -2224199.99844  24829158.2844   24829158.6854
 96  7 11  3  2  0.0000000  0  8G25G29G 3G 1G23G15G21G14
 -14148834.56544 -11025054.76244  21613300.1894   21613301.4174
         0.19654                  25324894.0584
   2362808.61044                  24712082.3464
 -21927430.75044 -17086283.80044  21019075.2744   21019076.9734
  -2063278.69944                  24863627.3114
 -12084160.20544  -9416223.73544  22013332.6144   22013335.5834
 -17132706.54444 -13350147.71044  21678904.4004   21678906.6854
  -2934400.21144                  24813932.5884
 96  7 11  3  2 30.0000000  0  8G25G29G 3G 1G23G15G21G14
 -14219246.77044 -11079921.38144  21599901.5144   21599903.1404
    -85934.87444                  25308542.7054
   2451364.52144   1910146.08744  24728935.3984   24728937.7274
 -21873693.28644 -17044410.44944  21029301.3954   21029303.0564
  -1991202.66344                  24877343.9224
 -12165310.93144  -9479458.03844  21997890.4644   21997892.7314
 -17086539.02144 -13314173.02544  21687689.8734   21687692.0144
  -3014446.23244                  24798697.2584
 96  7 11  3  3  0.0000000  0  8G25G29G 3G 1G23G15G21G14
 -14289321.84044 -11134525.29644  21586566.3764   21586567.9874
   -171789.24544                  25292205.6694
   2539774.27644   1979036.82744  24745760.2104   24745766.2244
 -21819785.95344 -17002404.73844  21039559.4574   21039561.2694
  -1919055.51844                  24891073.2044
 -12246150.50944  -9542449.90744  21982507.7474   21982509.4034
 -17040192.32744 -13278058.72544  21696509.3174   21696511.5414
  -3094622.13744                  24783441.8904
 96  7 11  3  3 30.0000000  0  8G25G29G 3G 1G23G15G21G14
 -14358990.94744 -11188812.88244  21573308.6584   21573310.1074
   -257489.35144                  25275897.6534
   2628091.74044   2047855.62044  24762566.2544   24762569.2894
 -21765635.73144 -16960209.76544  21049864.0524   21049865.7874
  -1846777.05144                  24904826.9094
 -12326610.72044  -9605146.17844  21967196.4214   21967198.3864
 -16993598.48344 -13241751.83144  21705375.8894   21705378.0374
  -3174853.64344  -2473908.76344  24768174.4094   24768175.2794
 96  7 11  3  4  0.0000000  0  8G25G29G 3G 1G23G15G21G14
 -14428255.98644 -11242785.60444  21560128.2044   21560129.3624
   -343046.81744                  25259616.1404
   2716309.28144   2116596.49944  24779352.9854   24779362.1694
 -21711253.37744 -16917833.90744  21060212.6804   21060214.1744
  -1774391.28044                  24918601.8794
 -12406691.72644  -9667546.96044  21951957.0644   21951959.0764
 -16946767.95044 -13205260.51244  21714287.5794   21714289.6194
  -3255146.20344                  24752893.5574
 96  7 11  3  4 30.0000000  0  8G25G29G 3G 1G23G15G21G14
 -14497092.08544 -11296424.08944  21547029.1864   21547030.7754
   -428469.13144   -333871.67144  25243360.9124
   2804433.64144                  24796120.8234
 -21656630.10544 -16875270.31644  21070607.1694   21070608.6474
  -1701901.63844                  24932396.1944
 -12486372.99644  -9729636.25844  21936794.2664   21936796.5584
 -16899681.44944 -13168569.73444  21723247.5594   21723249.7704
  -3335476.81544                  24737609.9304
 96  7 11  3  5  0.0000000  0  8G25G29G 3G 1G23G15G21G14
 -14565536.12244 -11349757.06444  21534004.3094   21534005.6064
   -513786.73444   -400352.81344  25227124.7234   25227130.6854
   2892431.90944   2253834.77944  24812865.8634
 -21601775.28144 -16832526.29344  21081045.6384   21081047.0404
  -1629316.99544                  24946208.7534
 -12565668.33344  -9791424.82244  21921705.5514   21921707.3524
 -16852338.37844 -13131679.03344  21732257.1054   21732258.2894
  -3415851.42544                  24722314.5164
 96  7 11  3  5 30.0000000  0  8G25G29G 3G 1G23G15G21G14
 -14633689.62444 -11402863.65444  21521035.2924   21521036.4724
   -599082.69044                  25210888.9574
   2980234.71144                  24829575.7724
 -21546772.11544 -16789666.68344  21091512.3764   21091513.9814
  -1556716.90744                  24960023.1484
 -12644655.33844  -9852973.12344  21906674.6424   21906676.3934
 -16804806.86544 -13094641.48744  21741301.7964   21741303.2594
  -3496346.64444  -2724423.90744  24706996.3404
 96  7 11  3  6  0.0000000  0  8G25G29G 3G 1G23G15G21G14
 -14701486.14944 -11455692.08044  21508134.1314   21508135.4854
   -684275.34044   -533200.85144  25194677.6954
   3067933.52944   2390589.28544  24846266.7804   24846269.9304
 -21491537.12744 -16746626.43344  21102023.1414   21102024.7114
  -1484026.02244                  24973856.6364
 -12723249.48344  -9914215.30944  21891718.1394   21891720.1964
 -16756999.69944 -13057389.14444  21750399.2184   21750400.8434
  -3576881.88544  -2787178.58344  24691670.2754
 96  7 11  3  6 30.0000000  0  8G25G29G 3G 1G23G15G21G14
 -14768969.52344 -11508276.49644  21495292.2804   21495293.7374
   -769383.76544   -599519.00444  25178485.8924
   3155484.03544   2458810.41544  24862926.9814   24862933.5964
 -21436095.90144 -16703425.47644  21112573.3284   21112574.6364
  -1411268.22844                  24987701.1914
 -12801482.73844  -9975176.28044  21876830.5664   21876833.1864
 -16708946.90244 -13019945.40644  21759543.3274   21759545.4644
  -3657476.64244  -2849979.63244  24676333.0634
 96  7 11  3  7  0.0000000  0  8G25G29G 3G 1G23G15G21G14
 -14836080.40244 -11560570.65244  21482521.3824   21482522.7414
   -854331.07644   -665711.53444  25162324.1624   25162326.1154
   3242923.93844   2526945.42444  24879564.3964   24879571.4714
 -21380395.43244 -16660022.50844  21123172.9294   21123174.1704
  -1338385.72244                  25001570.4004
 -12879309.49444 -10035820.50444  21862020.8474   21862023.6744
 -16660614.99644 -12982284.18144  21768740.1114   21768742.6934
  -3738086.27544  -2912792.27844  24660994.6414   24660995.8474
 96  7 11  3  7 30.0000000  0  7G25G29G 1G23G15G21G14
 -14902696.65244 -11612479.38544  21469844.8204   21469846.0034
   -939009.45244   -731694.59544  25146210.0564   25146212.0774
 -21324352.13944 -16616352.41044  21133837.4584   21133838.6084
  -1265288.15544   -985925.23244  25015481.1534
 -12956638.53044 -10096076.87844  21847305.9454   21847307.8174
 -16611931.23244 -12944348.77944  21778005.2704   21778006.9344
  -3818627.13644  -2975551.39644  24645666.4714
 96  7 11  3  8  0.0000000  0  7G25G29G 1G23G15G21G14
 -14968891.73844 -11664059.93444  21457248.1864   21457249.3534
  -1023525.92944   -797551.43444  25130126.2074   25130127.9494
 -21268085.68944 -16572508.42244  21144544.3584   21144545.8784
  -1192072.87144                  25029412.8784
 -13033576.01944 -10156028.15544  21832665.1964   21832667.0064
 -16563014.71744 -12906232.02044  21787313.4194   21787315.2884
  -3899203.53844  -3038338.09644  24630333.5414
 96  7 11  3  8 30.0000000  0  7G25G29G 1G23G15G21G14
 -15034680.45044 -11715323.83344  21444728.8564   21444730.4114
  -1107925.98444   -863317.59244  25114064.2834   25114064.4494
 -21211646.99144 -16528530.21344  21155284.5294   21155286.0094
  -1118762.63344                  25043363.4834
 -13110154.47844 -10215699.66844  21818092.8384   21818094.3654
 -16513913.66844 -12867971.47244  21796656.8514   21796658.5124
  -3979853.35444  -3101182.05944  24614987.9184   24614994.1274
 96  7 11  3  9  0.0000000  0  7G25G29G 1G23G15G21G14
 -15100010.47044 -11766230.30144  21432296.9054   21432298.2494
  -1192180.41544   -928970.31044  25098030.6254
 -21155003.91644 -16484392.74944  21166063.2204   21166065.0064
  -1045314.70944   -814518.38744  25057340.7344
 -13186326.42344 -10275054.41844  21803597.5004   21803599.5694
 -16464583.77544 -12829532.60544  21806044.0474   21806045.8054
  -4060549.00344  -3164061.73544  24599631.2054   24599633.2044
 96  7 11  3  9 30.0000000  0  7G25G29G 1G23G15G21G14
 -15164909.56544 -11816800.98944  21419947.1754   21419948.5114
  -1276317.49744                  25082018.5654
 -21098168.93644 -16440105.75344  21176878.5134   21176879.9674
   -971735.78444                  25071341.6514
 -13262093.10944 -10334093.37644  21789179.5574   21789181.5744
 -16415015.47044 -12790907.95544  21815476.5874   21815478.2404
  -4141290.35644  -3226976.99044  24584266.9394
 96  7 11  3 10  0.0000000  0  7G25G20G 1G23G15G21G14
 -15229352.79644 -11867016.46444  21407684.4434   21407685.5614
         0.36914         0.03214  25233253.532    25233250.722
 -21041093.01044 -16395631.00444  21187739.7434   21187741.2204
   -897985.67644                  25085375.2294
 -13337402.60544 -10392776.08344  21774848.4534   21774850.7334
 -16365146.32744 -12752048.88944  21824966.5144   21824968.3674
  -4222030.28044  -3289891.20244  24568903.5904   24568906.7324
 96  7 11  3 10 30.0000000  0  8G25G29G20G 1G23G15G21G14
 -15293406.59544 -11916928.48344  21395495.0794   21395496.0954
        -0.82354        -0.59954  25050079.8674
    -49477.496 4    -38555.918 4  25223840.224    25223837.790
 -20983801.57144 -16350988.32144  21198642.0324   21198643.6514
   -824110.52244                  25099433.3154
 -13412293.20444 -10451132.36944  21760597.7314   21760600.0724
 -16315011.26344 -12712982.60444  21834506.6104   21834508.9574
  -4302817.49344  -3352842.20344  24553529.5924   24553529.0454
 96  7 11  3 11  0.0000000  0  8G25G29G20G 1G23G15G21G14
 -15357010.23344 -11966489.72644  21383391.6074   21383392.8194
    -83655.41844    -65185.89044  25034164.2274   25034167.9904
    -98623.080 4    -76850.960 4  25214489.236    25214487.966
 -20926232.01944 -16306128.93444  21209597.0314   21209598.7324
   -750057.19744                  25113525.8944
 -13486703.26644 -10509114.21244  21746438.0984   21746440.0264
 -16264537.94044 -12673652.74544  21844111.5164   21844113.8444
  -4383582.92044  -3415776.27544  24538161.4554   24538165.3084
 96  7 11  3 11 30.0000000  0  6G25G29G 1G15G21G14
 -15420278.30944 -12015789.48944  21371351.9864   21371353.1864
   -167220.98344   -130301.78044  25018263.0044   25018267.0914
 -20868508.42244 -16261149.51344  21220581.6644   21220582.8514
 -13560754.02144 -10566816.08044  21732346.0664   21732348.1854
 -16213856.83744 -12634160.98244  21853755.9344   21853757.3584
  -4464439.49244  -3478781.37744  24522774.0834   24522775.2904
 96  7 11  3 12  0.0000000  0  6G25G29G 1G15G21G14
 -15483230.07444 -12064842.78244  21359372.6854   21359373.8234
   -250723.08144   -195368.21744  25002372.1834   25002379.2104
 -20810680.37344 -16216088.69444  21231586.2994   21231587.7144
 -13634483.71944 -10624267.77344  21718316.3534   21718318.1594
 -16163021.74044 -12594549.22944  21863429.5384   21863432.0954
  -4545433.83344  -3541893.76644  24507361.6454   24507365.7214
 96  7 11  3 12 30.0000000  0  7G25G29G 1G31G15G21G14
 -15545784.51544 -12113586.47444  21347469.3314   21347470.2264
   -334094.56044   -260332.86244  24986505.6434   24986509.8324
 -20752690.48144 -16170901.76944  21242621.4934   21242622.7374
        -0.59454        -0.20354  24046445.6894   24046449.8714
 -13707823.15744 -10681415.36944  21704360.2494   21704362.3364
 -16111981.02144 -12554777.25244  21873141.8494   21873144.4004
  -4626484.71244  -3605050.25544  24491939.8624   24491941.1064
 96  7 11  3 13  0.0000000  0  7G25G29G 1G31G15G21G14
 -15607829.05144 -12161932.83644  21335662.5424   21335663.6384
   -417262.00844   -325138.57744  24970678.3344   24970680.9874
 -20694464.14344 -16125530.59844  21253701.3664   21253703.1704
     74615.54744     58142.20644  24060645.2074   24060647.7764
 -13780671.55644 -10738180.32944  21690497.0494   21690499.7944
 -16060633.00844 -12514765.82844  21882912.9614   21882915.9484
  -4707489.57144  -3668170.87744  24476524.9314   24476527.7664
 96  7 11  3 13 30.0000000  0  7G25G29G 1G31G15G21G14
 -15669418.65644 -12209924.70344  21323942.3344   21323943.4484
   -500282.22644   -389829.48944  24954880.1954   24954884.7974
 -20636046.17644 -16080010.10744  21264817.9094   21264819.5224
    149384.15344    116403.45744  24074873.3724   24074877.3064
 -13853075.55744 -10794599.01144  21676719.2074   21676721.6534
 -16009026.31244 -12474552.81344  21892734.0224   21892735.9514
  -4788511.06544  -3731304.46644  24461107.4774   24461108.0344
 96  7 11  3 14  0.0000000  0  7G25G29G 1G31G15G21G14
 -15730567.85444 -12257573.40344  21312306.0514   21312307.1274
   -583174.56744   -454420.79244  24939105.2654   24939108.1394
 -20577448.08544 -16034349.25944  21275968.3944   21275970.0244
    224288.75144    174770.64944  24089127.3384   24089130.7704
 -13925042.43544 -10850677.08744  21663024.4884   21663026.9454
 -15957159.85244 -12434137.39744  21902603.4714   21902605.4394
  -4869568.19644  -3794465.83444  24445683.0424   24445685.8374
 96  7 11  3 14 30.0000000  0  8G25G29G20G 1G31G15G21G14
 -15791215.12244 -12304830.98744  21300764.9774   21300766.1314
   -665881.57344   -518867.70244  24923366.5094
        -0.11414        -0.60014  25150360.197    25150358.188
 -20518587.20044 -15988483.63944  21287169.4274   21287171.1104
    299382.90744    233285.56344  24103416.7044   24103419.9134
 -13996499.91144 -10906358.22144  21649426.5434   21649428.8354
 -15904948.64744 -12393453.34044  21912539.1394   21912541.0654
  -4950594.54944  -3857603.22544  24430264.3174   24430263.9394
 96  7 11  3 15  0.0000000  0  7G25G29G 1G31G15G21G14
 -15851478.93444 -12351789.77544  21289297.3064   21289298.5974
   -748520.46744   -583261.55444  24907641.5114   24907643.5554
 -20459578.61444 -15942502.93144  21298398.4324   21298400.0784
    374523.89344    291837.00944  24117715.5044   24117718.4854
 -14067570.16944 -10961737.62544  21635902.4934   21635904.7964
 -15852501.52944 -12352585.46144  21922519.6854   21922521.4154
  -5031730.49044  -3920826.00644  24414824.6934   24414827.1294
 96  7 11  3 15 30.0000000  0  7G25G29G 1G31G15G21G14
 -15911348.49844 -12398441.35644  21277904.4424   21277905.3694
   -831059.23844   -647577.38344  24891934.1984   24891938.1144
 -20400410.48944 -15896397.90144  21309657.5864   21309659.1784
    449711.70544    350424.89644  24132023.7354   24132025.9184
 -14138246.80144 -11016810.30844  21622453.0374   21622455.6544
 -15799827.63644 -12311540.88544  21932543.5394   21932545.0704
  -5112978.53544  -3984136.09944  24399362.2774   24399362.4774
 96  7 11  3 16  0.0000000  0  7G25G29G 1G31G15G21G14
 -15970734.61544 -12444716.21844  21266603.4914   21266604.8084
   -913406.60244   -711744.09244  24876264.1584   24876270.1944
 -20340995.45744 -15850100.47344  21320963.8914   21320965.3994
    525024.95144    409110.53244  24146354.7414   24146357.2604
 -14208437.12644 -11071504.05144  21609096.4214   21609098.5494
 -15746831.68244 -12270245.34644  21942627.6534   21942629.6774
  -5194229.65144  -4047448.60544  24383900.1734   24383903.2864
 96  7 11  3 16 30.0000000  0  7G25G29G 1G31G15G21G14
 -16029649.13944 -12490623.60644  21255392.6114   21255393.8624
   -995573.24144   -775769.92144  24860628.9814   24860636.2674
 -20281341.17644 -15803616.61844  21332315.5514   21332317.1694
    600452.10144    467884.93344  24160708.3424   24160711.2824
 -14278152.32544 -11125827.57844  21595829.7824   21595831.9054
 -15693535.21344 -12228715.63344  21952769.5564   21952772.2444
  -5275479.03144  -4110759.75744  24368439.4184   24368442.6594
 96  7 11  3 17  0.0000000  0  7G25G29G 1G31G15G21G14
 -16088087.96544 -12536160.32444  21244271.9294   21244273.2274
  -1077552.53444   -839649.78944  24845029.9824   24845036.4714
 -20221462.44144 -15756957.86844  21343710.2824   21343712.1074
    675997.56044    526751.52644  24175082.9414   24175086.9454
 -14347387.10244 -11179776.74644  21582654.8814   21582657.5484
 -15639957.34444 -12186966.65544  21962965.4174   21962968.1874
  -5356717.41544  -4174062.34944  24352980.9244   24352984.7004
 96  7 11  3 17 30.0000000  0  7G25G29G 1G31G15G21G14
 -16146106.79344 -12581369.77244  21233231.4424   21233232.6824
  -1159392.88144   -903421.43144  24829456.6804   24829461.3094
 -20161401.42844 -15710157.08044  21355139.7064   21355141.2754
    751622.26844    585679.86444  24189472.8714   24189478.4284
 -14416176.34244 -11233378.72844  21569564.8474   21569567.4524
 -15586141.37744 -12145032.13244  21973206.1534   21973208.3244
  -5437975.05444  -4237380.01144  24337516.6834   24337519.8504
 96  7 11  3 18  0.0000000  0  7G25G29G 1G31G15G21G14
 -16203711.25644 -12626256.33644  21222269.5284   21222270.8254
  -1241089.84644   -967081.31444  24813910.1654   24813915.0344
 -20101148.40144 -15663206.67444  21366605.4994   21366607.0954
    827328.28044    644671.51444  24203881.8854   24203886.6874
 -14484509.07444 -11286625.00244  21556561.8924   21556563.9334
 -15532072.22544 -12102900.32644  21983494.6024   21983497.2564
  -5519242.91644  -4300705.59244  24322052.8374   24322056.8144
 96  7 11  3 18 30.0000000  0  7G25G29G 1G31G15G21G14
 -16260846.37044 -12670777.18144  21211396.7934   21211398.2904
  -1322597.41844  -1030593.60944  24798399.1604   24798399.6074
 -20040677.08544 -15616086.17044  21378113.0364   21378114.5074
    903170.26644    703769.17444  24218314.9194   24218317.5524
 -14552340.83244 -11339480.91244  21543653.5784   21543655.9544
 -15477727.31044 -12060553.64344  21993836.8244   21993838.4374
  -5600505.87144  -4364027.37044  24306588.3314   24306591.3944
 96  7 11  3 19  0.0000000  0  7G25G29G 1G31G15G21G14
 -16317634.76744 -12715027.85144  21200590.5034   21200591.6344
  -1404050.98544  -1094063.82044  24782897.4354   24782900.8724
 -19980123.10544 -15568901.25244  21389636.0464   21389637.6194
    979005.37044    762861.47444  24232746.7014   24232747.4784
 -14619801.79444 -11392047.88144  21530816.0564   21530818.0404
 -15423222.23844 -12018082.16744  22004208.3774   22004211.2534
  -5681919.72544  -4427466.66644  24291095.2634   24291098.3394
 96  7 11  3 19 30.0000000  0  7G25G29G 1G31G15G21G14
 -16373997.31144 -12758946.68744  21189865.0514   21189866.0764
  -1485377.16844  -1157434.83344  24767421.6204   24767419.6784
 -19919407.15944 -15521590.12544  21401189.5604   21401191.3584
   1054915.23844    822012.04444  24247192.5114   24247192.6284
 -14686822.47744 -11444271.76744  21518062.4564   21518064.5684
 -15368468.88044 -11975417.21744  22014627.9404   22014630.8364
  -5763426.60844  -4490978.47044  24275585.4544   24275587.8574
 96  7 11  3 20  0.0000000  0  7G25G29G 1G31G15G21G14
 -16429822.65344 -12802446.92644  21179241.8584   21179242.8284
  -1566486.45944  -1220636.82644  24751986.0944   24751990.1414
 -19858438.20544 -15474081.85344  21412791.5304   21412793.5324
   1130995.69144    881295.53444  24261668.2544   24261670.0664
 -14753314.14444 -11496083.44744  21505409.9594   21505410.9154
 -15313382.60844 -11932492.85344  22025110.2044   22025112.9944
  -5844934.96544  -4554491.45744  24260075.0844   24260079.0134
 96  7 11  3 20 30.0000000  0  7G25G29G 1G31G15G21G14
 -16485150.19144 -12845559.27444  21168713.4444   21168714.3624
  -1647453.66844  -1283728.08744  24736578.3594   24736581.5164
 -19797265.33644 -15426414.68444  21424432.3714   21424433.8574
   1207196.01544    940672.38844  24276166.7314   24276175.1714
 -14819329.40344 -11547523.90444  21492847.6544   21492849.4514
 -15258019.94344 -11889353.12044  22035645.8364   22035647.7284
  -5926493.10744  -4618043.22644  24244553.8584   24244558.6014
 96  7 11  3 21  0.0000000  0  7G25G29G 1G31G15G21G14
 -16539950.72544 -12888260.96444  21158284.9394   21158286.0414
  -1728250.02444  -1346686.14044  24721204.7474   24721211.1034
 -19735846.75144 -15378556.04944  21436120.0634   21436121.7594
   1283541.08644   1000162.06144  24290693.4494   24290700.6114
 -14884836.63844 -11598568.48044  21480381.8274   21480383.8094
 -15202338.90044 -11845965.30244  22046241.2464   22046243.1604
  -6008051.16644  -4681594.91444  24229034.6274   24229036.8314
 96  7 11  3 21 30.0000000  0  8G25G29G20G 1G31G15G21G14
 -16594234.04044 -12930559.62544  21147955.1644   21147956.0224
  -1808861.50144  -1409500.16944  24705865.2534   24705870.0934
         0.41914         0.46614  25030571.121    25030568.800
 -19674194.04044 -15330514.97144  21447851.8274   21447853.4844
   1360038.76844   1059770.60144  24305251.1384   24305257.7964
 -14949828.84544 -11649211.74244  21468013.7504   21468016.4394
 -15146351.79244 -11802338.98444  22056895.6714   22056897.8254
  -6089578.19944  -4745122.45944  24213520.7574   24213523.9804
 96  7 11  3 22  0.0000000  0  7G25G29G 1G31G15G21G14
 -16648073.14244 -12972512.15044  21137710.2804   21137711.0664
  -1889359.11444  -1472225.45544  24690548.0294   24690554.7004
 -19612388.14744 -15282354.52844  21459613.3174   21459614.8424
   1436589.11544   1119420.22844  24319820.1184   24319824.2574
 -15014369.57144 -11699503.21344  21455732.2044   21455734.4404
 -15090126.13244 -11758526.78544  22067594.6394   22067596.5944
  -6171123.49144  -4808664.19144  24198002.3634   24198005.3894
 96  7 11  3 22 30.0000000  0  7G25G29G 1G31G15G21G14
 -16701509.98644 -13014151.22644  21127541.4894   21127542.0534
  -1969770.81544  -1534883.82444  24675246.1884   24675253.3804
 -19550486.87144 -15234119.76644  21471393.0824   21471394.3924
   1513143.38444   1179072.89844  24334388.3924   24334388.9254
 -15078491.49244 -11749468.33344  21443529.9774   21443531.8844
 -15033695.19844 -11714554.62544  22078333.0974   22078335.2804
  -6252730.17244  -4872253.75344  24182473.0874   24182475.7844
 96  7 11  3 23  0.0000000  0  7G25G29G 1G31G15G21G14
 -16754495.15444 -13055438.34544  21117458.5604   21117459.5944
  -2050028.40944  -1597422.07944  24659972.8234   24659977.8994
 -19488455.17144 -15185783.37044  21483197.4414   21483198.6924
   1589743.56044   1238761.32344  24348965.5184   24348968.1224
 -15142137.67544 -11799062.74844  21431419.3874   21431421.3184
 -14976998.54044 -11670375.41744  22089122.1824   22089123.8034
  -6334344.01844  -4935848.99544  24166943.2934   24166944.2244
 96  7 11  3 23 30.0000000  0  7G25G29G 1G31G15G21G14
 -16807010.30344 -13096359.22344  21107465.2814   21107466.2944
  -2130106.08244  -1659820.17744  24644731.8374   24644736.2404
 -19426284.71844 -15137338.85444  21495027.8544   21495029.1074
   1666398.75244   1298492.64444  24363552.1894   24363556.3324
 -15205285.61144 -11848268.91444  21419402.4884   21419403.9974
 -14920015.66144 -11625973.18044  22099965.9294   22099967.9494
  -6415949.36644  -4999437.54844  24151414.3764   24151417.7654
 96  7 11  3 24  0.0000000  0  7G25G29G 1G31G15G21G14
 -16859058.89344 -13136916.53844  21097560.8824   21097561.6684
  -2210031.19744  -1722099.36444  24629522.6964   24629529.9864
 -19363975.99644 -15088786.59344  21506884.8014   21506886.3864
   1743090.83744   1358252.72944  24378146.9864   24378148.6614
 -15267951.92644 -11897099.80244  21407477.2934   21407478.7744
 -14862769.36144 -11581365.67644  22110859.1454   22110861.7774
  -6497580.64844  -5063046.26244  24135880.4614   24135882.3574
 96  7 11  3 24 30.0000000  0  7G25G29G 1G31G15G21G14
 -16910582.67544 -13177064.91344  21087756.0184   21087756.9444
  -2289746.58544  -1784215.13144  24614354.4634   24614362.0104
 -19301464.82544 -15040076.58344  21518779.9864   21518781.3844
   1819894.21544   1418099.52644  24392761.6894   24392764.1604
 -15330076.85944 -11945508.83444  21395654.8974   21395657.2294
 -14805213.55844 -11536517.00044  22121812.2414   22121813.5384
  -6579193.28344  -5126640.49944  24120349.9144   24120350.9224
 96  7 11  3 25  0.0000000  0  7G25G29G 1G31G15G21G14
 -16961654.21344 -13216860.89344  21078037.3854   21078038.0164
  -2369329.00344  -1846227.25844  24599211.1404   24599210.8444
 -19238801.76244 -14991248.21344  21530704.7624   21530706.1324
   1896732.92544   1477973.83444  24407382.4104   24407384.5834
 -15391730.20544 -11993550.38944  21383922.7644   21383924.6094
 -14747415.84544 -11491479.82244  22132810.5304   22132812.4414
  -6660856.43244  -5190274.05944  24104810.4004   24104810.7944
 96  7 11  3 25 30.0000000  0  7G25G29G 1G31G15G21G14
 -17012327.68444 -13256346.69244  21068394.8564   21068395.5464
  -2448822.50844  -1908170.12344  24584083.4684   24584085.8914
 -19176020.15444 -14942327.47044  21542651.5374   21542653.2224
   1973549.81544   1537831.12944  24421997.6684   24422004.4224
 -15452963.47844 -12041264.61444  21372270.9414   21372272.6314
 -14689438.17944 -11446302.41944  22143843.0044   22143845.5974
  -6742628.64644  -5253992.69444  24089250.9464   24089251.5034
 96  7 11  3 26  0.0000000  0  7G25G29G 1G31G15G21G14
 -17062499.86144 -13295441.87144  21058847.1504   21058848.1754
  -2528131.14244  -1969968.93444  24568991.9114   24568995.0964
 -19113009.27544 -14893228.07744  21554641.9214   21554643.7284
   2050445.14644   1597749.55044  24436629.8884   24436633.5544
 -15513675.15944 -12088572.40344  21360717.8534   21360719.7254
 -14631186.48444 -11400911.49744  22154927.7444   22154929.8804
  -6824424.28244  -5317729.57644  24073684.5834   24073687.3534
 96  7 11  3 26 30.0000000  0  7G25G29G 1G31G15G21G14
 -17112192.42144 -13334163.32244  21049391.1364   21049391.8164
  -2607265.96644  -2031632.34644  24553934.1734   24553937.1904
 -19049798.91844 -14843973.24244  21566670.5394   21566672.2254
   2127397.08544   1657712.08044  24451275.1974
 -15573878.97744 -12135484.44944  21349261.0934   21349263.2004
 -14572669.32244 -11355313.72844  22166063.8414   22166065.0244
  -6906265.96144  -5381502.27444  24058109.5994   24058114.1464
 96  7 11  3 27  0.0000000  0  7G25G29G 1G31G15G21G14
 -17161395.87944 -13372503.65244  21040027.7944   21040028.7784
  -2686201.45744  -2093140.41144  24538913.3654   24538911.7664
 -18986392.48444 -14794565.61944  21578736.7194   21578738.0754
   2204407.02944   1717719.76344  24465932.4134   24465930.7854
 -15633564.70744 -12181992.79744  21337903.5044   21337905.4834
 -14513871.49944 -11309497.24744  22177252.6374   22177253.9354
  -6988138.18944  -5445298.79144  24042529.6954   24042531.6284
 96  7 11  3 27 30.0000000  0  7G25G29G 1G31G15G21G14
 -17210112.92344 -13410464.96244  21030757.0334   21030758.0344
  -2764940.50144  -2154495.41744  24523927.6764   24523933.0214
 -18922817.69244 -14745026.81244  21590834.4424   21590835.8454
   2281475.10744   1777772.88144  24480599.5564   24480600.4284
 -15692735.33744 -12228099.76744  21326643.4684   21326645.5304
 -14454798.87144 -11263466.63544  22188493.5974   22188495.8394
  -7070034.42044  -5509113.98544  24026945.8814   24026949.3694
 96  7 11  3 28  0.0000000  0  7G25G29G 1G31G15G21G14
 -17258338.06744 -13448042.97344  21021580.1994   21021581.1404
  -2843496.03144  -2215707.37444  24508977.3744   24508982.0564
 -18859103.87444 -14695379.67344  21602958.5884   21602959.5144
   2358601.84144   1837871.63244  24495275.7474   24495276.3374
 -15751391.28144 -12273805.68444  21315481.7594   21315483.6384
 -14395443.50744 -11217215.70444  22199788.4084   22199790.0824
  -7151939.40044  -5572936.06944  24011359.8754   24011363.1494
 96  7 11  3 28 30.0000000  0  7G25G29G 1G31G15G21G14
 -17306072.72144 -13485238.78444  21012496.7694   21012497.5734
  -2921881.11344  -2276786.55044  24494062.2754   24494066.9754
 -18795268.93444 -14645638.15444  21615105.9624   21615107.4904
   2435773.04944   1898005.04044  24509960.1114   24509963.6784
 -15809534.30644 -12319111.92744  21304417.5904   21304419.5354
 -14335796.43444 -11170737.47144  22211138.6354   22211140.2694
  -7233831.02144  -5636747.69444  23995775.3054   23995777.0864
 96  7 11  3 29  0.0000000  0  7G25G29G 1G31G15G21G14
 -17353333.15744 -13522065.07644  21003503.3784   21003503.9694
  -3000120.58544  -2337752.32744  24479174.1014   24479176.1454
 -18731334.61244 -14595819.19544  21627272.4334   21627273.8774
   2512953.23044   1958145.40844  24524645.8294   24524648.7114
 -15867181.76544 -12364032.01744  21293447.5694   21293449.0964
 -14275867.34744 -11124039.47444  22222543.1454   22222545.3664
  -7315713.03344  -5700551.81844  23980192.6184   23980198.4544
 96  7 11  3 29 30.0000000  0  7G25G29G 1G31G15G21G14
 -17400133.37144 -13558532.75144  20994597.6004   20994598.2794
  -3078254.82644  -2398636.07644  24464305.8824   24464310.9514
 -18667309.19044 -14545929.25444  21639455.9044   21639457.5814
   2590125.33144   2018279.52644  24539329.6654   24539334.0454
 -15924343.26844 -12408573.43744  21282570.4014   21282572.2564
 -14215663.57044 -11077127.45144  22233999.3684   22234001.1984
  -7397602.27344  -5764361.60144  23964610.1964   23964615.9184
 96  7 11  3 30  0.0000000  0  7G25G29G 1G31G15G21G14
 -17446449.03044 -13594622.85444  20985783.7704   20985784.5414
  -3156266.29944  -2459424.16544  24449460.4374   24449462.4764
 -18603153.39444 -14495937.71644  21651664.4844   21651665.9934
   2667299.66544   2078415.34544  24554013.9964
 -15980992.84544 -12452715.95544  21271790.2084   21271791.8684
 -14155165.27044 -11029985.92544  22245512.0694   22245514.2904
  -7479493.86944  -5828173.20744  23949027.2494   23949030.6024
 96  7 11  3 30 30.0000000  0  7G25G29G 1G31G15G21G14
 -17492261.38544 -13630320.77244  20977066.1134   20977066.9734
  -3234125.14444  -2520093.29844  24434643.7024   24434647.3424
 -18538820.04944 -14445807.82744  21663906.3724   21663907.6004
   2744498.32744                  24568704.7194
 -16037100.17244 -12496435.94744  21261112.8984   21261115.2424
 -14094358.18644 -10982603.79044  22257083.2334   22257086.1894
  -7561374.63644  -5891976.39644  23933445.9744   23933449.0124
 96  7 11  3 31  0.0000000  0  7G29G25G 1G31G15G21G14
  -3311948.00644  -2580734.41144  24419835.9004   24419838.0114
 -17537706.57744 -13665732.58844  20968418.1164   20968419.0124
 -18474435.87144 -14395638.33844  21676158.3814   21676159.4414
   2821599.24344   2198648.77044  24583379.0144   24583378.3404
 -16092792.03344 -12539832.20144  21250515.0614   21250517.1934
 -14033384.95044 -10935092.19144  22268685.9504   22268687.7074
  -7643393.65744  -5955887.28944  23917838.3624   23917843.5614
 96  7 11  3 31 30.0000000  0  7G29G25G 1G31G15G21G14
  -3389578.13644  -2641225.35844  24405063.2144   24405063.7204
 -17582640.65944 -13700746.13944  20959867.4604   20959868.3704
 -18409843.55644 -14345306.65544  21688450.0354   21688451.4764
   2898756.07944   2258770.98544  24598063.7774   24598063.2484
 -16147920.77144 -12582789.65244  21240024.2214   21240026.5724
 -13972126.09044 -10887358.01844  22280342.9104   22280344.8404
  -7725408.76244  -6019795.12344  23902231.8234   23902234.3204
 96  7 11  3 32  0.0000000  0  7G29G25G 1G31G15G21G14
  -3467059.18844  -2701600.17744  24390317.8884   24390321.1094
 -17627118.77944 -13735404.39744  20951403.4714   20951404.2384
 -18345100.08544 -14294857.19344  21700770.1494   21700771.6244
   2975902.83244   2318885.39744  24612744.9554   24612744.5904
 -16202546.21944 -12625354.93144  21229629.6934   21229631.5504
 -13910662.93844 -10839464.65344  22292039.5704   22292041.2404
  -7807477.91744  -6083745.07944  23886615.3964   23886618.5564
 96  7 11  3 32 30.0000000  0  7G25G29G 1G31G15G21G14
 -17671120.28544 -13769691.26644  20943030.4254   20943031.1684
  -3544375.99944  -2761846.98844  24375605.5594   24375605.5794
 -18280203.53444 -14244288.44644  21713119.3344   21713121.0094
   3053052.94444   2379002.36144  24627426.0994   24627426.6984
 -16256655.33244 -12667517.87944  21219333.0064   21219334.8754
 -13848991.16844 -10791408.71644  22303774.7884   22303777.0674
  -7889577.92444  -6147719.05844  23870991.8574   23870995.3384
 96  7 11  3 33  0.0000000  0  7G29G25G 1G31G15G21G14
  -3621515.84344  -2821955.96044  24360927.2454   24360928.6344
 -17714616.04544 -13803584.04644  20934753.2444   20934753.8784
 -18215154.48644 -14193600.87344  21725498.5444   21725499.7544
   3130222.85144   2439134.75744  24642108.6754   24642111.0294
 -16310229.36544 -12709263.87144  21209138.5054   21209140.0174
 -13787088.46944 -10743172.84044  22315554.6534   22315556.3294
  -7971687.29444  -6211700.35544  23855366.4834   23855369.7984
 96  7 11  3 33 30.0000000  0  7G29G25G 1G31G15G21G14
  -3698485.80644  -2881932.48644  24346280.3094   24346281.7274
 -17757587.35444 -13837068.16344  20926576.2464   20926577.0304
 -18149956.93744 -14142797.58344  21737904.7254   21737906.3624
   3207413.46244                  24656794.2484
 -16363261.41044 -12750587.53744  21199046.2824   21199048.6734
 -13724942.53644 -10694747.44344  22327381.0864   22327383.1524
  -8053793.40844  -6275679.11144  23839741.9184   23839745.1974
 96  7 11  3 34  0.0000000  0  7G29G25G 1G31G15G21G14
  -3775301.37644  -2941788.72844  24331662.4304   24331666.9264
 -17800017.68344 -13870130.73544  20918501.9474   20918502.8714
 -18084627.38844 -14091891.44044  21750336.8114   21750337.8354
   3284621.10444   2559444.99044  24671484.0924
 -16415751.78544 -12791489.12044  21189057.8094   21189060.1814
 -13662528.82344 -10646113.38744  22339256.7514   22339259.8394
  -8135902.03844  -6339659.84444  23824117.1664   23824120.8534
 96  7 11  3 34 30.0000000  0  7G25G29G 1G31G15G21G14
 -17841900.13844 -13902766.39744  20910532.1364   20910532.6614
  -3851955.42544  -3001519.06544  24317076.2364   24317078.4434
 -18019163.22344 -14040880.39844  21762793.7724   21762795.0994
   3361862.55244   2619633.05944  24686185.9034
 -16467688.07544 -12831958.95344  21179174.8004   21179177.0944
 -13599820.50844 -10597249.78144  22351189.9854   22351192.7874
  -8218006.48044  -6403637.33344  23808493.3924   23808498.2354
 96  7 11  3 35  0.0000000  0  7G29G25G 1G31G15G21G14
  -3928472.82244  -3061142.97744  24302513.9584   24302516.1874
 -17883266.46844 -13934999.88144  20902660.3314   20902661.1154
 -17953583.03344 -13989778.95344  21775273.2984   21775274.3334
   3439127.21244   2679839.30344  24700893.3774   24700891.6774
 -16519088.83944 -12872011.49344  21169393.5904   21169395.6824
 -13536823.17044 -10548160.96744  22363178.2284   22363180.6104
  -8300131.56944  -6467630.88644  23792865.2274   23792867.9634
 96  7 11  3 35 30.0000000  0  7G29G25G 1G31G15G21G14
  -4004825.81444  -3120638.74344  24287985.3074   24287986.1764
 -17924094.48844 -13966813.90144  20894890.8074   20894891.6384
 -17887847.90344 -13938556.76744  21787782.0684   21787783.2004
   3516424.03844   2740070.60244  24715603.3674   24715601.2814
 -16569930.83244 -12911628.62044  21159718.8304   21159720.6034
 -13473518.05344 -10498832.31644  22375225.1894   22375227.7944
  -8382254.80344  -6531622.98144  23777237.4784   23777242.3074
 96  7 11  3 36  0.0000000  0  7G29G25G 1G31G15G21G14
  -4081013.91744  -3180006.03644  24273486.8644   24273490.1134
 -17964394.18444 -13998216.23944  20887222.0304   20887222.6184
 -17821948.29044 -13887206.41144  21800322.4694   21800323.5614
   3593744.22044   2800320.13844  24730316.8904   24730313.7524
 -16620216.03344 -12950811.88744  21150149.8234   21150151.5644
 -13409915.40244 -10449271.81144  22387328.3284   22387329.9694
  -8464374.62644  -6595612.39744  23761610.3394   23761611.5164
 96  7 11  3 36 30.0000000  0  7G29G25G 1G31G15G21G14
  -4157022.15744  -3239233.16744  24259022.7294   24259027.7804
 -18004174.37144 -14029213.76544  20879652.1414   20879653.0964
 -17755883.92444 -13835727.68144  21812894.0064   21812895.5954
   3671084.58944   2860585.34844  24745031.7654
 -16669936.52944 -12989555.12344  21140688.3894   21140690.3164
 -13346017.11544 -10399480.96744  22399487.6814   22399489.5204
  -8546484.23044  -6659593.89744  23745985.3594   23745987.6014
 96  7 11  3 37  0.0000000  0  7G29G25G 1G31G15G21G14
  -4232881.93544  -3298344.59944  24244586.2044   24244590.0964
 -18043458.63544 -14059824.86144  20872176.7474   20872177.4714
 -17689689.87544 -13784147.90244  21825490.3494   21825492.1144
   3748393.80344                  24759740.1284
 -16719118.33144 -13027878.59644  21131329.0314   21131331.1644
 -13281849.04444 -10349479.87644  22411698.6454   22411701.1374
  -8628607.53544  -6723586.06744  23730359.4794   23730359.7464
 96  7 11  3 37 30.0000000  0  7G25G29G 1G31G15G21G14
 -18082225.44244 -14090032.74544  20864799.4744   20864800.0164
  -4308573.71544  -3357325.11644  24230183.2814   24230186.1394
 -17623376.41044 -13732475.06844  21838109.3954   21838110.9574
   3825655.81944                  24774439.8044
 -16767750.80544 -13065774.01944  21122074.4944   21122076.7284
 -13217403.54644 -10299262.62844  22423961.7764   22423963.7674
  -8710733.56744  -6787580.35944  23714730.8834   23714735.3004
 96  7 11  3 38  0.0000000  0  7G29G25G 1G31G15G21G14
  -4384082.96644  -3416163.44444  24215813.9224   24215816.2804
 -18120477.70744 -14119839.68544  20857520.2544   20857520.8974
 -17556961.29044 -13680723.03144  21850747.7224   21850749.3644
   3902880.01544   3041205.00844  24789136.2664   24789146.1944
 -16815829.01444 -13103237.54544  21112925.7524   21112927.9464
 -13152662.95744 -10248815.41344  22436281.5604   22436283.4504
  -8792863.50644  -6851577.65944  23699102.5624   23699104.6984
 96  7 11  3 38 30.0000000  0  7G29G25G 1G31G15G21G14
  -4459408.62744  -3474858.71344  24201478.4804   24201482.4694
 -18158215.63144 -14149245.84244  20850338.8464   20850339.6864
 -17490444.13144 -13628891.48044  21863405.8224   21863407.4744
   3980065.40044   3101349.41544  24803828.8294   24803829.7144
 -16863347.37144 -13140264.82744  21103883.3574   21103885.5384
 -13087621.62944 -10198133.87444  22448658.3284   22448661.1784
  -8875001.38044  -6915581.16244  23683471.9914   23683474.6614
 96  7 11  3 39  0.0000000  0  7G29G25G 1G31G15G21G14
  -4534570.01344  -3533425.95544  24187175.1084   24187176.9804
 -18195442.27644 -14178253.60144  20843254.7934   20843255.6924
 -17423824.71944 -13576980.24844  21876082.9994   21876084.4954
   4057212.02844   3161463.64044  24818512.5944   24818511.7674
 -16910313.25044 -13176861.61344  21094946.2294   21094947.9634
 -13022308.98944 -10147240.91944  22461087.7214   22461089.7734
  -8957151.96644  -6979594.58044  23667839.3324   23667841.4324
 96  7 11  3 39 30.0000000  0  7G29G25G 1G31G15G21G14
  -4609561.72844  -3591861.00044  24172905.7654   24172909.1284
 -18232162.33044 -14206866.61444  20836267.1944   20836268.0084
 -17357089.90844 -13524979.09144  21888781.9834   21888783.5854
   4134331.58444   3221556.78344  24833188.3814   24833187.3074
 -16956725.87744 -13213027.28844  21086114.2194   21086115.9634
 -12956741.88044 -10096149.67444  22473564.3644   22473566.3304
  -9039312.43744  -7043615.71344  23652204.2704   23652205.9864
 96  7 11  3 40  0.0000000  0  7G29G25G 1G31G15G21G14
  -4684422.30644  -3650193.84044  24158660.9794   24158663.9064
 -18268398.33044 -14235102.44244  20829371.9374   20829372.7154
 -17290235.92944 -13472885.07844  21901503.8424   21901505.6374
   4211412.39444   3281619.73844  24847855.7564   24847853.3544
 -17002605.50244 -13248777.63144  21077383.1354   21077385.2524
 -12890955.70244 -10044887.74144  22486083.1314   22486085.4564
  -9121510.25844  -7107665.92244  23636561.7594   23636564.8734
 96  7 11  3 40 30.0000000  0  7G29G25G 1G31G15G21G14
  -4759121.87944  -3708401.23844  24144446.5684   24144449.9474
 -18304103.17144 -14262924.38144  20822577.7544   20822578.3014
 -17223217.93144 -13420663.26444  21914257.1864   21914258.4874
   4288495.57544                  24862522.3874
 -17047905.64844 -13284076.43944  21068762.8544   21068764.8124
 -12824919.00244  -9993430.58144  22498649.3234   22498650.9794
  -9203694.55044  -7171705.57844  23620922.6874   23620924.2254
 96  7 11  3 41  0.0000000  0  6G29G 1G15G21G14G25
  -4833676.51744  -3766495.73044  24130259.4104   24130259.6704
 -17156075.47444 -13368344.45744  21927034.0304   21927035.4094
 -17092654.16944 -13318945.40944  21060247.5544   21060249.8104
 -12758649.42944  -9941791.97744  22511260.0224   22511262.0054
  -9285893.33244  -7235756.54444  23605281.5354   23605285.5094
 -18339302.96044 -14290352.77444  20815879.1734   20815879.9184
 96  7 11  3 41 30.0000000  0  6G29G 1G15G21G25G14
  -4908089.94244  -3824480.15644  24116099.2404   24116102.4834
 -17088832.76544 -13315947.54544  21939830.1744   21939831.0594
 -17136870.63244 -13353399.78444  21051833.3954   21051835.6694
 -12692132.14544  -9889960.35244  22523917.8274   22523920.7484
 -18374030.25744 -14317412.99044  20809270.8054   20809271.4214
  -9368137.75144  -7299843.06244  23589630.2374   23589633.2944
 96  7 11  3 42  0.0000000  0  6G29G25G 1G15G21G14
  -4982248.76744  -3882266.19844  24101987.1084   24101988.9244
 -18408173.17644 -14344017.84944  20802773.4604   20802774.4364
 -17021395.88244 -13263399.32544  21952662.4654   21952664.1434
 -17180441.43744 -13387351.05444  21043542.4754   21043544.2084
 -12625240.39644  -9837836.92544  22536646.9484   22536649.1494
  -9450314.55644  -7363876.88044  23573992.3314   23573996.8274
 96  7 11  3 42 30.0000000  0  7G29G25G 1G31G15G21G14
  -5056199.32644  -3939889.98644  24087915.7924   24087918.8254
 -18441822.72444 -14370238.26344  20796370.2044   20796371.1694
 -16953849.13644 -13210765.50044  21965516.4144   21965517.7514
        -0.98154        -0.36254  24921132.3134   24921131.6854
 -17223435.49244 -13420852.91044  21035360.9494   21035362.6954
 -12558040.05244  -9785473.04044  22549434.9124   22549437.3824
  -9532480.82144  -7427902.52544  23558357.5664   23558357.9234
 96  7 11  3 43  0.0000000  0  7G29G25G 1G31G15G21G14
  -5130001.28244  -3997397.95844  24073871.1664   24073873.6384
 -18475036.91444 -14396119.43644  20790049.6394   20790050.6454
 -16886245.79444 -13158087.56444  21978380.9724   21978382.4634
     76862.10544     59892.95944  24935759.0624   24935760.4294
 -17265913.65044 -13453952.76444  21027277.7244   21027279.6344
 -12490602.28044  -9732924.19844  22562267.9494   22562269.8594
  -9614693.63244  -7491964.42644  23542712.9534   23542716.0094
 96  7 11  3 43 30.0000000  0  7G29G25G 1G31G15G21G14
  -5203655.96244  -4054791.13744  24059853.9924   24059857.9704
 -18507786.17044 -14421638.32144  20783817.9644   20783818.6334
 -16818575.72644 -13105357.64344  21991257.9844   21991259.0534
    153645.39844    119724.08344  24950368.0264   24950367.4694
 -17307862.19644 -13486639.93744  21019294.7634   21019296.8344
 -12422934.19844  -9680195.70544  22575144.6904   22575146.5644
  -9696934.22244  -7556047.96444  23527062.7614   23527065.8884
 96  7 11  3 44  0.0000000  0  6G29G 1G15G21G14G25
  -5277144.65544  -4112055.00444  24045870.8054   24045873.9684
 -16750812.22244 -13052554.92244  22004153.1094   22004154.7664
 -17349243.52544 -13518885.12044  21011420.3034   21011422.1044
 -12355032.28844  -9627285.16444  22588065.6894   22588067.9514
  -9779146.93044  -7620109.74844  23511418.1764   23511422.1204
 -18540020.49144 -14446755.95844  20777683.7774   20777684.5174
 96  7 11  3 44 30.0000000  0  6G29G 1G15G21G14G25
  -5350498.40044  -4169213.74544  24031912.1374   24031912.7784
 -16682958.64144 -12999682.00044  22017065.2074   22017066.4764
 -17390065.98444 -13550694.82144  21003651.9794   21003653.8124
 -12286914.01844  -9574206.02844  22601028.4294   22601031.1474
  -9861342.31444  -7684158.07244  23495777.2314   23495779.1874
 -18571731.76044 -14471466.02044  20771649.4524   20771650.0214
 96  7 11  3 45  0.0000000  0  6G15G25G29G 1G21G14
 -17430292.51944 -13582040.16044  20995997.1064   20995999.0274
 -18602855.14644 -14495717.99344  20765726.6294   20765727.3684
  -5423705.60444  -4226258.27944  24017980.6114   24017982.1904
 -16614984.42244 -12946715.08244  22030000.2974   22030001.7844
 -12218537.28344  -9520925.48744  22614040.2564   22614042.8054
  -9943492.76544  -7748171.41944  23480144.1704   23480146.5484
 96  7 11  3 45 30.0000000  0  7G25G29G 1G31G15G21G14
 -18633406.48644 -14519524.21044  20759912.8344   20759913.5814
  -5496771.86644  -4283192.95144  24004075.1824   24004078.3084
 -16546912.14044 -12893671.75144  22042953.7494   22042955.4024
        -0.71454        -0.44554  25008703.2704   25008702.9284
 -17469925.46644 -13612922.96644  20988455.5104   20988457.2334
 -12149888.14044  -9467432.65444  22627103.8624   22627105.7194
 -10025610.17944  -7812159.00644  23464517.3914   23464520.4574
 96  7 11  3 46  0.0000000  0  7G29G25G 1G31G15G21G14
  -5569752.04644  -4340060.55944  23990187.2344   23990190.9944
 -18663462.34344 -14542944.34044  20754193.5264   20754194.3474
 -16478799.63644 -12840597.07344  22055915.2494   22055917.2044
     76417.95144     59546.56044  25023245.6404   25023242.5314
 -17509025.18544 -13643390.26944  20981015.1004   20981016.9764
 -12081012.02044  -9413762.95644  22640210.4684   22640212.9224
 -10107762.07844  -7876173.43544  23448882.2124   23448887.1724
 96  7 11  3 46 30.0000000  0  7G25G29G 1G31G15G21G14
 -18692976.09644 -14565942.05744  20748577.4454   20748578.0884
  -5642584.52144  -4396813.10044  23976327.0654   23976330.5234
 -16410589.87444 -12787446.59744  22068894.9844   22068896.2564
    152760.94444    119034.58144  25037772.1264   25037774.9334
 -17547543.28244 -13673404.36344  20973685.0634   20973686.4864
 -12011835.96744  -9359859.55444  22653374.0214   22653376.6424
 -10189921.51344  -7940193.74944  23433249.0474   23433253.1124
 96  7 11  3 47  0.0000000  0  7G25G29G 1G31G15G21G14
 -18721950.09844 -14588519.18844  20743063.7414   20743064.1624
  -5715231.94944  -4453421.46444  23962502.7504   23962505.7844
 -16342269.14644 -12734209.66744  22081896.1114   22081897.0064
    229057.91644    178486.76744  25052289.4034   25052295.3364
 -17585462.36144 -13702951.68544  20966469.4074   20966471.0604
 -11942336.95244  -9305704.47644  22666599.2454   22666601.3224
 -10272074.52944  -8004209.06044  23417616.7014   23417618.3224
 96  7 11  3 47 30.0000000  0  7G25G29G 1G31G15G21G14
 -18750600.56344 -14610844.20944  20737611.8024   20737612.4894
  -5787889.81944  -4510037.94444  23948676.7294   23948681.2644
 -16274037.70544 -12681042.30644  22094879.9414   22094881.3264
    305106.83344    237745.59544  25066756.5194
 -17622987.43944 -13732192.00144  20959328.2874   20959330.6334
 -11872730.04044  -9251465.32844  22679845.1564   22679847.7454
 -10354422.28144  -8068376.15944  23401946.7624   23401947.6924
 96  7 11  3 48  0.0000000  0  7G29G25G 1G31G15G21G14
  -5860408.89044  -4566546.26444  23934877.3494   23934882.4274
 -18778762.81844 -14632788.80644  20732252.6584   20732253.0814
 -16205732.03644 -12627817.10944  22107878.3294   22107880.1294
    381041.02844                  25081206.0304
 -17659973.28644 -13761012.12844  20952290.0344   20952292.3594
 -11802886.52044  -9197041.81644  22693136.1794   22693139.0574
 -10436814.82344  -8132578.14244  23386267.4764   23386270.6094
 96  7 11  3 48 30.0000000  0  7G25G29G 1G31G15G21G14
 -18806216.06644 -14654180.92844  20727028.5154   20727029.0184
  -5932576.00444  -4622780.31644  23921145.1544   23921147.2224
 -16137140.72844 -12574369.33544  22120930.7734   22120932.3034
    457072.76944    356160.40244  25095679.0134
 -17696196.52744 -13789238.02144  20945397.1024   20945398.9224
 -11732604.71244  -9142276.79144  22706510.4434   22706512.8994
 -10519019.57344  -8196633.72944  23370624.3854   23370627.4814
 96  7 11  3 49  0.0000000  0  7G25G29G 1G31G15G21G14
 -18833078.13444 -14675112.39144  20721916.5474   20721917.4054
  -6004525.42144  -4678844.76544  23907453.5874   23907454.3614
 -16068397.97644 -12520803.55244  22134011.8934   22134013.7194
    533079.56644    415386.48844  25110145.6274   25110141.5394
 -17731770.50844 -13816957.99444  20938627.9274   20938629.8384
 -11662023.72144  -9087278.62144  22719941.8274   22719944.0924
 -10601149.19044  -8260630.79244  23354996.6534   23354999.7854
 96  7 11  3 49 30.0000000  0  7G25G29G 1G31G15G21G14
 -18859463.25844 -14695672.20944  20716895.6184   20716896.5894
  -6076373.52544  -4734830.26044  23893781.6364   23893782.7344
 -15999619.69944 -12467210.08844  22147100.1054   22147101.4084
    608942.51444    474500.52344  25124582.4574   25124579.3404
 -17766803.70244 -13844256.57544  20931961.1254   20931963.1044
 -11591265.25644  -9032142.16744  22733405.6304   22733408.5974
 -10683311.74144  -8324653.52644  23339361.4284   23339363.2034
 96  7 11  3 50  0.0000000  0  7G25G29G 1G31G15G21G14
 -18885443.90644 -14715916.85044  20711951.5104   20711952.3294
  -6148179.77544  -4790783.13644  23880116.6104   23880118.6734
 -15930877.56444 -12413644.79144  22160181.1394   22160182.6884
    684594.54344    533450.16344  25138977.1694
 -17801356.48244 -13871180.81044  20925385.7674   20925387.7634
 -11520381.67344  -8976908.21144  22746894.7394   22746896.9044
 -10765571.99244  -8388752.41244  23323707.2284   23323709.0334
 96  7 11  3 50 30.0000000  0  7G25G29G 1G31G15G21G14
 -18911037.73244 -14735860.07444  20707081.4624   20707082.1544
  -6219950.57244  -4846708.36144  23866459.9454   23866461.2264
 -15862177.76044 -12360112.47644  22173254.1834   22173255.8064
    760044.73844                  25153330.2734
 -17835426.60644 -13897728.94844  20918902.5064   20918904.5434
 -11449364.01044  -8921569.77044  22760409.1274   22760411.5114
 -10847933.04344  -8452929.81344  23308033.6194   23308037.4984
 96  7 11  3 51  0.0000000  0  7G25G29G 1G31G15G21G14
 -18935885.66444 -14755222.08244  20702353.0544   20702353.6784
  -6291317.59144  -4902318.96844  23852878.7674   23852882.1494
 -15793150.17044 -12306324.73844  22186389.8324   22186392.3064
    835648.73344                  25167714.5334
 -17868658.16444 -13923623.66244  20912578.9974   20912580.7104
 -11377836.51144  -8865834.07244  22774020.6604   22774022.7874
 -10930047.41244  -8516914.99244  23292408.6394   23292411.5064
 96  7 11  3 51 30.0000000  0  7G25G29G 1G31G15G21G14
 -18959995.26044 -14774008.76344  20697765.3324   20697765.7354
  -6362278.62444  -4957613.22444  23839375.7834   23839377.1294
 -15723797.92644 -12252284.03244  22199587.4364   22199588.7604
    911385.97144                  25182131.6424
 -17901071.36644 -13948880.68944  20906410.7174   20906412.4514
 -11305806.49644  -8809706.81144  22787727.1694   22787729.4364
 -11011920.21144  -8580711.95544  23276829.0084   23276831.0254
 96  7 11  3 52  0.0000000  0  7G25G29G 1G31G15G21G14
 -18983624.60944 -14792421.22544  20693268.6024   20693269.2214
  -6433118.82744  -5012813.31944  23825894.9254   23825894.9714
 -15654400.24444 -12198207.91944  22212793.0114   22212794.4044
    986976.44944    769072.12244  25196518.2544   25196519.9654
 -17932949.31844 -13973720.64644  20900344.5944   20900346.3774
 -11233558.34444  -8753409.55144  22801475.5814   22801478.0434
 -11093836.07844  -8644542.47944  23261240.4294   23261243.4144
 96  7 11  3 52 30.0000000  0  7G25G29G 1G31G15G21G14
 -19006734.50244 -14810428.91644  20688870.7984   20688871.2364
  -6503829.14344  -5067912.25044  23812439.6114   23812440.9604
 -15584938.45744 -12144081.85944  22226011.0594   22226013.0824
   1062433.74544    827869.97444  25210878.7574
 -17964273.02844 -13998128.71744  20894383.9914   20894385.9194
 -11161082.24244  -8696934.66344  22815267.3494   22815268.3834
 -11175770.44444  -8708387.38344  23245648.4814   23245650.6184
 96  7 11  3 53  0.0000000  0  7G25G29G 1G31G15G21G14
 -19029270.09844 -14827989.10944  20684582.4254   20684582.7594
  -6574365.46844  -5122875.58844  23799017.1114   23799018.8034
 -15515384.50244 -12089883.97744  22239246.5884   22239248.2884
   1137786.84044    886586.64344  25225216.1944
 -17995001.81844 -14022073.22144  20888536.3854   20888538.2944
 -11088341.50944  -8640253.57844  22829109.5704   22829110.8664
 -11257679.52344  -8772212.60944  23230062.6374   23230064.0864
 96  7 11  3 53 30.0000000  0  7G25G29G 1G31G15G21G14
 -19051206.51444 -14845082.40044  20680408.1894   20680408.8794
  -6644714.06944  -5177692.62044  23785629.4304   23785632.4254
 -15445718.05144 -12035598.42844  22252503.9234   22252505.2884
   1213056.95144                  25239536.4414
 -18025107.53944 -14045532.21844  20882807.3304   20882809.4434
 -11015323.86544  -8583356.72644  22843003.9324   22843006.8424
 -11339528.27544  -8835990.84644  23214487.6674   23214489.5904
 96  7 11  3 54  0.0000000  0  7G25G29G 1G31G15G21G14
 -19072597.69044 -14861750.82944  20676337.4954   20676338.0214
  -6714926.24444  -5232403.31244  23772267.6554   23772271.2214
 -15375987.86744 -11981263.21744  22265773.6874   22265775.0514
   1288190.49144                  25253831.5204
 -18054622.98444 -14068531.25844  20877190.5614   20877192.9094
 -10942072.38344  -8526277.64844  22856943.6874   22856945.7204
 -11421361.05744  -8899756.62344  23198915.1684   23198917.9634
 96  7 11  3 54 30.0000000  0  7G25G29G 1G31G15G21G14
 -19093423.61244 -14877978.79844  20672374.2364   20672374.6764
  -6784962.08244  -5286976.64344  23758940.2494   23758942.0554
 -15306159.55344 -11926851.54044  22279061.1404   22279061.7144
   1363210.18344                  25268111.3614
 -18083506.71044 -14091038.04844  20871694.4454   20871696.0504
 -10868537.76944  -8468977.97744  22870936.6634   22870937.4134
 -11503132.75444  -8963474.77844  23183353.7714   23183356.8524
 96  7 11  3 55  0.0000000  0  7G25G29G 1G31G15G21G14
 -19113735.26344 -14893806.03844  20668508.9154   20668509.5614
  -6854851.68644  -5341436.05144  23745641.5014   23745642.5814
 -15236269.71044 -11872391.91844  22292360.8454   22292362.4214
   1438094.44744                  25282363.4634
 -18111788.12944 -14113075.50844  20866312.7784   20866314.4724
 -10794750.36244  -8411481.31944  22884977.6044   22884979.9524
 -11584874.81044  -9027169.83644  23167799.1734   23167802.0674
 96  7 11  3 55 30.0000000  0  7G25G29G 1G31G15G21G14
 -19133594.53044 -14909280.77044  20664729.9754   20664730.6074
  -6924655.19944  -5395828.36544  23732358.4314   23732359.9794
 -15166375.40144 -11817928.82244  22305661.1014   22305662.8894
   1512791.15344                  25296578.8354
 -18139519.25144 -14134684.16344  20861035.7024   20861037.3294
 -10720770.52244  -8353834.70744  22899055.8334   22899057.1224
 -11666643.27344  -9090885.50944  23152238.4424   23152241.6444
 96  7 11  3 56  0.0000000  0  7G25G29G 1G31G15G21G14
 -19152925.15844 -14924343.57744  20661051.3944   20661052.0034
  -6994288.24844  -5450087.85844  23719107.2814   23719109.9684
 -15096408.41544 -11763409.09444  22318975.5244   22318977.3534
   1587384.64244                  25310772.8284
 -18166617.78944 -14155799.90144  20855878.8374   20855880.5244
 -10646511.03044  -8295970.17544  22913186.7444   22913189.5834
 -11748366.15244  -9154565.65044  23136687.7484   23136690.0104
 96  7 11  3 56 30.0000000  0  7G25G29G 1G31G15G21G14
 -19171706.39444 -14938978.28744  20657477.4134   20657478.0174
  -7063744.32844  -5504209.40144  23705889.2344   23705891.4734
 -15026356.72344 -11708823.35544  22332305.7744   22332307.0824
   1661904.79144                  25324950.8074
 -18193077.52544 -14176417.86944  20850843.5404   20850845.6704
 -10571959.35144  -8237877.98844  22927373.7664   22927374.6984
 -11830036.52944  -9218204.86644  23121146.4644   23121148.3104
 96  7 11  3 57  0.0000000  0  6G29G 1G21G14G25G15
  -7133096.74544  -5558250.19344  23692692.7444   23692694.7204
 -14956288.16744 -11654224.48244  22345639.1784   22345640.8464
 -10497202.10744  -8179625.60244  22941599.1744   22941601.5584
 -11911740.72044  -9281870.41744  23105598.6674   23105601.8434
 -19189999.63744 -14953232.73844  20653996.3974   20653997.0414
 -18218972.13544 -14196595.48344  20845915.8064   20845918.2354
 96  7 11  3 57 30.0000000  0  6G29G 1G21G25G15G14
  -7202357.13744  -5612219.27444  23679513.6054   23679512.8624
 -14886216.42444 -11599623.12144  22358973.5574   22358975.2074
 -10422264.87044  -8121232.98344  22955859.7394   22955862.4714
 -19207813.64144 -14967113.76144  20650606.7644   20650607.3484
 -18244326.47344 -14216352.10444  20841091.5514   20841093.4854
 -11993517.00344  -9345592.15844  23090037.2974   23090039.1804
 96  7 11  3 58  0.0000000  0  6G29G 1G21G14G25G15
  -7271475.87844  -5666078.03044  23666360.1364   23666361.9674
 -14816091.63944 -11544980.43244  22372317.8704   22372319.0074
 -10347098.52444  -8062661.81144  22970163.5204   22970166.2234
 -12075317.55244  -9409332.80344  23074470.7914   23074472.1974
 -19225093.01544 -14980578.19044  20647318.4344   20647319.0704
 -18269099.45944 -14235655.72244  20836377.4574   20836379.2484
 96  7 11  3 58 30.0000000  0  6G29G 1G21G25G15G14
  -7340365.81644  -5719758.44544  23653250.7014   23653254.6384
 -14745825.13144 -11490227.30144  22385689.3344   22385690.9184
 -10271617.66144  -8003845.56744  22984527.1154   22984530.2444
 -19241742.70344 -14993551.95544  20644150.3524   20644150.9754
 -18293208.92544 -14254442.31344  20831789.7444   20831791.4704
 -12157052.38344  -9473022.25444  23058916.8744   23058918.4804
 96  7 11  3 59  0.0000000  0  6G29G 1G21G14G25G15
  -7408997.13444  -5773237.32844  23640190.5944   23640193.2134
 -14675403.38344 -11435353.21144  22399089.9454   22399091.4794
 -10195802.44644  -7944768.78144  22998954.1664   22998956.6894
 -12238685.45644  -9536632.39844  23043383.1174   23043385.4554
 -19257753.21944 -15006027.66444  20641103.3584   20641104.2804
 -18316629.65044 -14272692.22244  20827332.6094   20827334.9004
 96  7 11  3 59 30.0000000  0  6G29G 1G25G15G21G14
  -7477395.75544  -5826534.91444  23627174.8724   23627177.3074
 -14604858.97644 -11380383.55244  22412514.4234   22412516.6704
 -19273164.83144 -15018036.69744  20638170.6444   20638171.3604
 -18339386.68144 -14290424.96844  20823002.1394   20823004.2944
 -10119671.90344  -7885446.30044  23013441.3574   23013443.7864
 -12320217.07444  -9600163.49044  23027868.1724   23027870.5284
 96  7 11  4  0  0.0000000  0  6G29G 1G21G14G25G15
  -7545628.31344  -5879703.10744  23614190.2944   23614192.3034
 -14534251.45944 -11325364.70344  22425950.6314   22425952.6124
 -10043272.51344  -7825914.31644  23027979.5084   23027982.5694
 -12401684.67544  -9663644.69744  23012365.4074   23012367.9004
 -19288047.11844 -15029633.26644  20635338.5914   20635339.2404
 -18361534.72744 -14307683.18044  20818787.5264   20818789.3494
 96  7 11  4  0 30.0000000  0  6G29G 1G25G15G21G14
  -7613663.86644  -5932717.78444  23601243.2284   23601243.6504
 -14463538.89944 -11270264.00044  22439406.8774   22439408.5664
 -19302380.25644 -15040801.92544  20632611.2494   20632611.6094
 -18383035.13044 -14324436.73744  20814696.2214   20814698.1374
  -9966564.43644  -7766141.81144  23042576.5464   23042578.2314
 -12483060.94844  -9727054.72944  22996879.6124   22996882.0094
 96  7 11  4  1  0.0000000  0  6G29G 1G21G25G15G14
  -7681590.06344  -5985647.25944  23588317.1944   23588320.3074
 -14392806.92744 -11215148.17644  22452866.1254   22452867.7724
  -9889637.85144  -7706199.03244  23057215.0304   23057217.4214
 -19316260.78544 -15051617.90044  20629969.6494   20629970.4124
 -18403969.71644 -14340749.39144  20810712.0544   20810714.0144
 -12564436.56344  -9790464.26844  22981394.6444   22981397.2624
 96  7 11  4  1 30.0000000  0  6G29G 1G25G15G21G14
  -7749387.46344  -6038476.37544  23575416.1134   23575419.5444
 -14322025.53844 -11159993.84344  22466335.5994   22466337.3574
 -19329648.13144 -15062049.57844  20627422.1254   20627422.5944
 -18424311.49644 -14356600.12644  20806841.4604   20806843.3204
  -9812457.86844  -7646058.81044  23071902.1074   23071903.8204
 -12645807.39544  -9853870.07444  22965909.6074   22965912.1944
 96  7 11  4  2  0.0000000  0  6G29G 1G21G25G15G14
  -7817028.83244  -6091183.89544  23562544.5684   23562546.4434
 -14251174.66544 -11104785.37044  22479818.1454   22479819.6434
  -9735006.89044  -7585707.40544  23086640.5484   23086642.9614
 -19342521.26044 -15072080.56644  20624972.4594   20624973.0284
 -18444035.00444 -14371969.08944  20803088.1884   20803089.9354
 -12727163.58344  -9917264.44544  22950427.1074   22950430.9834
 96  7 11  4  2 30.0000000  0  6G29G25G 1G15G21G14
  -7884548.55044  -6143796.62044  23549695.5674   23549698.8514
 -19354910.83744 -15081734.76144  20622614.8064   20622615.5014
 -14180293.22544 -11049553.07744  22493306.3884   22493307.7224
 -18463170.14944 -14386879.58544  20799446.9954   20799448.8624
  -9657336.22644  -7525184.81444  23101421.0404   23101422.8334
 -12808535.78844  -9980671.28944  22934942.1384   22934945.0694
 96  7 11  4  3  0.0000000  0  6G29G 1G21G25G15G14
  -7951946.86744  -6196314.74344  23536869.9064   23536872.4404
 -14109393.20544 -10994306.29444  22506798.6044   22506800.6204
  -9579462.13044  -7464503.71844  23116240.1674   23116243.2734
 -19366817.93444 -15091013.00144  20620349.0694   20620349.4804
 -18481722.10044 -14401335.64244  20795916.4254   20795918.6014
 -12889910.47244 -10044080.09344  22919457.9874   22919459.9874
 96  7 11  4  3 30.0000000  0  6G29G 1G25G15G21G14
  -8019166.95744  -6248694.01844  23524079.0154   23524080.0434
 -14038421.29444 -10939003.50644  22520303.6234   22520306.1844
 -19378188.99044 -15099873.54344  20618185.1384   20618185.7054
 -18499643.47344 -14415300.33944  20792506.2924   20792508.3154
  -9501344.62844  -7403632.96244  23131104.8184   23131107.1944
 -12971225.66644 -10107442.53844  22903984.5804   22903986.0974
 96  7 11  4  4  0.0000000  0  6G29G 1G21G25G15G14
  -8086225.82944  -6300947.67344  23511317.6304   23511320.8194
 -13967394.73144 -10883658.12544  22533820.1064   22533820.9414
  -9423022.74344  -7342602.94444  23146009.1264   23146011.3004
 -19389056.41444 -15108341.64244  20616117.1394   20616117.6034
 -18516959.27744 -14428793.16544  20789211.1694   20789213.1184
 -13052491.07144 -10170766.18144  22888520.5184   22888522.5964
 96  7 11  4  4 30.0000000  0  6G29G 1G25G15G21G14
  -8153111.45544  -6353066.32844  23498589.9324   23498592.0124
 -13896300.01744 -10828259.64944  22547348.8464   22547350.2044
 -19399372.68144 -15116380.27144  20614153.9724   20614154.6264
 -18533649.04044 -14441798.16644  20786035.2904   20786036.8794
  -9344474.17144  -7281396.27244  23160956.1354   23160957.7534
 -13133686.65044 -10234035.39544  22873069.3644   22873072.2384
 96  7 11  4  5  0.0000000  0  6G29G 1G21G25G15G14
  -8219835.65444  -6405059.19944  23485893.1694   23485893.6504
 -13825158.75044 -10772824.90044  22560885.8894   22560887.3224
  -9265708.93944  -7220020.81944  23175944.8014   23175947.9484
 -19409136.92644 -15123988.75144  20612295.7504   20612296.3914
 -18549730.16644 -14454328.90644  20782975.1894   20782976.9744
 -13214835.28444 -10297268.03944  22857627.2134   22857629.8474
 96  7 11  4  5 30.0000000  0  6G29G25G 1G15G21G14
  -8286389.91844  -6456919.61044  23473227.8454   23473230.5904
 -19418321.32544 -15131145.40744  20610547.9704   20610548.5584
 -13753960.16644 -10717345.49344  22574434.5014   22574436.8324
 -18565182.01544 -14466369.30444  20780034.7554   20780036.5724
  -9186697.56744  -7158453.53144  23190979.9604   23190983.9244
 -13295925.59944 -10360455.25744  22842196.4044   22842198.3584
 96  7 11  4  6  0.0000000  0  6G29G 1G25G15G21G14
  -8352810.67844  -6508676.03644  23460588.1424   23460590.8714
 -13682737.35344 -10661847.19944  22587987.6224   22587989.2304
 -19426936.72944 -15137858.68544  20608908.6824   20608909.1574
 -18580018.18744 -14477929.95344  20777211.2574   20777213.2974
  -9107444.16044  -7096697.63544  23206061.6034   23206065.5674
 -13376973.79244 -10423609.67644  22826773.2664   22826775.8754
 96  7 11  4  6 30.0000000  0  6G29G25G 1G15G21G14
  -8419052.89744  -6560293.34544  23447983.7624   23447985.5864
 -19434931.47444 -15144088.33844  20607387.3064   20607387.8474
 -13611459.30444 -10606305.84844  22601551.9204   22601554.0694
 -18594194.47644 -14488976.41444  20774513.7834   20774515.6684
  -9027903.00544  -7034717.53944  23221197.7664   23221200.0574
 -13457936.52044 -10486697.47644  22811365.8724   22811368.9714
 96  7 11  4  7  0.0000000  0  6G29G 1G25G15G21G14
  -8485139.32144  -6611789.24644  23435407.0394   23435409.5264
 -13540142.82044 -10550734.56744  22615122.9314   22615125.1104
 -19442366.52044 -15149881.85844  20605972.3494   20605972.8614
 -18607742.96144 -14499533.67444  20771935.4484   20771937.5174
  -8948104.33144  -6972536.76544  23236383.4124   23236384.9944
 -13538852.08144 -10549748.51044  22795968.1254   22795971.1464
 96  7 11  4  7 30.0000000  0  6G29G25G 1G15G21G14
  -8551080.30944  -6663171.81644  23422858.0974   23422862.0714
 -19449264.10444 -15155256.57644  20604659.8294   20604660.3294
 -13468782.69244 -10495129.25844  22628702.1944   22628703.9554
 -18620662.51544 -14509600.85344  20769476.7984   20769478.9214
  -8868047.95444  -6910155.19144  23251617.6624   23251620.2344
 -13619723.77344 -10612765.37044  22780578.8864   22780581.6114
 96  7 11  4  8  0.0000000  0  6G29G 1G25G15G21G14
  -8616865.28944  -6714432.79944  23410340.1474   23410342.5234
 -13397367.76444 -10439481.26844  22642292.0844   22642293.1554
 -19455627.00144 -15160214.65544  20603448.9414   20603449.8344
 -18632952.10944 -14519177.15544  20767138.3114   20767140.3404
  -8787744.14544  -6847580.79144  23266898.3674   23266899.2384
 -13700564.50244 -10675758.09644  22765195.5704   22765197.1624
 96  7 11  4  8 30.0000000  0  6G29G25G 1G15G21G14
  -8682446.12244  -6765534.71444  23397861.9814   23397862.3484
 -19461431.02444 -15164737.25544  20602344.5364   20602345.1374
 -13325850.93544 -10383753.87644  22655901.3134   22655903.0174
 -18644576.46344 -14528235.08744  20764926.5264   20764928.6244
  -8707159.23244  -6784787.37144  23282234.2554   23282235.9624
 -13781343.96744 -10738703.08244  22749824.3374   22749825.4454
 96  7 11  4  9  0.0000000  0  6G29G 1G25G15G21G14
  -8747854.36244  -6816502.15744  23385414.2974   23385415.7604
 -13254253.15244 -10327963.39144  22669526.2024   22669527.2694
 -19466708.34044 -15168849.42944  20601340.2454   20601340.8514
 -18655551.99944 -14536787.44844  20762838.0244   20762839.5334
  -8626299.68544  -6721779.97744  23297620.8134   23297622.5974
 -13862068.53244 -10801605.31044  22734463.1654   22734465.6654
 96  7 11  4  9 30.0000000  0  6G25G29G 1G15G21G14
 -19471391.05844 -15172498.28444  20600449.2764   20600449.7814
  -8813040.51844  -6867296.55144  23373009.6344   23373011.0984
 -13182536.96744 -10272080.65044  22683172.9314   22683175.9374
 -18665825.00944 -14544792.38644  20760883.0264   20760884.8134
  -8545111.13144  -6658516.18444  23313070.2324   23313073.3554
 -13942676.34144 -10864416.55644  22719123.3244   22719125.6814
 96  7 11  4 10  0.0000000  0  6G29G 1G25G15G21G14
  -8878115.19044  -6918004.05344  23360626.6024   23360628.0934
 -13110838.06344 -10216211.38044  22696816.6764   22696819.3424
 -19475614.92444 -15175789.58944  20599645.4444   20599646.1894
 -18675529.65244 -14552354.43944  20759036.0714   20759037.9154
  -8463724.61444  -6595098.14844  23328557.8554   23328560.5734
 -14023293.32344 -10927234.94744  22703782.1964   22703785.3684
 96  7 11  4 10 30.0000000  0  6G25G29G 1G15G21G14
 -19479312.84644 -15178671.07144  20598941.6834   20598942.2664
  -8943000.15044  -6968563.74244  23348279.9884   23348280.7764
 -13039088.13744 -10160302.34044  22710470.6874   22710471.7644
 -18684587.58744 -14559412.56544  20757312.2964   20757314.2244
  -8382050.82644  -6531456.26844  23344100.2894   23344101.1734
 -14103820.90744 -10989983.67344  22688458.0604   22688460.2354
 96  7 11  4 11  0.0000000  0  6G29G 1G25G15G21G14
  -9007727.33244  -7019000.47344  23335962.2624   23335963.2894
 -12967317.42444 -10104377.10044  22724128.0834   22724130.0684
 -19482507.27744 -15181160.22544  20598333.6724   20598334.3204
 -18693027.88244 -14565989.41344  20755706.5014   20755708.2884
  -8300117.78044  -6467612.36244  23359691.5234   23359692.3154
 -14184289.07244 -11052686.11944  22673145.8884   22673147.9664
 96  7 11  4 11 30.0000000  0  6G29G25G 1G15G21G14
  -9072268.59144  -7069292.34244  23323679.9864   23323681.9314
 -19485165.97744 -15183231.92644  20597827.7414   20597828.5054
 -12895487.49944 -10048405.72844  22737796.1444   22737797.8534
 -18700827.63944 -14572067.13944  20754222.1784   20754224.0814
  -8217913.04144  -6403556.74344  23375334.4714   23375336.4444
 -14264689.03044 -11115335.39644  22657845.7244   22657848.1324
 96  7 11  4 12  0.0000000  0  6G29G 1G25G15G21G14
  -9136663.97044  -7119470.51344  23311425.2714   23311427.9354
 -12823619.33244  -9992404.55744  22751472.5414   22751474.7764
 -19487320.32744 -15184910.62844  20597417.8734   20597418.6424
 -18708016.80344 -14577669.07944  20752854.0714   20752855.9134
  -8135466.28644  -6339312.54844  23391023.7374   23391025.5734
 -14345039.01744 -11177945.74044  22642555.6024   22642557.7644
 96  7 11  4 12 30.0000000  0  6G29G25G 1G15G21G14
  -9200910.73344  -7169532.88844  23299199.7384   23299203.3034
 -19488920.55344 -15186157.54644  20597113.3614   20597113.8564
 -12751700.35944  -9936363.80444  22765158.9894   22765160.5764
 -18714567.80744 -14582773.74944  20751607.3774   20751609.2724
  -8052765.72344  -6274870.58344  23406761.2994   23406763.5964
 -14425299.67844 -11240486.46744  22627282.5234   22627283.8244
 96  7 11  4 13  0.0000000  0  6G29G 1G25G15G21G14
  -9265068.83644  -7219526.16344  23286990.8674   23286991.8544
 -12679779.34044  -9880321.44944  22778845.0024   22778847.2244
 -19490015.69644 -15187010.89144  20596904.7804   20596905.3334
 -18720533.39444 -14587422.25444  20750472.2254   20750473.8644
  -7969873.88744  -6210279.57244  23422533.8574   23422535.6214
 -14505531.24444 -11303004.54044  22612015.1894   22612015.9804
 96  7 11  4 13 30.0000000  0  6G29G25G 1G15G21G14
  -9329093.30944  -7269415.33044  23274807.7394   23274809.5174
 -19490564.41544 -15187438.45044  20596800.1874   20596800.9704
 -12607822.54644  -9824251.22444  22792537.5054   22792539.4484
 -18725871.85744 -14591582.09244  20749456.3714   20749458.2864
  -7886767.25944  -6145521.17744  23438349.6654   23438351.4504
 -14585680.99044 -11365458.85644  22596763.6604   22596765.8914
 96  7 11  4 14  0.0000000  0  6G29G 1G25G15G21G14
  -9393004.24444  -7319216.01544  23262645.8344   23262647.8444
 -12535862.90344  -9768178.77544  22806231.2704   22806233.2074
 -19490586.16744 -15187455.39144  20596796.1674   20596796.6444
 -18730602.37944 -14595268.21244  20748556.0144   20748557.6374
  -7803472.89444  -6080616.52844  23454200.0204   23454203.1424
 -14665751.76044 -11427851.63644  22581526.5134   22581528.6554
 96  7 11  4 14 30.0000000  0  6G29G25G 1G15G21G14
  -9456781.68444  -7368912.67144  23250509.3344   23250512.3714
 -19490068.11944 -15187051.70744  20596894.7584   20596895.2194
 -12463885.20744  -9712092.25944  22819928.0994   22819929.5074
 -18734709.35744 -14598468.45644  20747774.4844   20747776.6254
  -7719979.48644  -6015556.78144  23470088.0924   23470089.2574
 -14745746.27444 -11490184.98644  22566303.9004   22566305.8854
 96  7 11  4 15  0.0000000  0  6G29G 1G21G25G15G14
  -9520380.17744  -7418469.88744  23238406.1114   23238408.0794
 -12391824.84044  -9655941.32444  22833640.9734   22833642.0974
  -7636231.95744  -5950298.98344  23486025.2134   23486028.5574
 -19488982.66144 -15186205.88544  20597101.5144   20597101.8664
 -18738155.17144 -14601153.50244  20747118.9334   20747120.6004
 -14825647.80044 -11552445.87944  22551098.9274   22551101.3384
 96  7 11  4 15 30.0000000  0  6G29G25G 1G15G21G14
  -9583813.37244  -7467898.30244  23226335.8854   23226336.7424
 -19487336.75644 -15184923.34844  20597414.5714   20597415.0594
 -12319705.42944  -9599744.38144  22847364.4484   22847366.0894
 -18740960.95344 -14603339.82444  20746584.8154   20746587.0684
  -7552245.86144  -5884855.28144  23502007.0764   23502010.0364
 -14905470.54144 -11614645.38244  22535908.6904   22535910.2894
 96  7 11  4 16  0.0000000  0  6G29G 1G21G25G15G14
  -9647057.37944  -7517179.30244  23214300.7264   23214303.6244
 -12247507.00044  -9543485.86844  22861102.4184   22861104.9274
  -7467985.21144  -5819197.63844  23518040.9704   23518044.4274
 -19485112.50544 -15183190.15744  20597837.8624   20597838.3854
 -18743106.24444 -14605011.48044  20746176.6774   20746178.5464
 -14985205.99744 -11676776.87644  22520735.5294   22520737.4124
 96  7 11  4 16 30.0000000  0  6G29G25G 1G15G21G14
  -9710098.97044  -7566302.57544  23202304.3684   23202305.8914
 -19482303.68544 -15181001.45244  20598372.4004   20598372.9084
 -12175234.32944  -9487169.50344  22874856.0584   22874857.0924
 -18744588.03744 -14606166.12244  20745894.6374   20745896.7374
  -7383436.64544  -5753315.67844  23534129.8074   23534131.1884
 -15064865.06744 -11738848.84144  22505577.2004   22505579.5914
 96  7 11  4 17  0.0000000  0  6G29G 1G21G25G15G14
  -9772944.51144  -7615273.07244  23190345.0164   23190347.8774
 -12102917.14544  -9430818.46144  22888618.2544   22888619.4694
  -7298618.19544  -5687223.38344  23550270.4884   23550273.2824
 -19478926.29144 -15178369.71044  20599014.9274   20599015.6214
 -18745416.56644 -14606811.72944  20745736.9134   20745739.1284
 -15144436.60144 -11800852.59644  22490435.7404   22490437.3154
 96  7 11  4 17 30.0000000  0  6G29G 1G25G15G21G14
  -9835591.80044  -7664089.06344  23178423.4084   23178426.0424
 -12030573.98744  -9374447.15744  22902384.4614   22902386.0244
 -19474989.58644 -15175302.13444  20599764.2454   20599764.6584
 -18745589.34244 -14606946.35844  20745704.1884   20745705.9394
  -7213543.95444  -5620931.79444  23566458.6954   23566458.7384
 -15223899.58344 -11862771.76844  22475314.5024   22475316.0014
 96  7 11  4 18  0.0000000  0  6G29G 1G21G25G15G14
  -9898086.15044  -7712785.90044  23166531.4944   23166533.9094
 -11958246.60644  -9318088.18244  22916147.9164   22916149.4474
  -7128253.17044  -5554471.44244  23582689.6484   23582694.2624
 -19470547.24244 -15171840.55944  20600609.6884   20600610.0984
 -18745142.15844 -14606597.89944  20745789.4814   20745791.1064
 -15303295.43044 -11924638.63144  22460205.5784   22460208.0304
 96  7 11  4 18 30.0000000  0  6G29G25G 1G15G21G14
  -9960397.09744  -7761339.82244  23154673.9994   23154676.1784
 -19465564.18844 -15167957.64744  20601557.6824   20601558.1964
 -11885883.46244  -9261701.31844  22929918.3204   22929919.9874
 -18744033.21844 -14605733.79044  20746000.1684   20746002.1384
  -7042705.72444  -5487811.10244  23598969.6814   23598974.4724
 -15382562.37844 -11986405.06344  22445121.6624   22445124.2034
 96  7 11  4 19  0.0000000  0  6G29G 1G21G25G15G14
 -10022560.77644  -7809779.00344  23142844.9774   23142845.7784
 -11813496.92644  -9205296.23544  22943692.0934   22943693.0594
  -6956933.71244  -5420975.82944  23615290.9334   23615296.5484
 -19460088.79844 -15163691.09744  20602599.7304   20602600.1854
 -18742292.34044 -14604377.26244  20746331.6004   20746333.4724
 -15461723.67744 -12048089.16544  22430057.0794   22430060.0914
 96  7 11  4 19 30.0000000  0  6G25G29G 1G15G21G14
 -19454117.93744 -15159038.46744  20603735.7854   20603736.2424
 -10084573.06344  -7858100.19944  23131044.1984   23131045.9904
 -11741059.44744  -9148851.44144  22957477.7824   22957478.9184
 -18739915.25644 -14602524.99344  20746783.9404   20746785.6484
  -6870915.87144  -5353948.90244  23631660.1764
 -15540787.18744 -12109697.07444  22415011.9704   22415014.3344
 96  7 11  4 20  0.0000000  0  6G29G 1G21G14G25G15
 -10146449.14244  -7906315.27544  23119270.2664   23119272.0964
 -11668590.43844  -9092382.08444  22971267.8124   22971269.9574
  -6784664.16444  -5286739.80044  23648074.0114
 -15619777.92044 -12171248.26244  22399980.6164   22399982.7494
 -19447662.48844 -15154008.23744  20604964.1354   20604964.6344
 -18736923.69044 -14600193.91044  20747353.2934   20747355.0874
 96  7 11  4 20 30.0000000  0  6G25G29G 1G15G21G14
 -19440741.77144 -15148615.45844  20606281.1254   20606281.5124
 -10208214.03344  -7954443.70944  23107516.3504   23107517.2824
 -11596115.40744  -9035908.03844  22985058.8684   22985060.6064
 -18733342.97244 -14597403.74744  20748034.4954   20748036.0414
  -6698208.73944  -5219371.99444  23664524.9304
 -15698709.52344 -12232753.36744  22384960.8914   22384962.4554
 96  7 11  4 21  0.0000000  0  7G25G29G22G 1G15G21G14
 -19433263.01944 -15142787.85044  20607704.2604   20607704.7414
 -10269779.89244  -8002417.03644  23095800.9264   23095800.7464
         0.00154                  24664262.0854
 -11523564.73344  -8979375.06944  22998864.5274   22998867.0764
 -18729094.23244 -14594093.04244  20748843.0834   20748844.8904
  -6611478.37744                  23681029.1854
 -15777514.48844 -12294159.79644  22369964.7424   22369966.3034
 96  7 11  4 21 30.0000000  0  7G25G29G22G 1G15G21G14
 -19425282.26044 -15136569.06544  20609223.0974   20609223.6104
 -10331231.54744  -8050301.38744  23084106.3204   23084106.6884
    -90537.32644                  24647034.0654
 -11451028.60544  -8922853.40744  23012667.8714   23012670.2024
 -18724258.27944 -14590324.76944  20749763.3114   20749765.2494
  -6524560.78044                  23697568.7494
 -15856265.23544 -12355523.96844  22354978.5754   22354980.5264
 96  7 11  4 22  0.0000000  0  7G25G29G22G 1G15G21G14
 -19416737.52944 -15129910.82144  20610848.9414   20610849.8754
 -10392530.65144  -8098066.86844  23072441.3294   23072443.3204
   -181201.45744                  24629780.1014
 -11378468.97044  -8866313.45644  23026475.7384   23026477.5034
 -18718782.72244 -14586058.10544  20750805.3744   20750807.3554
  -6437417.46644                  23714151.2354
 -15934901.93044 -12416799.28044  22340014.5954   22340016.6594
 96  7 11  4 22 30.0000000  0  7G25G29G22G 1G15G21G14
 -19407627.99744 -15122812.47244  20612582.7254   20612583.1014
 -10453683.06344  -8145718.04844  23060804.0924   23060805.6794
   -271970.38944                  24612508.9664
 -11305879.31144  -8809750.09244  23040289.8564   23040291.6664
 -18712667.36744 -14581292.90144  20751968.9974   20751971.0744
  -6350055.45944                  23730776.9034
 -16013423.25344 -12477984.70444  22325072.6394   22325073.9294
 96  7 11  4 23  0.0000000  0  7G25G29G22G 1G15G21G14
 -19397975.70344 -15115291.19344  20614419.3484   20614419.9584
 -10514705.32244  -8193267.81644  23049192.6464   23049194.0284
   -362846.40844   -282736.83544  24595215.3844
 -11233271.74444  -8753172.77944  23054106.1374   23054108.2144
 -18705932.51144 -14576044.96544  20753250.4454   20753252.5734
  -6262485.07444                  23747439.8534
 -16091851.18444 -12539097.33344  22310148.0454   22310150.1474
 96  7 11  4 23 30.0000000  0  7G25G29G22G 1G15G21G14
 -19387766.48044 -15107335.94344  20616361.8964   20616362.4574
 -10575579.02244  -8240701.82244  23037608.8344   23037610.0104
   -453788.22944                  24577909.1964
 -11160617.39644  -8696559.00244  23067931.5704   23067933.1754
 -18698546.39244 -14570289.55044  20754655.9474   20754658.1604
  -6174675.97144                  23764150.4094
 -16170155.11244 -12600113.34444  22295247.1534   22295249.0754
 96  7 11  4 24  0.0000000  0  7G25G29G22G 1G15G21G14
 -19377016.15044 -15098959.05544  20618407.9124   20618408.3184
 -10636286.25444  -8288006.10344  23026056.3634   23026057.5984
   -544792.42444   -424512.71444  24560591.2644
 -11087913.84344  -8639906.89044  23081766.8604   23081768.0684
 -18690502.50044 -14564021.58244  20756186.7104   20756188.7374
  -6086619.81544                  23780906.2844
 -16248335.25244 -12661032.89544  22280369.6394   22280371.7554
 96  7 11  4 24 30.0000000  0  7G25G29G22G 1G15G21G14
 -19365734.13844 -15090167.86644  20620554.5324   20620555.1364
 -10696811.11244  -8335168.26444  23014538.1674   23014540.8384
   -635860.40344   -495474.68944  24543262.4944   24543262.8644
 -11015151.80144  -8583209.19144  23095613.0724   23095613.7174
 -18681802.12944 -14557242.07044  20757842.5344   20757844.2294
  -5998319.77344                  23797709.1614
 -16326395.16144 -12721858.75344  22265515.5774   22265517.4134
 96  7 11  4 25  0.0000000  0  7G25G29G22G 1G15G21G14
 -19353955.07044 -15080989.36344  20622796.2384   20622797.0524
 -10757176.65944  -8382206.29444  23003051.3424   23003053.2264
   -727027.86744   -566514.11144  24525913.0064   24525913.2124
 -10942364.17344  -8526491.57144  23109464.2344   23109465.5294
 -18672473.90844 -14549973.32444  20759617.3674   20759619.2574
  -5909795.99644                  23814555.4934
 -16404375.93944 -12782622.96444  22250676.8414   22250678.6594
 96  7 11  4 25 30.0000000  0  7G25G29G22G 1G15G21G14
 -19341697.23244 -15071437.79044  20625128.8684   20625129.3574
 -10817400.39844  -8429133.82344  22991591.6434   22991592.7474
   -818319.84844   -637650.59544  24508541.7014   24508545.5144
 -10869571.35944  -8469769.92444  23123315.8244   23123317.8124
 -18662535.80344 -14542229.34944  20761508.5794   20761510.6184
  -5821077.14344                  23831439.2284
 -16482295.89144 -12843339.77944  22235849.0414   22235850.5344
 96  7 11  4 26  0.0000000  0  7G25G29G22G 1G15G21G14
 -19328926.80944 -15061486.80444  20627558.6984   20627559.5274
 -10877457.53144  -8475931.54144  22980163.0734   22980163.9264
   -909728.09544   -708877.70444  24491146.6314   24491146.2314
 -10796745.26344  -8413022.33044  23137174.4084   23137177.3904
 -18651967.16744 -14533994.05244  20763519.6944   20763522.1264
  -5732134.32244                  23848362.9674
 -16560129.66344 -12903989.43644  22221038.0064   22221039.6894
 96  7 11  4 26 30.0000000  0  7G25G29G22G 1G15G21G14
 -19315613.10344 -15051112.48044  20630092.4494   20630092.9124
 -10937350.58844  -8522601.40644  22968766.1994   22968767.5094
  -1001228.32944   -780176.48544  24473735.0924   24473736.3244
 -10723872.49444  -8356238.36244  23151041.1484   23151043.2814
 -18640757.55844 -14525259.29444  20765652.9494   20765655.0344
  -5642953.69444                  23865332.3204
 -16637864.08944 -12964561.67344  22206244.9044   22206247.4514
 96  7 11  4 27  0.0000000  0  7G25G29G22G 1G15G21G14
 -19301771.29844 -15040326.65744  20632726.3964   20632726.8304
 -10997091.35344  -8569152.60344  22957397.1534   22957398.8804
  -1092812.37844   -851540.56644  24456306.6404   24456307.5914
 -10650963.72744  -8299426.35744  23164915.4034   23164918.3034
 -18628911.89144 -14516028.90244  20767907.1294   20767909.2314
  -5553535.68044                  23882349.6294
 -16715491.68744 -13025050.66144  22191472.7574   22191475.4464
 96  7 11  4 27 30.0000000  0  6G29G22G25G 1G15G14
 -11056673.38844  -8615580.12944  22946058.7374   22946059.9624
  -1184466.74544   -922959.49344  24438865.0644   24438870.9444
 -19287390.27044 -15029120.65244  20635462.8704   20635462.9084
 -10578006.62944  -8242576.67144  23178799.6344   23178800.2544
 -18616419.82944 -14506294.83044  20770284.2234   20770286.1534
 -16792973.15944 -13085425.79944  22176728.7414   22176730.6634
 96  7 11  4 28  0.0000000  0  6G29G22G 1G14G25G15
 -11116140.61444  -8661918.16944  22934743.0644   22934743.4534
  -1276236.20344   -994468.08144  24421402.3034   24421404.1754
 -10505064.99044  -8185739.02544  23192679.7344   23192681.5994
 -16870349.98044 -13145719.39244  22162004.2314   22162006.2774
 -19272518.97044 -15017532.61844  20638292.9444   20638293.4254
 -18603333.49344 -14496097.67944  20772774.6474   20772776.3534
 96  7 11  4 28 30.0000000  0  6G29G22G 1G25G15G14
 -11175425.16444  -8708113.85744  22923461.8674   22923462.3894
  -1368062.33344  -1066020.80544  24403927.8704   24403932.6764
 -10432097.40244  -8128881.17344  23206565.1284   23206566.6824
 -19257122.86044 -15005535.64144  20641222.6214   20641223.1684
 -18589599.61844 -14485395.96244  20775388.0014   20775390.0544
 -16947557.54044 -13205881.09644  22147312.5114   22147314.2104
 96  7 11  4 29  0.0000000  0  6G25G29G22G 1G15G14
 -19241199.36844 -14993127.72144  20644252.8594   20644253.3884
 -11234509.25644  -8754153.34544  22912217.0604   22912219.9364
  -1459940.72544  -1137614.31144  24386443.7604   24386445.5684
 -10359093.56944  -8071995.07644  23220456.5514   23220457.7754
 -18575205.19344 -14474179.52744  20778127.0564   20778129.2444
 -17024576.93244 -13265896.17444  22132655.8564   22132657.4024
 96  7 11  4 29 30.0000000  0  6G29G22G 1G25G15G14
 -11293368.13544  -8800017.35944  22901016.2304   22901019.1634
  -1551851.68844  -1209233.16344  24368953.9144   24368957.0154
 -10286041.35044  -8015071.27744  23234359.1054   23234359.5064
 -19224694.80944 -14980267.02244  20647393.3304   20647393.6834
 -18560124.06344 -14462428.00544  20780996.9734   20780998.9594
 -17101394.80644 -13325754.21544  22118037.9344   22118040.0404
 96  7 11  4 30  0.0000000  0  6G29G22G 1G14G25G15
 -11352104.44244  -8845785.85244  22889839.7904   22889841.8464
  -1643881.52244  -1280944.65144  24351441.1704   24351443.6254
 -10213048.98244  -7958194.10944  23248248.5484   23248249.7394
 -17178134.54444 -13385551.37644  22103434.9684   22103436.5004
 -19207707.58544 -14967030.22144  20650625.9684   20650626.7184
 -18544457.04644 -14450219.94544  20783978.5434   20783980.4524
 96  7 11  4 30 30.0000000  0  6G29G22G 1G14G25G15
 -11410726.13644  -8891465.04844  22878684.4854   22878686.2814
  -1736024.06744  -1352743.93844  24333906.6824   24333909.5174
 -10140093.43744  -7901345.60944  23262130.9374   23262132.1914
 -17254805.94944 -13445295.31044  22088844.9884   22088846.4644
 -19190230.97644 -14953412.07844  20653951.7244   20653952.1504
 -18528201.53144 -14437553.31144  20787071.6744   20787073.6204
 96  7 11  4 31  0.0000000  0  6G29G22G 1G14G25G15
 -11469224.96344  -8937048.49444  22867552.9354   22867554.5574
  -1828240.65644  -1424600.92644  24316358.6904   24316359.2314
 -10067135.49544  -7844495.26644  23276014.0104   23276015.2624
 -17331392.89944 -13504973.42044  22074270.8814   22074272.4884
 -19172217.84144 -14939375.85944  20657379.4664   20657379.9714
 -18511333.83544 -14424409.65744  20790281.8564   20790283.6314
 96  7 11  4 31 30.0000000  0  6G29G22G 1G14G25G15
 -11527553.10844  -8982498.96544  22856453.4144   22856454.4084
  -1920480.55344  -1496476.07444  24298806.6474   24298809.9304
  -9994122.48144  -7787602.01644  23289908.4084   23289911.4274
 -17407847.58944 -13564548.45644  22059722.2134   22059723.7284
 -19153637.86844 -14924897.95444  20660915.1054   20660915.5374
 -18493808.06544 -14410753.21444  20793616.6004   20793618.6804
 96  7 11  4 32  0.0000000  0  6G29G22G 1G14G25G15
 -11585741.63544  -9027840.62844  22845380.1644   22845381.3824
  -2012776.73244  -1568395.08244  24281242.8784   24281245.1084
  -9921058.20744  -7730668.83544  23303811.9854   23303813.0204
 -17484185.97444 -13624032.87744  22045195.2284   22045196.2454
 -19134546.09244 -14910021.23644  20664548.2614   20664548.7464
 -18475654.75644 -14396607.77944  20797071.0194   20797072.9334
 96  7 11  4 32 30.0000000  0  6G29G22G 1G14G25G15
 -11643925.81044  -9073178.90744  22834307.9354   22834310.1314
  -2105281.79244  -1640476.87144  24263640.0514   24263643.1324
  -9848071.37544  -7673795.98544  23317700.2004   23317702.4274
 -17560527.60644 -13683519.83544  22030667.7864   22030669.1434
 -19115088.96144 -14894859.82944  20668250.6464   20668251.2114
 -18457015.34444 -14382083.55644  20800617.8464   20800619.8164
 96  7 11  4 33  0.0000000  0  6G29G22G 1G14G25G15
 -11703169.28944  -9119342.61944  22823034.4454   22823036.3524
  -2199067.15244  -1713556.25544  24245793.0074   24245796.4684
  -9776251.71344  -7617832.59444  23331367.5464   23331369.8854
 -17637938.77044 -13743840.19944  22015936.8184   22015938.9544
 -19096363.40844 -14880268.48444  20671813.8604   20671814.2074
 -18438968.30844 -14368020.93344  20804051.9214   20804053.9994
 96  7 11  4 33 30.0000000  0  6G29G22G 1G14G25G15
 -11761678.00844  -9164933.78144  22811900.4174   22811902.2214
  -2292344.63144  -1786239.90844  24228042.6774   24228045.3464
  -9703824.54044  -7561395.82244  23345150.5724   23345153.0784
 -17714625.40744 -13803595.99044  22001343.8934   22001345.8224
 -19076599.08544 -14864867.70344  20675575.3064   20675575.6954
 -18419728.92944 -14353029.20544  20807713.3294   20807715.2974
 96  7 11  4 34  0.0000000  0  6G29G22G 1G14G25G15
 -11819614.02144  -9210078.68044  22800875.6434   22800877.0334
  -2385270.24544  -1858649.43444  24210359.2364   24210365.4254
  -9630968.37244  -7504624.79344  23359013.8614   23359016.2504
 -17790752.95844 -13862916.13544  21986856.9604   21986858.5894
 -19055941.83344 -14848771.14044  20679505.8134   20679506.3864
 -18399467.24944 -14337240.88644  20811569.0634   20811570.9964
 96  7 11  4 34 30.0000000  0  6G29G22G 1G14G25G15
 -11876724.46944  -9254580.26944  22790007.7354   22790009.8774
  -2477576.32444  -1930576.18144  24192793.5614   24192793.4054
  -9557466.05444  -7447350.25144  23373000.8174   23373003.8434
 -17866079.66844 -13921612.25044  21972523.3084   21972525.2694
 -19034137.86844 -14831781.02644  20683655.0984   20683655.4894
 -18377939.50344 -14320466.02444  20815665.6234   20815668.0424
 96  7 11  4 35  0.0000000  0  6G29G22G 1G14G25G15
 -11933310.66644  -9298673.36044  22779240.1944   22779240.6574
  -2569543.68844  -2002239.01144  24175293.8524   24175295.9644
  -9483633.12544  -7389818.10144  23387050.5284   23387053.6094
 -17940906.78544 -13979919.06744  21958283.7694   21958285.3464
 -19011477.09544 -14814123.26944  20687967.3464   20687967.8304
 -18355438.90544 -14302933.10244  20819947.7544   20819949.7804
 96  7 11  4 35 30.0000000  0  6G29G22G 1G14G25G15
 -11989754.94344  -9342655.87044  22768499.1524   22768499.9384
  -2661543.78044  -2073927.34144  24157785.8434   24157789.3324
  -9409841.72344  -7332318.27644  23401092.7294   23401094.2774
 -18015602.25844 -14038123.31144  21944069.7254   21944071.9374
 -18988315.80744 -14796075.50544  20692374.5724   20692375.4044
 -18332332.44244 -14284928.06244  20824344.4944   20824345.9374
 96  7 11  4 36  0.0000000  0  6G29G22G 1G14G25G15
 -12046545.61544  -9386908.29344  22757692.1054   22757693.3164
  -2754074.71944  -2146029.35144  24140178.1774   24140178.7004
  -9336576.66044  -7275228.56744  23415035.2644   23415037.2234
 -18090657.88644 -14096608.19944  21929786.8964   21929788.7914
 -18965135.46744 -14778012.90544  20696786.0054   20696786.3624
 -18309107.09444 -14266830.37644  20828764.0894   20828765.7174
 96  7 11  4 36 30.0000000  0  6G29G22G 1G14G25G15
 -12103357.82344  -9431177.49944  22746881.1364   22746882.8534
  -2846810.58644  -2218290.95844  24122530.7774   24122534.0794
  -9263496.15644  -7218282.69044  23428942.6094   23428943.3384
 -18165742.45344 -14155115.63144  21915498.9984   21915500.5394
 -18941619.21044 -14759688.53444  20701260.7854   20701261.4114
 -18285431.44244 -14248381.83444  20833269.2074   20833270.8884
 96  7 11  4 37  0.0000000  0  6G29G22G 1G14G25G15
 -12159886.08144  -9475225.43944  22736124.0354   22736125.0674
  -2939449.53044  -2290477.12944  24104901.6204   24104902.7504
  -9190254.75244  -7161211.44344  23442879.2434   23442881.2834
 -18240532.29144 -14213393.40944  21901267.0564   21901268.8314
 -18917452.73044 -14740857.50244  20705859.8444   20705860.2574
 -18260990.92944 -14229337.28744  20837920.1694   20837922.3294
 96  7 11  4 37 30.0000000  0  6G29G22G 1G14G25G15
 -12216198.52144  -9519105.21344  22725407.9314   22725408.9484
  -3032059.68844  -2362640.79044  24087279.0284   24087283.8864
  -9116902.70744  -7104053.99944  23456837.6814   23456838.7954
 -18315092.94544 -14271492.59244  21887078.6234   21887080.3494
 -18892704.41544 -14721573.09544  20710569.1694   20710569.5824
 -18235861.53444 -14209755.94844  20842702.2414   20842704.1774
 96  7 11  4 38  0.0000000  0  6G29G22G 1G14G25G15
 -12272412.08944  -9562907.94144  22714710.6234   22714711.9724
  -3124739.19744  -2434858.58044  24069642.2424   24069642.9784
  -9043543.90844  -7046891.29944  23470796.9854   23470798.4224
 -18389525.13644 -14329491.67644  21872914.7054   21872916.4074
 -18867494.45444 -14701928.96344  20715366.4094   20715367.0034
 -18210159.29744 -14189728.23644  20847592.8184   20847594.9854
 96  7 11  4 38 30.0000000  0  6G29G22G 1G14G25G15
 -12328530.41944  -9606636.47544  22704031.7134   22704032.9334
  -3217460.73644  -2507109.08044  24051998.3164   24052000.5194
  -8970169.37244  -6989716.30444  23484760.3924   23484762.1744
 -18463803.43444 -14387370.84244  21858779.9494   21858781.6314
 -18841823.77644 -14681925.82944  20720251.3684   20720251.7534
 -18183875.31644 -14169247.21644  20852594.4874   20852596.6284
 96  7 11  4 39  0.0000000  0  6G29G22G 1G14G25G15
 -12384568.84844  -9650302.74144  22693367.7214   22693369.4864
  -3310221.49844  -2579390.12244  24034346.1804   24034349.3124
  -8896802.74444  -6932547.45244  23498720.9504   23498722.7754
 -18537936.28444 -14445136.67844  21844672.7494   21844674.5514
 -18815704.13244 -14661572.84944  20725221.6734   20725222.2764
 -18157022.08244 -14148322.62144  20857704.6644   20857706.6164
 96  7 11  4 39 30.0000000  0  6G29G22G 1G14G25G15
 -12440498.64344  -9693884.35244  22682724.6794   22682726.5454
  -3402994.07044  -2651680.32944  24016693.0474   24016693.6594
  -8823442.92244  -6875383.93044  23512680.1924   23512681.8284
 -18611903.30344 -14502773.30644  21830597.2984   21830598.8684
 -18789120.10044 -14640858.01444  20730280.3674   20730280.9734
 -18129576.04844 -14126936.10144  20862927.9734   20862929.7464
 96  7 11  4 40  0.0000000  0  6G29G22G 1G14G25G15
 -12496319.43544  -9737381.02444  22672102.1464   22672103.7104
  -3495786.53344  -2723986.08144  23999034.8714   23999036.3484
  -8750105.33144  -6818237.73744  23526636.6414   23526637.0904
 -18685722.95144 -14560295.08444  21816549.7354   21816551.7894
 -18762086.09044 -14619792.54444  20735425.0274   20735425.4884
 -18101543.58444 -14105092.62244  20868262.0674   20868263.8904
 96  7 11  4 40 30.0000000  0  6G29G22G 1G14G25G15
 -12552001.64244  -9780769.71844  22661506.1664   22661508.2774
  -3588600.80144  -2796308.81944  23981372.5174   23981375.3744
  -8676778.18644  -6761099.68944  23540590.3754   23540591.4424
 -18759401.16544 -14617706.65244  21802528.8714   21802530.7254
 -18734578.64944 -14598358.17144  20740659.3254   20740659.9144
 -18072913.89644 -14082783.77444  20873710.0324   20873711.6574
 96  7 11  4 41  0.0000000  0  6G29G22G 1G14G25G15
 -12607567.73244  -9824067.91744  22650932.5354   22650933.2544
  -3681486.40144  -2868687.21044  23963697.2824   23963697.8284
  -8603498.55144  -6703998.62644  23554534.9494   23554538.1894
 -18833000.81844 -14675057.00544  21788523.7324   21788525.1154
 -18706636.92044 -14576585.38844  20745976.6464   20745977.0994
 -18043731.08344 -14060043.91944  20879263.1934   20879265.2934
 96  7 11  4 41 30.0000000  0  6G29G22G 1G14G25G15
 -12662961.87944  -9867232.15344  22640391.5884   22640392.3564
  -3774404.95544  -2941091.16944  23946014.1614   23946015.8864
  -8530209.75244  -6646890.41944  23568481.2464   23568483.8904
 -18906481.43844 -14732314.61344  21774540.6154   21774542.3664
 -18678208.17344 -14554433.11344  20751386.3104   20751386.8824
 -18013946.48644 -14036835.14444  20884930.6204   20884932.7144
 96  7 11  4 42  0.0000000  0  6G29G22G 1G14G25G15
 -12718193.51144  -9910269.75844  22629881.3034   22629883.1684
  -3867354.47744  -3013519.31944  23928327.4424   23928329.2834
  -8456911.98244  -6589775.24944  23582428.8324   23582429.8864
 -18979843.90544 -14789480.14944  21760580.4564   21760582.0804
 -18649287.06344 -14531897.17844  20756889.4894   20756889.8744
 -17983566.22244 -14013162.21744  20890712.3054   20890714.3984
 96  7 11  4 42 30.0000000  0  6G29G22G 1G14G25G15
 -12773217.35144  -9953145.45744  22619410.6294   22619412.3934
  -3960285.23244  -3085932.84744  23910643.8674   23910645.1364
  -8383564.46544  -6532621.31044  23596387.2154   23596388.3614
 -19053007.42944 -14846490.66544  21746657.9934   21746659.5294
 -18619815.92844 -14508932.65244  20762497.8764   20762498.3594
 -17952540.80044 -13988986.56744  20896616.3994   20896618.2274
 96  7 11  4 43  0.0000000  0  6G29G22G 1G14G25G15
 -12828177.57844  -9995971.56244  22608952.0094   22608953.1514
  -4053313.01744  -3158421.97344  23892940.5834   23892943.6964
  -8310310.78344  -6475540.51044  23610326.4264   23610328.0994
 -19126087.64944 -14903436.26844  21732751.3204   21732752.9304
 -18589942.00344 -14485654.26944  20768182.5824   20768183.0154
 -17921002.68444 -13964411.41944  20902618.0564   20902619.6924
 96  7 11  4 43 30.0000000  0  6G29G22G 1G14G25G15
 -12882979.46044 -10038674.29244  22598523.6934   22598524.6254
  -4146323.97444  -3230897.99544  23875241.2804   23875242.6054
  -8237053.74144  -6418457.05344  23624266.7584   23624268.3464
 -19198962.91844 -14960222.17244  21718883.7114   21718885.1774
 -18559555.20544 -14461976.23544  20773965.2184   20773965.5274
 -17888849.62144 -13939357.08544  20908736.5644   20908738.3064
 96  7 11  4 44  0.0000000  0  6G29G22G 1G14G25G15
 -12937640.33144 -10081267.14244  22588121.8624   22588123.2104
  -4239322.35844  -3303364.20044  23857544.0654   23857546.0804
  -8163823.51844  -6361394.51444  23638201.5734   23638203.9624
 -19271639.32044 -15016853.11944  21705053.5504   21705055.1374
 -18528679.76844 -14437917.44844  20779840.4264   20779841.0894
 -17856106.51244 -13913842.97544  20914967.1094   20914969.1954
 96  7 11  4 44 30.0000000  0  6G29G22G 1G14G25G15
 -12992114.88644 -10123714.81744  22577755.7654   22577757.0994
  -4332251.55844  -3375776.51244  23839860.4144   23839863.1334
  -8090569.04344  -6304313.11344  23652141.7394   23652143.8094
 -19344071.86444 -15073294.04644  21691270.1874   21691271.4804
 -18497283.69444 -14413452.97044  20785815.0954   20785815.4444
 -17822728.01944 -13887833.75744  20921318.5884   20921320.7164
 96  7 11  4 45  0.0000000  0  6G29G22G 1G14G25G15
 -13046399.95244 -10166014.83544  22567425.9604   22567427.0544
  -4425083.41744  -3448113.02844  23822194.9434   23822194.4544
  -8017263.91844  -6247192.24944  23666092.0914   23666092.8624
 -19416275.47844 -15129556.58044  21677530.3764   21677531.9134
 -18465374.93144 -14388588.99344  20791887.1744   20791887.6554
 -17788706.62044 -13861323.57244  20927792.4544   20927794.7314
 96  7 11  4 45 30.0000000  0  6G29G22G 1G14G25G15
 -13100520.34544 -10208186.54944  22557127.1334   22557128.1514
  -4517842.79744  -3520393.04444  23804542.8284   23804546.0454
  -7943925.57444  -6190045.47744  23680047.7474   23680050.3274
 -19488272.70444 -15185658.30244  21663829.5424   21663831.5434
 -18432985.06644 -14363350.12944  20798050.7054   20798051.1934
 -17754074.88044 -13834337.80144  20934383.1744   20934385.0484
 96  7 11  4 46  0.0000000  0  6G29G22G 1G14G25G15
 -13154549.37144 -10250287.06444  22546845.1664   22546846.4414
  -4610591.15944  -3592664.48944  23786893.2964   23786895.0134
  -7870614.16844  -6132919.70844  23693998.3844   23693999.3734
 -19560117.01244 -15241640.87444  21650158.0134   21650159.3594
 -18400187.93644 -14337793.91744  20804291.6364   20804292.1704
 -17718894.07444 -13806924.18444  20941077.9314   20941079.9954
 96  7 11  4 46 30.0000000  0  6G29G22G 1G14G25G15
 -13208444.96444 -10292283.60544  22536589.3184   22536590.5914
  -4703289.74244  -3664897.11944  23769253.5904   23769256.1274
  -7797262.83744  -6075762.83444  23707956.6684   23707957.3874
 -19631753.76944 -15297461.70744  21636525.9514   21636527.3564
 -18366930.11544 -14311878.72444  20810620.4224   20810620.7654
 -17683107.59344 -13779038.60544  20947887.5894   20947889.5874
 96  7 11  4 47  0.0000000  0  6G29G22G 1G14G25G15
 -13262230.69844 -10334194.53744  22526354.3004   22526354.8024
  -4795988.36744  -3737129.79544  23751613.0964   23751616.4074
  -7723906.96544  -6018602.39544  23721915.7494   23721915.9614
 -19703214.11244 -15353145.06544  21622927.4694   21622928.9484
 -18333240.08944 -14285626.74444  20817031.5134   20817032.1694
 -17646754.29844 -13750711.35944  20954805.3604   20954807.5314
 96  7 11  4 47 30.0000000  0  6G29G22G 1G14G25G15
 -13315864.08344 -10375986.75444  22516148.2814   22516148.8294
  -4888679.35444  -3809356.53344  23733975.6904   23733975.6954
  -7650522.64544  -5961419.77744  23735880.7544   23735880.6214
 -19774459.75544 -15408661.13844  21609370.0734   21609371.5184
 -18299063.58244 -14258995.69544  20823534.8484   20823535.2684
 -17609802.46044 -13721917.72544  20961837.4424   20961839.2954
 96  7 11  4 48  0.0000000  0  6G29G22G 1G14G25G15
 -13369364.54244 -10417675.39244  22505967.0834   22505968.3934
  -4981394.72544  -3881602.26644  23716332.7734   23716334.1534
  -7577137.13844  -5904236.24544  23749844.7044   23749845.6874
 -19845513.39444 -15464027.60244  21595848.8914   21595850.6874
 -18264412.06344 -14231994.49844  20830128.9094   20830129.3954
 -17572266.98344 -13692669.31544  20968979.9154   20968981.9354
